Date StartTime U_cm/s V_cm/s W_cm/s Ustd_cm/s Vstd_cm/s Wstd_cm/s Uvar_(cm/s)^2 Vvar_(cm/s)^2 Wvar_(cm/s)^2 KE_(m/s)^2 TurbulentKE_(m/s)^2 HorizWindSpeed_cm/s FrictionSpeec_cm/s DragCoef SpeedOfSound_m/s SonicTemperature_C Pressure_mb 
07/25/2014  00:00:00     -110.737      -46.371      -15.909       13.118       15.766        9.515      172.092      248.563       90.536        0.759        0.026      120.054        5.587        0.002      344.269       20.968      861.217
07/25/2014  00:01:00      -63.679      -44.008       -4.097       24.993       27.601       16.124      624.652      761.806      259.984        0.383        0.082       77.406       11.278        0.021      344.185       20.826      861.221
07/25/2014  00:02:00      -83.061      -38.349      -10.507       35.239       21.425       18.726     1241.791      459.046      350.667        0.527        0.103       91.486       18.770        0.042      344.197       20.845      861.201
07/25/2014  00:03:00      -92.145      -26.206        1.571       34.324       22.609       18.963     1178.114      511.158      359.594        0.561        0.102       95.799       14.510        0.023      344.248       20.932      861.188
07/25/2014  00:04:00     -105.734       -2.837       -5.713       25.467       15.790       14.382      648.570      249.313      206.832        0.616        0.055      105.773       10.392        0.010      344.279       20.985      861.184
07/25/2014  00:05:00      -88.256      -12.909       -3.305       30.238       18.990       18.009      914.352      360.603      324.321        0.478        0.080       89.195       17.639        0.039      344.160       20.782      861.169
07/25/2014  00:06:00      -76.427      -34.547       -2.848       24.302       23.610       13.557      590.581      557.450      183.787        0.419        0.067       83.872        8.762        0.011      344.244       20.925      861.181
07/25/2014  00:07:00     -114.979      -32.370      -11.878       15.648       12.668       10.940      244.849      160.490      119.688        0.747        0.026      119.449        7.404        0.004      344.226       20.895      861.183
07/25/2014  00:08:00      -83.288      -31.940       -0.889       30.987       21.063       12.737      960.166      443.669      162.243        0.476        0.078       89.202        9.493        0.011      344.128       20.727      861.191
07/25/2014  00:09:00      -84.490      -24.057       -2.048       25.058       19.347       14.074      627.902      374.304      198.064        0.446        0.060       87.848       11.298        0.017      344.181       20.816      861.203
07/25/2014  00:10:00      -68.511      -16.134        2.323       23.222       20.368       12.820      539.281      414.838      164.353        0.304        0.056       70.385       10.729        0.023      344.143       20.753      861.208
07/25/2014  00:11:00      -41.901      -28.379        7.075       37.538       24.382       16.334     1409.098      594.483      266.791        0.244        0.114       50.607       16.107        0.101      344.227       20.896      861.219
07/25/2014  00:12:00      -60.970      -24.187        2.052       28.014       18.792       13.810      784.777      353.136      190.730        0.282        0.066       65.592        8.818        0.018      344.136       20.743      861.218
07/25/2014  00:13:00      -58.528      -29.693       -0.063       43.302       17.486       16.032     1875.047      305.764      257.025        0.337        0.122       65.629       14.723        0.050      344.080       20.644      861.208
07/25/2014  00:14:00      -68.670      -61.192        2.384       32.097       24.093       20.329     1030.226      580.475      413.272        0.524        0.101       91.978       19.756        0.046      344.039       20.576      861.198
07/25/2014  00:15:00      -52.473      -45.445        6.005       39.678       31.574       21.990     1574.345      996.917      483.545        0.395        0.153       69.417       14.308        0.042      343.970       20.457      861.201
07/25/2014  00:16:00      -63.967      -58.611        8.112       59.006       42.653       23.887     3481.660     1819.295      570.566        0.673        0.294       86.758       16.256        0.035      343.973       20.462      861.196
07/25/2014  00:17:00     -110.014      -77.487        4.865       54.393       46.016       30.863     2958.567     2117.438      952.497        1.208        0.301      134.564       25.014        0.035      344.035       20.567      861.205
07/25/2014  00:18:00     -138.093      -66.695        3.928       52.703       37.253       29.732     2777.574     1387.780      883.998        1.429        0.252      153.356       31.081        0.041      344.026       20.552      861.214
07/25/2014  00:19:00     -149.371      -71.027       -6.396       34.002       31.451       19.619     1156.120      989.144      384.891        1.496        0.127      165.398       10.905        0.004      344.103       20.682      861.208
07/25/2014  00:20:00      -80.917      -50.646        5.513       47.184       32.530       25.574     2226.373     1058.218      654.042        0.654        0.197       95.460       27.057        0.080      343.984       20.480      861.217
07/25/2014  00:21:00     -106.668      -40.581        3.033       53.456       35.375       23.085     2857.505     1251.383      532.924        0.884        0.232      114.127       19.355        0.029      343.992       20.495      861.213
07/25/2014  00:22:00     -147.417      -85.412        2.616       52.297       37.879       30.436     2735.027     1434.823      926.343        1.706        0.255      170.373       25.957        0.023      344.055       20.601      861.216
07/25/2014  00:23:00     -151.407      -92.800       -2.552       45.474       40.406       25.658     2067.878     1632.653      658.308        1.795        0.218      177.583       19.756        0.012      344.035       20.566      861.223
07/25/2014  00:24:00     -118.271      -99.090       -9.999       38.335       36.489       24.439     1469.567     1331.468      597.281        1.365        0.170      154.294       17.142        0.012      344.030       20.559      861.225
07/25/2014  00:25:00      -91.535      -56.913        1.576       42.247       38.232       24.584     1784.823     1461.674      604.380        0.773        0.193      107.786       26.427        0.060      344.052       20.598      861.245
07/25/2014  00:26:00     -120.842      -40.997      -10.193       52.118       33.276       20.942     2716.317     1107.273      438.574        1.032        0.213      127.607       26.093        0.042      344.043       20.581      861.254
07/25/2014  00:27:00     -115.425      -39.470       -3.771       48.472       44.684       21.092     2349.489     1996.693      444.893        0.984        0.240      121.987       20.112        0.027      343.938       20.402      861.251
07/25/2014  00:28:00     -123.744      -28.704        0.816       39.155       39.379       21.632     1533.134     1550.703      467.962        0.984        0.178      127.030       19.609        0.024      343.870       20.286      861.261
07/25/2014  00:29:00     -129.816      -16.968        0.273       39.488       36.779       25.705     1559.292     1352.717      660.767        1.036        0.179      130.920       24.631        0.035      343.805       20.175      861.255
07/25/2014  00:30:00     -139.664      -46.009       -7.448       35.445       47.011       25.534     1256.347     2210.079      652.010        1.290        0.206      147.048       22.901        0.024      343.882       20.307      861.252
07/25/2014  00:31:00     -110.346      -32.766       -1.773       32.826       31.575       18.676     1077.562      997.001      348.809        0.784        0.121      115.108       15.461        0.018      343.846       20.245      861.271
07/25/2014  00:32:00     -105.689       -7.565       -0.677       40.866       22.055       21.130     1670.013      486.407      446.486        0.691        0.130      105.959       24.044        0.051      343.806       20.178      861.276
07/25/2014  00:33:00     -112.518      -34.264        1.446       27.733       30.995       17.864      769.143      960.680      319.127        0.794        0.102      117.619       16.188        0.019      343.805       20.176      861.286
07/25/2014  00:34:00      -98.304      -37.390        3.479       26.950       29.976       16.836      726.276      898.554      283.466        0.649        0.095      105.175       15.591        0.022      343.784       20.138      861.294
07/25/2014  00:35:00      -79.443      -31.124        8.402       30.797       27.373       16.959      948.442      749.288      287.600        0.467        0.099       85.322       16.487        0.037      343.793       20.155      861.285
07/25/2014  00:36:00      -87.778      -18.086        0.514       26.177       21.955       14.020      685.218      482.033      196.550        0.470        0.068       89.622       10.517        0.014      343.774       20.122      861.285
07/25/2014  00:37:00      -81.374      -15.817       -0.041       22.327       16.715       13.803      498.491      279.407      190.525        0.392        0.048       82.897       12.652        0.023      343.761       20.102      861.285
07/25/2014  00:38:00      -73.453      -23.359        1.419       32.789       22.482       13.744     1075.120      505.454      188.887        0.386        0.088       77.078       14.036        0.033      343.833       20.224      861.286
07/25/2014  00:39:00      -91.813       -9.005       -6.082       22.560       20.110       14.059      508.935      404.408      197.663        0.483        0.056       92.253       12.645        0.019      343.790       20.149      861.284
07/25/2014  00:40:00      -83.919      -11.339       -2.049       31.442       17.687       14.831      988.612      312.835      219.961        0.435        0.076       84.682       15.524        0.034      343.706       20.006      861.275
07/25/2014  00:41:00      -82.373      -16.503        2.897       29.491       19.079       13.844      869.724      364.022      191.656        0.425        0.071       84.009       15.424        0.034      343.706       20.006      861.269
07/25/2014  00:42:00     -106.523       -5.321       -1.270       26.504       17.793       21.287      702.451      316.590      453.118        0.642        0.074      106.656       17.988        0.028      343.675       19.954      861.259
07/25/2014  00:43:00     -111.406       -3.336       -5.659       34.045       23.853       21.970     1159.080      568.973      482.692        0.733        0.111      111.456       22.445        0.041      343.697       19.990      861.245
07/25/2014  00:44:00     -123.447       -3.270       -6.768       36.838       20.975       19.722     1357.033      439.960      388.964        0.874        0.109      123.491       17.911        0.021      343.652       19.913      861.239
07/25/2014  00:45:00     -179.736      -14.400      -11.309       23.969       16.907       16.009      574.492      285.849      256.303        1.688        0.056      180.311       12.346        0.005      343.772       20.119      861.225
07/25/2014  00:46:00     -158.066      -14.115       -4.002       46.037       23.564       22.371     2119.381      555.269      500.444        1.419        0.159      158.695       25.609        0.026      343.794       20.155      861.212
07/25/2014  00:47:00     -172.034        5.612      -11.400       37.759       21.054       21.141     1425.779      443.284      446.952        1.604        0.116      172.125       20.418        0.014      343.826       20.210      861.211
07/25/2014  00:48:00     -139.036       -1.726      -10.671       39.574       23.636       20.800     1566.068      558.675      432.622        1.100        0.128      139.046       20.632        0.022      343.620       19.859      861.199
07/25/2014  00:49:00     -120.904       -6.342       -1.151       46.048       26.344       23.512     2120.379      694.021      552.836        0.901        0.168      121.070       23.154        0.037      343.563       19.762      861.184
07/25/2014  00:50:00     -121.164       -2.436       -4.131       36.960       28.030       20.130     1366.012      785.708      405.226        0.863        0.128      121.188       19.212        0.025      343.624       19.866      861.171
07/25/2014  00:51:00     -111.007      -12.447       -3.969       37.362       27.890       21.789     1395.951      777.865      474.762        0.757        0.132      111.702       21.312        0.036      343.579       19.789      861.157
07/25/2014  00:52:00     -129.156      -12.589       -6.367       35.808       29.392       20.973     1282.207      863.907      439.862        0.973        0.129      129.768       22.396        0.030      343.590       19.808      861.138
07/25/2014  00:53:00     -106.496      -47.349       -6.015       23.997       22.025       16.576      575.866      485.080      274.770        0.748        0.067      116.548       14.092        0.015      343.578       19.788      861.134
07/25/2014  00:54:00      -94.002      -24.154       -1.628       35.777       26.790       18.997     1279.988      717.710      360.875        0.589        0.118       97.056       19.756        0.041      343.494       19.645      861.114
07/25/2014  00:55:00     -116.776      -20.442       -4.257       27.937       27.333       17.983      780.493      747.069      323.387        0.796        0.093      118.552       14.571        0.015      343.498       19.652      861.095
07/25/2014  00:56:00      -83.712      -24.660        0.303       31.700       28.006       13.892     1004.864      784.313      192.999        0.480        0.099       87.268       16.313        0.035      343.523       19.694      861.094
07/25/2014  00:57:00      -94.876      -33.879       -1.839       29.864       24.028       15.592      891.864      577.360      243.097        0.593        0.086      100.743       17.667        0.031      343.611       19.844      861.097
07/25/2014  00:58:00      -84.963      -29.314        3.401       28.079       27.772       14.434      788.450      771.284      208.349        0.493        0.088       89.878        9.916        0.012      343.588       19.805      861.097
07/25/2014  00:59:00      -46.021      -34.881       -0.550       40.359       23.419       18.272     1628.811      548.437      333.874        0.292        0.126       57.746       19.365        0.112      343.566       19.768      861.110
07/25/2014  01:00:00      -27.958      -46.013       10.551       43.166       24.646       22.663     1863.331      607.401      513.603        0.300        0.149       53.841       25.555        0.225      343.586       19.801      861.129
07/25/2014  01:01:00      -48.673      -46.049       -0.330       44.687       27.552       18.828     1996.883      759.120      354.503        0.380        0.156       67.004       21.184        0.100      343.552       19.743      861.138
07/25/2014  01:02:00      -73.946      -48.430        0.796       44.268       31.494       19.265     1959.635      991.888      371.143        0.557        0.166       88.393       22.066        0.062      343.523       19.694      861.144
07/25/2014  01:03:00      -92.754      -62.420       -4.065       54.391       25.550       15.510     2958.365      652.787      240.567        0.818        0.193      111.802       22.252        0.040      343.544       19.731      861.154
07/25/2014  01:04:00      -92.812      -70.389       -1.894       32.324       22.310       18.592     1044.822      497.744      345.681        0.773        0.094      116.485       14.630        0.016      343.490       19.639      861.152
07/25/2014  01:05:00      -81.004      -74.027        2.134       39.780       28.257       23.335     1582.428      798.430      544.520        0.749        0.146      109.734       22.024        0.040      343.391       19.468      861.147
07/25/2014  01:06:00      -99.848      -71.805        4.056       46.692       42.194       24.844     2180.155     1780.301      617.223        0.986        0.229      122.986       24.970        0.041      343.379       19.448      861.140
07/25/2014  01:07:00      -93.797      -79.495        2.986       62.634       37.596       29.889     3922.961     1413.475      893.376        1.068        0.311      122.952       34.586        0.079      343.413       19.506      861.123
07/25/2014  01:08:00      -83.019      -70.576        5.365       49.862       38.984       26.661     2486.224     1519.776      710.832        0.831        0.236      108.964       30.655        0.079      343.451       19.572      861.111
07/25/2014  01:09:00     -112.783      -77.361       -8.622       28.565       26.326       16.584      815.985      693.060      275.029        1.028        0.089      136.765       11.498        0.007      343.418       19.517      861.113
07/25/2014  01:10:00     -135.436      -51.054      -10.316       24.763       25.520       19.270      613.221      651.270      371.323        1.135        0.082      144.739       10.947        0.006      343.426       19.529      861.116
07/25/2014  01:11:00     -130.438      -56.090       -2.056       28.312       25.598       14.858      801.578      655.256      220.768        1.092        0.084      141.986        8.661        0.004      343.424       19.525      861.115
07/25/2014  01:12:00     -144.280      -39.091        0.242       26.864       30.915       19.316      721.684      955.713      373.117        1.220        0.103      149.481       15.841        0.011      343.389       19.467      861.101
07/25/2014  01:13:00     -130.422      -73.806        1.692       38.076       34.606       26.640     1449.778     1197.564      709.675        1.291        0.168      149.857       21.517        0.021      343.364       19.422      861.111
07/25/2014  01:14:00     -142.730      -55.127       -2.154       34.157       30.522       21.151     1166.714      931.597      447.382        1.298        0.127      153.006       17.704        0.013      343.395       19.475      861.101
07/25/2014  01:15:00     -108.894      -39.684        2.999       42.967       26.670       19.384     1846.180      711.283      375.757        0.819        0.147      115.899       21.679        0.035      343.377       19.446      861.090
07/25/2014  01:16:00     -102.776      -45.851       -4.681       36.398       28.438       17.136     1324.848      808.710      293.642        0.756        0.121      112.540       16.197        0.021      343.376       19.444      861.092
07/25/2014  01:17:00     -126.519      -28.922       -2.728       33.275       29.663       21.327     1107.211      879.888      454.832        0.965        0.122      129.783        7.312        0.003      343.344       19.388      861.079
07/25/2014  01:18:00     -142.104      -54.759        2.495       38.779       32.422       19.279     1503.774     1051.205      371.696        1.306        0.146      152.289       20.032        0.017      343.299       19.313      861.066
07/25/2014  01:19:00     -111.049      -60.200        2.781       52.941       28.934       18.440     2802.753      837.184      340.024        0.997        0.199      126.317       22.248        0.031      343.304       19.322      861.073
07/25/2014  01:20:00     -131.981      -58.542       -0.209       36.275       27.665       18.219     1315.877      765.338      331.928        1.163        0.121      144.382       12.535        0.008      343.315       19.339      861.067
07/25/2014  01:21:00     -120.497      -49.705        1.027       33.028       23.785       17.749     1090.881      565.728      315.013        0.948        0.099      130.346       17.324        0.018      343.327       19.360      861.065
07/25/2014  01:22:00     -125.654      -55.753        0.138       31.719       21.505       16.414     1006.066      462.472      269.427        1.032        0.087      137.468       14.747        0.012      343.360       19.417      861.070
07/25/2014  01:23:00     -122.132      -43.404       -1.328       23.612       22.724       14.562      557.510      516.396      212.042        0.904        0.064      129.616        9.563        0.005      343.364       19.425      861.076
07/25/2014  01:24:00     -107.723      -19.558       -2.950       33.796       22.656       17.021     1142.163      513.288      289.711        0.697        0.097      109.484       19.539        0.032      343.274       19.271      861.090
07/25/2014  01:25:00     -103.507      -28.807        2.080       38.564       21.968       19.467     1487.206      482.572      378.983        0.695        0.117      107.441       21.190        0.039      343.237       19.207      861.110
07/25/2014  01:26:00     -120.554      -28.331       -2.200       39.731       28.362       17.410     1578.535      804.401      303.113        0.901        0.134      123.839       15.897        0.016      343.277       19.274      861.112
07/25/2014  01:27:00     -121.902      -36.043       -3.313       27.525       22.446       18.501      757.646      503.820      342.273        0.889        0.080      127.119       15.522        0.015      343.221       19.180      861.101
07/25/2014  01:28:00      -99.316       -2.553       -9.633       27.925       19.062       18.796      779.829      363.364      353.280        0.573        0.075       99.348       16.851        0.029      343.086       18.950      861.119
07/25/2014  01:29:00      -90.317      -10.565      -12.158       13.387       16.884       10.584      179.198      285.078      112.030        0.450        0.029       90.933        8.386        0.009      343.141       19.044      861.122
07/25/2014  01:30:00      -86.118       -2.221      -12.579       21.594       28.428       17.127      466.308      808.136      293.336        0.457        0.078       86.147       16.013        0.035      343.159       19.076      861.121
07/25/2014  01:31:00      -79.239       24.291      -16.696       31.152       53.697       16.445      970.460     2883.364      270.428        0.564        0.206       82.879       20.506        0.061      343.321       19.351      861.136
07/25/2014  01:32:00      -39.020      -16.377      -10.380       33.887       17.400       12.239     1148.322      302.748      149.805        0.175        0.080       42.317        6.581        0.024      343.185       19.118      861.133
07/25/2014  01:33:00      -24.708       43.653      -11.063       39.020       61.003       19.592     1522.589     3721.331      383.840        0.413        0.281       50.160        7.777        0.024      343.678       19.959      861.113
07/25/2014  01:34:00      -47.184       79.334      -13.805       34.939       79.190       20.564     1220.763     6271.034      422.865        0.831        0.396       92.305       25.798        0.078      343.699       19.996      861.094
07/25/2014  01:35:00      -14.900      114.808       -9.122       19.038       31.432       14.978      362.427      987.990      224.338        0.753        0.079      115.771       13.498        0.014      344.243       20.926      861.084
07/25/2014  01:36:00      -61.674        3.113      -14.974       21.317       37.370        9.950      454.398     1396.537       98.995        0.299        0.097       61.753        5.672        0.008      343.726       20.041      861.073
07/25/2014  01:37:00      -28.589       31.850       -5.583       30.305       38.455       14.111      918.370     1478.812      199.128        0.223        0.130       42.799       16.766        0.153      344.142       20.751      861.068
07/25/2014  01:38:00       19.373       59.353       -4.703       31.384       50.514       26.447      984.958     2551.623      699.428        0.408        0.212       62.435       29.936        0.230      344.333       21.077      861.070
07/25/2014  01:39:00      -28.311        1.176       -5.132       26.052       21.820       20.749      678.681      476.133      430.531        0.121        0.079       28.335       11.368        0.161      344.089       20.662      861.065
07/25/2014  01:40:00      -80.817       18.343        3.753       56.026       27.643       18.073     3138.870      764.143      326.628        0.555        0.211       82.873       18.956        0.052      344.257       20.949      861.071
07/25/2014  01:41:00      -60.970       36.097       -8.465       38.069      104.352       31.258     1449.280    10889.278      977.044        0.920        0.666       70.855       37.383        0.278      344.196       20.843      861.056
07/25/2014  01:42:00     -102.338       73.964      -19.923       42.641       56.913       25.845     1818.238     3239.066      667.950        1.103        0.286      126.268       16.430        0.017      344.313       21.042      861.073
07/25/2014  01:43:00      -98.923       48.180      -11.889       49.857       41.039       30.703     2485.676     1684.227      942.690        0.868        0.256      110.032       28.435        0.067      344.202       20.854      861.080
07/25/2014  01:44:00     -102.369       75.126      -23.733       58.739       37.230       23.560     3450.260     1386.046      555.080        1.104        0.270      126.978       22.768        0.032      344.328       21.068      861.093
07/25/2014  01:45:00      -62.884        6.831      -11.242       22.003       21.273       16.834      484.149      452.535      283.386        0.267        0.061       63.254       12.598        0.040      344.223       20.889      861.103
07/25/2014  01:46:00      -38.930       31.810       -9.330       39.623       33.395       17.007     1569.946     1115.195      289.223        0.279        0.149       50.273       14.916        0.088      344.444       21.268      861.122
07/25/2014  01:47:00      -21.833      -24.153        1.348       20.133       23.209       16.005      405.328      538.666      256.148        0.113        0.060       32.558       13.072        0.161      344.145       20.756      861.128
07/25/2014  01:48:00      -29.082      -20.401       -6.876       21.448       14.195       10.603      460.009      201.512      112.420        0.104        0.039       35.524       10.201        0.082      344.200       20.850      861.129
07/25/2014  01:49:00       10.960      -15.404        9.499       17.931       27.756       13.497      321.524      770.422      182.176        0.086        0.064       18.905       13.776        0.531      344.229       20.900      861.123
07/25/2014  01:50:00      -17.560       19.244        7.738       23.950       18.662       17.144      573.602      348.253      293.904        0.098        0.061       26.051       18.089        0.482      343.992       20.495      861.136
07/25/2014  01:51:00      -56.192       16.897       -3.602       43.691       53.652       23.836     1908.918     2878.583      568.164        0.440        0.268       58.677       22.468        0.147      344.239       20.916      861.138
07/25/2014  01:52:00       10.582      -33.893        7.438       13.852       27.607        8.797      191.887      762.131       77.396        0.117        0.052       35.507        5.077        0.020      344.041       20.580      861.140
07/25/2014  01:53:00       -1.730       19.788       -9.676       12.370       11.421       12.017      153.009      130.429      144.401        0.046        0.021       19.863        3.267        0.027      344.071       20.629      861.145
07/25/2014  01:54:00        7.182        3.184       -4.544        9.079       11.435        6.722       82.433      130.749       45.182        0.017        0.013        7.856        4.850        0.381      344.068       20.626      861.146
07/25/2014  01:55:00       20.031       13.875        2.288       13.076       14.408        9.478      170.969      207.604       89.839        0.053        0.023       24.367        7.157        0.086      344.165       20.791      861.137
07/25/2014  01:56:00       14.609      -55.608       -1.374       30.536       43.147       21.721      932.419     1861.622      471.811        0.329        0.163       57.495       23.540        0.168      343.882       20.307      861.108
07/25/2014  01:57:00      -40.236      -44.519      -15.404       30.736       30.150       14.313      944.701      909.033      204.851        0.295        0.103       60.008        8.820        0.022      343.710       20.014      861.089
07/25/2014  01:58:00      -50.901       -5.235       -6.420       19.954       13.305       11.640      398.149      177.030      135.483        0.168        0.036       51.170       10.309        0.041      343.471       19.607      861.080
07/25/2014  01:59:00      -64.414      -17.741      -13.540       24.634       16.157        7.570      606.856      261.041       57.301        0.279        0.046       66.813        7.104        0.011      343.515       19.682      861.080
07/25/2014  02:00:00        2.613      -28.159       -3.030        9.536        5.632        8.220       90.926       31.716       67.572        0.050        0.010       28.280        1.969        0.005      344.106       20.689      861.080
07/25/2014  02:01:00      -26.854      -33.445       -1.569       17.025       17.626       12.707      289.840      310.677      161.461        0.130        0.038       42.892        7.169        0.028      343.734       20.054      861.081
07/25/2014  02:02:00      -55.588      -11.571       -4.965       27.788       13.734       12.075      772.152      188.630      145.809        0.218        0.055       56.779       11.628        0.042      343.641       19.895      861.080
07/25/2014  02:03:00       12.897       -3.225       11.088       17.854       24.307       12.188      318.766      590.836      148.553        0.068        0.053       13.294       13.101        0.971      343.514       19.679      861.075
07/25/2014  02:04:00       -9.459      -30.444        9.632       19.304       55.923       29.846      372.655     3127.400      890.805        0.275        0.220       31.880       38.007        1.421      343.499       19.655      861.076
07/25/2014  02:05:00      -74.139      -44.351       -6.466       44.398       29.337       24.020     1971.196      860.656      576.964        0.546        0.170       86.393       14.817        0.029      343.601       19.827      861.082
07/25/2014  02:06:00      -80.848      -29.221       -0.984       36.521       27.549       19.216     1333.803      758.944      369.260        0.493        0.123       85.966       17.349        0.041      343.461       19.589      861.108
07/25/2014  02:07:00      -32.808      -27.729       -0.195       35.024       22.732       14.376     1226.707      516.757      206.659        0.190        0.098       42.957       13.266        0.095      343.418       19.514      861.123
07/25/2014  02:08:00       13.040      -17.631        1.890       31.218       41.311       23.800      974.592     1706.621      566.454        0.187        0.162       21.929       21.523        0.963      343.448       19.567      861.112
07/25/2014  02:09:00        6.084       -8.416       16.484       19.737       21.949       17.731      389.550      481.739      314.385        0.078        0.059       10.385       13.202        1.616      343.325       19.359      861.127
07/25/2014  02:10:00      -17.532      -20.476       -6.187       16.311       24.069       13.942      266.037      579.310      194.385        0.090        0.052       26.956       10.146        0.142      343.557       19.754      861.141
07/25/2014  02:11:00      -17.589        2.140       -4.966       12.015       17.399        9.873      144.361      302.728       97.474        0.044        0.027       17.719        7.104        0.161      343.454       19.577      861.154
07/25/2014  02:12:00       -5.132       31.414       -3.518       10.529       12.591       11.402      110.864      158.542      129.996        0.071        0.020       31.830        8.945        0.079      343.317       19.341      861.170
07/25/2014  02:13:00        0.649        3.649      -10.346        8.882       15.399        6.210       78.890      237.144       38.566        0.024        0.018        3.706        6.138        2.743      343.291       19.299      861.179
07/25/2014  02:14:00        0.537      -45.739      -10.781       19.446       21.484       15.917      378.140      461.565      253.362        0.165        0.055       45.743       13.228        0.084      343.403       19.490      861.161
07/25/2014  02:15:00       13.604      -43.590      -15.561       22.943       28.498       21.068      526.391      812.155      443.881        0.205        0.089       45.664       19.802        0.188      343.407       19.496      861.148
07/25/2014  02:16:00      -17.637       -5.740        8.000       18.296       13.790       12.694      334.742      190.177      161.144        0.055        0.034       18.547        9.370        0.255      343.309       19.329      861.154
07/25/2014  02:17:00      -84.213      -27.313        3.997       36.263       40.645       18.136     1315.014     1652.018      328.917        0.557        0.165       88.531       15.671        0.031      343.340       19.382      861.167
07/25/2014  02:18:00     -107.985      -40.186       -1.675       39.865       23.876       16.923     1589.253      570.060      286.393        0.786        0.122      115.220       15.333        0.018      343.118       19.005      861.161
07/25/2014  02:19:00     -107.297      -49.558       -4.580       23.142       23.663       11.730      535.544      559.918      137.603        0.761        0.062      118.189        8.670        0.005      343.123       19.014      861.166
07/25/2014  02:20:00     -108.863      -25.682       -7.741       27.363       27.756       16.006      748.760      770.397      256.188        0.717        0.089      111.851       12.713        0.013      343.060       18.905      861.170
07/25/2014  02:21:00     -124.614      -64.291       -7.559       25.573       29.563       16.367      653.990      873.958      267.880        1.076        0.090      140.221       13.141        0.009      343.037       18.865      861.175
07/25/2014  02:22:00     -112.607      -66.180       -3.687       44.918       25.318       18.873     2017.634      641.012      356.198        1.004        0.151      130.615       22.913        0.031      342.953       18.724      861.187
07/25/2014  02:23:00     -116.226      -46.701       -5.315       28.916       28.785       17.897      836.127      828.589      320.290        0.885        0.099      125.257       14.383        0.013      342.948       18.715      861.208
07/25/2014  02:24:00     -102.265      -21.787       -0.996       31.031       25.485       19.129      962.949      649.474      365.937        0.646        0.099      104.560       18.279        0.031      342.848       18.545      861.212
07/25/2014  02:25:00     -129.304      -45.242       -2.024       27.059       22.446       16.617      732.175      503.827      276.116        1.014        0.076      136.991       15.636        0.013      342.872       18.587      861.201
07/25/2014  02:26:00     -113.322      -27.079       -6.754       22.698       17.803       14.809      515.203      316.943      219.304        0.734        0.053      116.512       13.627        0.014      342.916       18.661      861.200
07/25/2014  02:27:00     -113.483      -33.952       -4.939       37.326       22.429       17.791     1393.218      503.039      316.528        0.813        0.111      118.453       20.097        0.029      342.874       18.588      861.194
07/25/2014  02:28:00     -131.253      -38.330      -13.131       42.597       23.358       17.827     1814.466      545.600      317.807        1.077        0.134      136.735       17.065        0.016      342.810       18.480      861.192
07/25/2014  02:29:00     -121.526      -48.470        5.210       38.161       37.058       23.701     1456.226     1373.261      561.744        1.027        0.170      130.835       18.190        0.019      342.807       18.476      861.173
07/25/2014  02:30:00     -140.804      -53.638       -1.205       48.840       41.687       26.054     2385.350     1737.817      678.813        1.375        0.240      150.675       23.265        0.024      342.890       18.616      861.152
07/25/2014  02:31:00     -120.158      -48.855        2.212       39.708       36.325       23.673     1576.691     1319.485      560.405        1.014        0.173      129.710       21.878        0.028      342.885       18.606      861.153
07/25/2014  02:32:00      -76.217      -45.614        2.509       37.279       30.577       21.786     1389.742      934.942      474.616        0.535        0.140       88.824       20.180        0.052      342.848       18.544      861.173
07/25/2014  02:33:00      -90.170      -35.262        0.571       41.498       23.269       19.481     1722.117      541.463      379.523        0.601        0.132       96.820       18.856        0.038      342.843       18.537      861.197
07/25/2014  02:34:00      -21.356      -48.607        8.165       22.408       20.793       19.438      502.134      432.338      377.839        0.210        0.066       53.091       12.179        0.053      343.000       18.802      861.211
07/25/2014  02:35:00      -39.614        7.541       -2.679       24.094       19.849       17.673      580.503      393.989      312.323        0.146        0.064       40.325       13.036        0.104      342.881       18.601      861.227
07/25/2014  02:36:00      -62.805       29.330        1.459       24.721       14.551       12.697      611.125      211.718      161.216        0.290        0.049       69.316        9.904        0.020      342.728       18.340      861.240
07/25/2014  02:37:00      -87.891      -32.764       -5.412       32.499       22.302       15.398     1056.209      497.373      237.096        0.531        0.090       93.800       16.750        0.032      342.893       18.622      861.238
07/25/2014  02:38:00      -37.853      -35.346        3.006       46.517       27.111       18.637     2163.837      735.027      347.338        0.297        0.162       51.790       17.984        0.121      342.831       18.515      861.221
07/25/2014  02:39:00     -145.409      -33.448      -10.063       23.505       22.329       13.590      552.494      498.571      184.692        1.180        0.062      149.207       11.000        0.005      342.813       18.484      861.216
07/25/2014  02:40:00     -166.143      -56.840       -8.947       28.762       29.495       19.679      827.252      869.965      387.269        1.650        0.104      175.597       18.578        0.011      342.589       18.104      861.221
07/25/2014  02:41:00     -146.044      -10.316       -2.855       64.568       44.337       31.052     4168.995     1965.764      964.240        1.427        0.355      146.408       34.643        0.056      342.359       17.713      861.223
07/25/2014  02:42:00     -180.078       21.315      -26.658       48.670       44.646       23.305     2368.759     1993.245      543.129        1.925        0.245      181.335       12.502        0.005      342.470       17.902      861.219
07/25/2014  02:43:00     -136.392      -32.631       -0.853       66.989       61.962       36.156     4487.564     3839.302     1307.242        1.465        0.482      140.241       37.887        0.073      342.536       18.014      861.203
07/25/2014  02:44:00     -159.191       -8.974       -5.384       49.384       41.868       25.618     2438.741     1752.909      656.307        1.515        0.242      159.444       24.952        0.024      342.447       17.862      861.202
07/25/2014  02:45:00     -138.458      -14.360       -3.257       51.680       43.795       24.741     2670.850     1918.034      612.117        1.229        0.260      139.201       23.739        0.029      342.449       17.866      861.201
07/25/2014  02:46:00     -185.508       12.820      -13.640       59.942       43.631       27.320     3593.002     1903.631      746.401        2.050        0.312      185.950       26.042        0.020      342.618       18.153      861.204
07/25/2014  02:47:00     -135.976      -19.988       -6.250       52.564       39.403       26.613     2762.976     1552.630      708.276        1.198        0.251      137.438       22.826        0.028      342.669       18.239      861.196
07/25/2014  02:48:00     -113.793       11.633      -11.854       33.498       37.108       22.572     1122.134     1376.984      509.515        0.812        0.150      114.386       16.683        0.021      342.643       18.198      861.193
07/25/2014  02:49:00     -100.726        5.497       -2.816       40.380       22.933       17.493     1630.511      525.938      306.013        0.632        0.123      100.876       18.539        0.034      342.726       18.338      861.164
07/25/2014  02:50:00     -124.067       -9.988      -11.356       38.803       28.401       19.826     1505.710      806.645      393.079        0.916        0.135      124.469       22.844        0.034      342.702       18.295      861.142
07/25/2014  02:51:00     -138.463      -10.117      -10.691       37.231       24.399       20.856     1386.129      595.321      434.959        1.090        0.121      138.832       16.858        0.015      342.743       18.365      861.120
07/25/2014  02:52:00     -157.663      -21.686      -22.214       24.304       28.820       14.900      590.677      830.597      222.013        1.373        0.082      159.147        8.008        0.003      342.822       18.501      861.088
07/25/2014  02:53:00     -141.927      -25.806      -14.355       33.974       22.258       17.184     1154.248      495.410      295.283        1.148        0.097      144.254       17.147        0.014      342.893       18.622      861.062
07/25/2014  02:54:00      -90.738      -18.934      -12.042       27.434       22.514       14.414      752.605      506.888      207.771        0.510        0.073       92.692       10.728        0.013      342.863       18.571      861.062
07/25/2014  02:55:00     -100.118      -22.626       -8.873       38.483       29.662       18.574     1480.921      879.821      345.000        0.666        0.135      102.642       17.588        0.029      342.952       18.723      861.064
07/25/2014  02:56:00     -109.647       -1.768       -9.440       23.325       28.759       18.716      544.077      827.082      350.295        0.692        0.086      109.661       13.711        0.016      342.997       18.799      861.082
07/25/2014  02:57:00      -65.183       25.458       -6.444       39.100       25.830       26.382     1528.814      667.204      695.988        0.391        0.145       69.978       19.661        0.079      343.013       18.826      861.114
07/25/2014  02:58:00      -24.503       34.393        5.497       36.496       42.486       21.672     1331.973     1805.046      469.655        0.271        0.180       42.229       21.597        0.262      342.875       18.591      861.123
07/25/2014  02:59:00      -34.966       72.124       -7.836       35.963       39.757       23.551     1293.347     1580.653      554.642        0.496        0.171       80.153       22.773        0.081      342.871       18.584      861.140
07/25/2014  03:00:00      -97.685        7.139       -5.985       36.920       35.906       21.220     1363.102     1289.210      450.275        0.637        0.155       97.945       19.410        0.039      342.879       18.597      861.140
07/25/2014  03:01:00     -131.664        1.484      -14.867       31.323       35.546       21.153      981.103     1263.507      447.453        1.012        0.135      131.672       12.376        0.009      342.917       18.664      861.130
07/25/2014  03:02:00     -137.831      -74.783      -12.643       48.845       46.189       27.902     2385.823     2133.379      778.525        1.502        0.265      156.812       25.770        0.027      342.860       18.565      861.127
07/25/2014  03:03:00     -140.843      -78.413      -14.275       35.880       39.795       25.435     1287.363     1583.641      646.922        1.485        0.176      161.200       19.086        0.014      342.776       18.420      861.140
07/25/2014  03:04:00     -142.998      -31.811       -2.701       41.454       36.097       25.796     1718.422     1303.024      665.409        1.258        0.184      146.493       21.373        0.021      342.754       18.385      861.144
07/25/2014  03:05:00     -164.733      -45.079      -20.333       35.052       45.569       26.052     1228.637     2076.579      678.694        1.678        0.199      170.790       19.627        0.013      342.785       18.438      861.144
07/25/2014  03:06:00     -155.252        4.061      -10.547       44.725       61.698       30.805     2000.305     3806.660      948.936        1.549        0.338      155.305       26.654        0.029      342.869       18.581      861.149
07/25/2014  03:07:00     -193.244      -13.102      -26.094       71.907       47.310       34.642     5170.651     2238.252     1200.071        2.340        0.430      193.687       35.966        0.034      342.842       18.532      861.156
07/25/2014  03:08:00     -169.276      -31.023       -9.236       66.940       39.266       34.915     4480.965     1541.787     1219.091        1.847        0.362      172.095       34.454        0.040      342.939       18.698      861.152
07/25/2014  03:09:00     -168.376      -16.824      -26.849       39.607       41.276       24.357     1568.695     1703.742      593.285        1.661        0.193      169.215       12.310        0.005      342.978       18.766      861.139
07/25/2014  03:10:00     -125.415      -27.977      -11.069       46.231       41.712       24.110     2137.347     1739.871      581.290        1.055        0.223      128.498       19.364        0.023      342.830       18.515      861.128
07/25/2014  03:11:00     -151.079      -50.858      -11.751       30.559       29.747       20.455      933.877      884.890      418.414        1.389        0.112      159.409       15.692        0.010      342.854       18.556      861.128
07/25/2014  03:12:00     -150.800      -49.954       -8.575       50.381       42.287       30.920     2538.263     1788.190      956.070        1.529        0.264      158.858       31.818        0.040      342.900       18.633      861.121
07/25/2014  03:13:00     -183.475      -46.198      -12.165       61.230       34.724       23.830     3749.086     1205.789      567.884        2.073        0.276      189.202       25.323        0.018      342.827       18.508      861.113
07/25/2014  03:14:00     -142.425      -33.319       -9.676       40.938       55.938       30.958     1675.889     3129.007      958.395        1.362        0.288      146.270       21.182        0.021      342.883       18.605      861.125
07/25/2014  03:15:00     -142.022      -64.254      -18.974       34.488       47.191       24.319     1189.428     2227.020      591.418        1.433        0.200      155.881       19.393        0.015      342.944       18.708      861.122
07/25/2014  03:16:00     -112.729      -75.412       -1.717       46.702       37.499       28.764     2181.044     1406.188      827.385        1.141        0.221      135.627       24.458        0.033      342.930       18.683      861.113
07/25/2014  03:17:00     -157.116      -47.821      -14.777       46.374       39.664       20.555     2150.559     1573.210      422.507        1.567        0.207      164.232       20.737        0.016      342.885       18.607      861.116
07/25/2014  03:18:00     -126.289      -77.899      -10.707       40.701       35.925       22.926     1656.541     1290.615      525.604        1.280        0.174      148.382       17.504        0.014      342.872       18.586      861.114
07/25/2014  03:19:00     -121.090      -78.994       -3.409       50.734       42.465       27.867     2573.931     1803.242      776.560        1.303        0.258      144.578       22.257        0.024      342.910       18.651      861.105
07/25/2014  03:20:00      -97.592      -81.961       -0.509       51.303       48.749       29.418     2631.967     2376.494      865.442        1.106        0.294      127.444       23.736        0.035      342.849       18.545      861.101
07/25/2014  03:21:00      -88.941      -71.366        0.237       44.416       41.488       24.476     1972.813     1721.279      599.082        0.865        0.215      114.033       25.285        0.049      342.774       18.419      861.106
07/25/2014  03:22:00     -122.778      -96.266       -4.204       48.327       49.151       35.621     2335.525     2415.782     1268.863        1.519        0.301      156.018       32.040        0.042      342.713       18.314      861.100
07/25/2014  03:23:00     -137.536      -89.296       -1.444       55.064       32.399       24.586     3032.003     1049.670      604.478        1.579        0.234      163.981       23.017        0.020      342.721       18.327      861.088
07/25/2014  03:24:00     -132.162      -70.834        2.575       43.551       42.990       23.578     1896.661     1848.151      555.923        1.339        0.215      149.947       24.824        0.027      342.682       18.262      861.077
07/25/2014  03:25:00     -123.079      -52.342       -8.656       38.765       38.834       21.403     1502.723     1508.070      458.089        1.072        0.173      133.746       14.821        0.012      342.689       18.274      861.061
07/25/2014  03:26:00     -127.267      -42.606       -2.450       31.365       30.291       20.672      983.765      917.531      427.311        1.017        0.116      134.209       12.571        0.009      342.669       18.239      861.049
07/25/2014  03:27:00     -156.494      -73.504       -6.076       41.073       36.454       20.696     1686.984     1328.884      428.329        1.669        0.172      172.896       16.794        0.009      342.713       18.316      861.035
07/25/2014  03:28:00     -148.819      -58.886      -12.361       27.907       37.153       17.209      778.811     1380.320      296.163        1.411        0.123      160.046       13.537        0.007      342.749       18.376      861.032
07/25/2014  03:29:00      -87.081      -52.769       -2.257       43.786       30.100       21.960     1917.214      906.012      482.225        0.684        0.165      101.822       18.428        0.033      342.738       18.359      861.040
07/25/2014  03:30:00      -53.279      -41.199        4.363       42.593       35.104       19.737     1814.196     1232.318      389.561        0.399        0.172       67.350       13.727        0.042      342.763       18.400      861.050
07/25/2014  03:31:00      -40.423      -31.235        4.178       35.123       16.872       18.383     1233.658      284.668      337.931        0.224        0.093       51.085       16.369        0.103      342.787       18.440      861.063
07/25/2014  03:32:00      -19.492      -37.604       15.410       37.235       23.659       19.730     1386.416      559.742      389.277        0.218        0.117       42.355       22.229        0.275      342.849       18.545      861.068
07/25/2014  03:33:00      -18.149      -38.379        5.140       20.063       24.074       16.189      402.526      579.535      262.099        0.154        0.062       42.454        9.279        0.048      342.903       18.639      861.092
07/25/2014  03:34:00        4.959        3.437       10.776        8.224        5.384       10.615       67.640       28.982      112.673        0.018        0.010        6.034        4.724        0.613      342.601       18.124      861.117
07/25/2014  03:35:00       28.655       22.618        2.008       11.914       10.642       15.718      141.944      113.247      247.059        0.092        0.025       36.506       10.726        0.086      342.666       18.237      861.138
07/25/2014  03:36:00       41.681       29.876       -2.095       16.040       13.606       16.377      257.293      185.116      268.201        0.167        0.036       51.282        9.384        0.033      342.531       18.005      861.157
07/25/2014  03:37:00       43.838       32.718        1.357        9.862        9.703        9.336       97.262       94.143       87.164        0.164        0.014       54.701        4.745        0.008      342.480       17.921      861.165
07/25/2014  03:38:00       20.370        0.543       -6.235       18.752        9.566        9.459      351.626       91.516       89.470        0.049        0.027       20.377        4.989        0.060      342.642       18.195      861.180
07/25/2014  03:39:00      -18.405       -3.386       -4.804       13.836       11.047        9.721      191.429      122.043       94.496        0.039        0.020       18.714        8.411        0.202      342.794       18.452      861.169
07/25/2014  03:40:00      -53.052      -24.469      -10.381       16.417       15.941        7.357      269.532      254.114       54.124        0.205        0.029       58.423        4.996        0.007      342.815       18.488      861.154
07/25/2014  03:41:00      -87.085      -39.642       -9.107       18.583       13.443       11.687      345.340      180.707      136.580        0.495        0.033       95.683        5.897        0.004      342.558       18.052      861.140
07/25/2014  03:42:00      -54.247      -32.800        5.080       33.176       20.599       14.426     1100.632      424.335      208.106        0.289        0.087       63.393       14.521        0.052      342.465       17.895      861.132
07/25/2014  03:43:00      -17.362      -16.472        3.293       25.936       18.766       15.980      672.690      352.163      255.373        0.093        0.064       23.933       15.043        0.395      342.416       17.810      861.126
07/25/2014  03:44:00      -31.217      -33.261        2.266       30.930       17.809       15.939      956.663      317.151      254.044        0.181        0.076       45.616       15.154        0.110      342.403       17.787      861.129
07/25/2014  03:45:00       -5.436      -17.296        0.600       16.775       10.658       10.682      281.389      113.602      114.108        0.042        0.025       18.130       10.048        0.307      342.471       17.906      861.131
07/25/2014  03:46:00       -2.131      -30.672        4.180       17.745       18.971        9.991      314.882      359.895       99.826        0.087        0.039       30.746        7.176        0.054      342.560       18.055      861.134
07/25/2014  03:47:00      -14.300      -30.642        6.427       22.602       18.434       10.990      510.872      339.817      120.787        0.108        0.049       33.815       11.400        0.114      342.600       18.124      861.127
07/25/2014  03:48:00       -9.589      -26.861        0.677       16.250       21.396        9.343      264.073      457.771       87.300        0.081        0.040       28.522        9.334        0.107      342.678       18.255      861.129
07/25/2014  03:49:00      -12.308      -22.162        2.491       18.988       13.155        6.196      360.537      173.066       38.385        0.061        0.029       25.351        3.580        0.020      342.615       18.149      861.137
07/25/2014  03:50:00      -55.570      -44.001       -5.346       19.981       15.950        8.967      399.249      254.414       80.412        0.289        0.037       70.881        6.629        0.009      342.738       18.358      861.146
07/25/2014  03:51:00      -52.207      -45.837       -4.148       16.490       21.461       12.252      271.906      460.567      150.111        0.286        0.044       69.474        9.075        0.017      342.621       18.159      861.150
07/25/2014  03:52:00      -21.873      -23.368        3.366       26.322       14.694       12.495      692.836      215.910      156.137        0.105        0.053       32.007        8.058        0.063      342.528       18.002      861.155
07/25/2014  03:53:00      -18.468      -25.131        4.219       20.734       17.740       13.864      429.880      314.698      192.198        0.096        0.047       31.187       11.087        0.126      342.569       18.072      861.164
07/25/2014  03:54:00      -19.927      -40.186       -3.502       31.685       20.263       21.940     1003.916      410.591      481.362        0.196        0.095       44.856       20.534        0.210      342.633       18.176      861.177
07/25/2014  03:55:00      -22.173      -28.773        5.422       15.099       18.373       10.654      227.994      337.566      113.501        0.101        0.034       36.325        6.395        0.031      342.543       18.026      861.184
07/25/2014  03:56:00       -0.230      -15.069        7.508       14.319       14.403       10.861      205.026      207.434      117.966        0.041        0.027       15.071        5.470        0.132      342.433       17.839      861.194
07/25/2014  03:57:00       -5.937       -6.766        9.715       27.236       12.518       14.669      741.795      156.688      215.178        0.064        0.056        9.002       13.206        2.152      342.387       17.758      861.199
07/25/2014  03:58:00       15.702       10.143        4.093       15.875        9.264       20.757      252.013       85.821      430.852        0.057        0.038       18.693       13.470        0.519      342.343       17.687      861.212
07/25/2014  03:59:00        6.500       15.586        4.493        7.242       13.249       11.062       52.442      175.537      122.370        0.033        0.018       16.887        8.369        0.246      342.336       17.674      861.229
07/25/2014  04:00:00      -46.446       -5.253       -4.875       16.063        8.676        8.762      258.023       75.270       76.773        0.131        0.021       46.742        8.207        0.031      342.431       17.836      861.242
07/25/2014  04:01:00      -35.147      -17.907        1.706       33.540       18.502       11.364     1124.910      342.337      129.150        0.158        0.080       39.445        7.402        0.035      342.397       17.778      861.239
07/25/2014  04:02:00       24.192      -14.681       -2.808       19.015       37.340        9.950      361.566     1394.251       98.997        0.133        0.093       28.298       13.261        0.220      342.401       17.784      861.248
07/25/2014  04:03:00       32.037       20.418        6.035       19.992       16.174       13.481      399.695      261.595      181.748        0.116        0.042       37.990        8.674        0.052      342.180       17.409      861.252
07/25/2014  04:04:00       52.103       34.295       11.209       20.567       15.702       13.571      422.996      246.537      184.165        0.243        0.043       62.377        5.840        0.009      341.986       17.079      861.260
07/25/2014  04:05:00       34.494       17.010        4.134       21.640       13.379       13.245      468.302      178.992      175.417        0.116        0.041       38.460        6.413        0.028      341.836       16.823      861.272
07/25/2014  04:06:00       -2.736       14.599        2.193       24.933        9.354        7.986      621.665       87.499       63.782        0.050        0.039       14.853        4.942        0.111      342.059       17.203      861.275
07/25/2014  04:07:00      -38.937      -12.255       -4.308        8.579       11.261        7.542       73.604      126.819       56.887        0.097        0.013       40.820        5.452        0.018      342.379       17.745      861.256
07/25/2014  04:08:00        0.078      -34.333       -3.730       16.442       14.113       13.006      270.337      199.178      169.150        0.092        0.032       34.333        5.601        0.027      342.327       17.658      861.235
07/25/2014  04:09:00        0.858      -25.886       -6.075       13.664       21.032       10.464      186.694      442.351      109.492        0.072        0.037       25.900        6.037        0.054      342.323       17.650      861.228
07/25/2014  04:10:00       -7.282       -6.415        2.851        5.014        5.963        4.460       25.138       35.555       19.891        0.009        0.004        9.705        3.196        0.108      342.205       17.453      861.229
07/25/2014  04:11:00      -39.828      -26.451       -4.310       11.693       14.732        6.560      136.729      217.018       43.031        0.135        0.020       47.812        6.610        0.019      342.305       17.619      861.234
07/25/2014  04:12:00      -29.590      -28.034        1.758       27.073       14.845       10.309      732.941      220.389      106.272        0.136        0.053       40.761        6.709        0.027      342.146       17.351      861.233
07/25/2014  04:13:00      -43.404      -33.691        3.176       24.548       15.619       16.202      602.589      243.938      262.489        0.207        0.055       54.945       15.834        0.083      342.113       17.295      861.230
07/25/2014  04:14:00      -39.048      -35.508        5.613       32.439       22.981       19.853     1052.273      528.132      394.155        0.240        0.099       52.779       15.109        0.082      342.056       17.198      861.217
07/25/2014  04:15:00      -58.019      -47.599       10.481       52.439       31.788       26.010     2749.824     1010.483      676.534        0.509        0.222       75.046       24.836        0.110      342.108       17.287      861.213
07/25/2014  04:16:00      -98.195      -83.888        2.700       37.297       39.442       23.634     1391.051     1555.659      558.552        1.010        0.175      129.149       22.832        0.031      342.118       17.304      861.222
07/25/2014  04:17:00     -113.578      -71.731       -0.286       43.936       31.802       20.001     1930.400     1011.388      400.052        1.069        0.167      134.333       20.568        0.023      342.134       17.332      861.229
07/25/2014  04:18:00     -118.815      -51.659       -3.444       46.289       30.795       17.593     2142.716      948.308      309.503        1.010        0.170      129.559       17.360        0.018      342.050       17.189      861.229
07/25/2014  04:19:00      -70.751      -67.986       -1.815       35.744       26.721       20.898     1277.640      713.988      436.736        0.603        0.121       98.121       18.159        0.034      342.008       17.118      861.218
07/25/2014  04:20:00     -104.854      -41.834       -1.228       47.175       25.591       19.924     2225.503      654.916      396.965        0.801        0.164      112.891       22.894        0.041      342.013       17.126      861.197
07/25/2014  04:21:00      -68.685      -40.629        0.314       39.957       31.224       16.871     1596.546      974.923      284.630        0.461        0.143       79.802       16.155        0.041      342.041       17.174      861.193
07/25/2014  04:22:00      -92.942      -40.553       -5.432       22.669       19.450       13.826      513.882      378.290      191.155        0.570        0.054      101.404        3.886        0.001      342.006       17.115      861.193
07/25/2014  04:23:00      -80.265      -38.608       -1.355       29.490       26.145       17.161      869.652      683.542      294.501        0.489        0.092       89.067       14.562        0.027      341.991       17.088      861.185
07/25/2014  04:24:00      -63.385      -22.128        0.414       33.658       24.573       15.048     1132.866      603.834      226.435        0.323        0.098       67.136       14.160        0.044      341.929       16.982      861.188
07/25/2014  04:25:00      -74.236      -12.855       -2.179       30.580       22.455       16.320      935.159      504.212      266.346        0.369        0.085       75.340       17.600        0.055      341.810       16.780      861.201
07/25/2014  04:26:00      -86.856       -8.505        3.938       28.590       23.290       23.712      817.380      542.439      562.252        0.478        0.096       87.271       22.045        0.064      341.745       16.672      861.214
07/25/2014  04:27:00      -89.682      -32.818        0.077       34.265       36.213       19.053     1174.072     1311.380      363.035        0.598        0.142       95.498       20.047        0.044      341.706       16.606      861.216
07/25/2014  04:28:00     -104.627      -63.258        0.062       33.470       28.024       18.201     1120.257      785.325      331.265        0.859        0.112      122.264       14.743        0.015      341.796       16.758      861.217
07/25/2014  04:29:00     -122.817      -30.646        1.369       50.129       36.948       22.970     2512.924     1365.134      527.613        1.021        0.220      126.582       29.390        0.054      341.709       16.609      861.222
07/25/2014  04:30:00      -91.586      -29.278        1.027       40.668       42.786       20.943     1653.863     1830.670      438.614        0.658        0.196       96.152       21.104        0.048      341.640       16.493      861.221
07/25/2014  04:31:00      -89.188      -53.496       -3.861       47.393       52.250       24.392     2246.130     2730.076      594.968        0.820        0.279      104.001       22.251        0.046      341.610       16.444      861.214
07/25/2014  04:32:00     -100.107      -49.699        2.245       52.019       35.428       23.848     2705.983     1255.131      568.713        0.851        0.226      111.765       26.312        0.055      341.628       16.472      861.211
07/25/2014  04:33:00     -135.194      -62.975       -2.812       26.497       28.348       20.784      702.090      803.603      431.962        1.209        0.097      149.142       16.392        0.012      341.540       16.324      861.218
07/25/2014  04:34:00     -153.395      -58.506      -11.478       28.748       33.066       16.030      826.467     1093.380      256.964        1.463        0.109      164.174       12.938        0.006      341.548       16.335      861.218
07/25/2014  04:35:00     -133.035      -70.727        2.777       33.959       37.337       24.262     1153.209     1394.076      588.629        1.292        0.157      150.667       24.740        0.027      341.506       16.264      861.222
07/25/2014  04:36:00     -135.802      -21.098      -12.421       30.205       25.458       16.207      912.353      648.117      262.651        1.043        0.091      137.431       14.327        0.011      341.511       16.274      861.238
07/25/2014  04:37:00     -128.783      -43.290       -0.233       18.537       14.395       12.468      343.635      207.220      155.454        0.958        0.035      135.865        9.732        0.005      341.517       16.282      861.252
07/25/2014  04:38:00     -126.423      -50.310       -8.012       15.034       16.848       12.619      226.015      283.867      159.241        0.962        0.033      136.066        9.710        0.005      341.545       16.332      861.243
07/25/2014  04:39:00     -105.474      -54.470       -3.577       22.107       24.850       15.391      488.732      617.539      236.892        0.772        0.067      118.708       10.485        0.008      341.564       16.362      861.224
07/25/2014  04:40:00      -91.054      -51.488       -2.273       30.254       15.733       13.787      915.292      247.514      190.087        0.615        0.068      104.603       13.189        0.016      341.563       16.362      861.219
07/25/2014  04:41:00      -83.133      -41.631        0.682       29.403       21.532       16.423      864.512      463.641      269.717        0.512        0.080       92.974       12.727        0.019      341.634       16.483      861.219
07/25/2014  04:42:00     -108.100      -49.227       -6.901       15.516       14.889       12.671      240.731      221.669      160.560        0.739        0.031      118.781        6.805        0.003      341.610       16.441      861.218
07/25/2014  04:43:00     -122.828      -46.002       -6.295       23.062       20.635       16.375      531.841      425.806      268.128        0.923        0.061      131.160       10.670        0.007      341.575       16.382      861.224
07/25/2014  04:44:00     -106.528      -23.860       -7.052       30.138       21.821       16.593      908.307      476.151      275.329        0.681        0.083      109.167       16.745        0.024      341.496       16.249      861.236
07/25/2014  04:45:00      -95.305      -22.843       -3.037       28.324       18.208       15.767      802.224      331.534      248.584        0.550        0.069       98.005       13.888        0.020      341.440       16.154      861.234
07/25/2014  04:46:00      -85.446      -39.840       -3.201       31.370       22.045       15.421      984.093      485.996      237.794        0.530        0.085       94.278       16.239        0.030      341.500       16.254      861.233
07/25/2014  04:47:00      -97.383      -59.095       -0.926       36.254       21.972       20.939     1314.360      482.759      438.429        0.761        0.112      113.910       17.857        0.025      341.580       16.391      861.243
07/25/2014  04:48:00     -103.809      -58.165       -3.211       26.498       21.082       13.693      702.163      444.440      187.489        0.775        0.067      118.994        9.534        0.006      341.555       16.347      861.249
07/25/2014  04:49:00     -108.921      -61.253       -2.400       30.563       18.801       17.676      934.081      353.476      312.456        0.861        0.080      124.963       13.640        0.012      341.583       16.396      861.250
07/25/2014  04:50:00     -118.294      -25.674       -6.611       21.038       19.057       12.625      442.607      363.181      159.381        0.783        0.048      121.048        7.104        0.003      341.520       16.289      861.259
07/25/2014  04:51:00     -102.417      -41.245       -5.814       26.904       28.430       16.714      723.852      808.272      279.358        0.702        0.091      110.410       11.074        0.010      341.483       16.227      861.261
07/25/2014  04:52:00      -38.415      -38.382        4.954       49.711       30.308       20.542     2471.196      918.587      421.985        0.339        0.191       54.304       24.925        0.211      341.421       16.120      861.256
07/25/2014  04:53:00      -90.186      -74.863       -0.298       30.114       28.025       19.369      906.869      785.415      375.172        0.790        0.103      117.209       10.843        0.009      341.495       16.245      861.255
07/25/2014  04:54:00      -70.948      -65.418        7.115       39.299       39.920       25.777     1544.405     1593.637      664.432        0.658        0.190       96.504       23.326        0.058      341.427       16.131      861.257
07/25/2014  04:55:00     -129.849      -83.478       -3.451       36.833       19.272       17.646     1356.643      371.396      311.396        1.294        0.102      154.367       17.410        0.013      341.460       16.189      861.248
07/25/2014  04:56:00     -106.377      -58.403      -10.132       33.803       25.026       19.948     1142.676      626.288      397.912        0.850        0.108      121.355       11.221        0.009      341.449       16.167      861.240
07/25/2014  04:57:00     -103.754      -56.977       -2.775       34.792       26.056       18.901     1210.486      678.904      357.249        0.813        0.112      118.369       17.552        0.022      341.422       16.123      861.240
07/25/2014  04:58:00      -94.986      -63.285        1.125       29.499       28.814       22.296      870.197      830.250      497.117        0.761        0.110      114.137       19.136        0.028      341.451       16.172      861.251
07/25/2014  04:59:00      -93.612      -53.912        3.444       38.070       22.651       20.487     1449.342      513.055      419.733        0.703        0.119      108.027       17.378        0.026      341.496       16.248      861.250
07/25/2014  05:00:00     -104.183      -54.065       -0.957       29.599       25.899       20.021      876.120      670.778      400.857        0.786        0.097      117.376       16.706        0.020      341.490       16.238      861.260
07/25/2014  05:01:00     -105.246      -52.442       -3.372       31.288       25.614       14.485      978.965      656.097      209.813        0.784        0.092      117.588       13.098        0.012      341.525       16.298      861.278
07/25/2014  05:02:00     -113.000      -46.054       -6.961       34.344       24.547       16.581     1179.505      602.579      274.925        0.850        0.103      122.025       17.076        0.020      341.483       16.226      861.292
07/25/2014  05:03:00     -106.180      -51.959        1.921       28.075       24.606       16.179      788.221      605.475      261.757        0.782        0.083      118.212       14.046        0.014      341.444       16.161      861.303
07/25/2014  05:04:00      -86.864      -32.507        3.812       27.304       22.104       17.666      745.531      488.578      312.098        0.508        0.077       92.747       15.204        0.027      341.441       16.156      861.326
07/25/2014  05:05:00      -94.927      -37.018       -6.841       20.234       19.106       13.874      409.400      365.048      192.475        0.570        0.048      101.889       10.176        0.010      341.474       16.211      861.340
07/25/2014  05:06:00     -122.679      -32.844       -6.153       18.874       21.219       14.791      356.218      450.253      218.769        0.860        0.051      126.999       10.015        0.006      341.340       15.984      861.340
07/25/2014  05:07:00     -107.503      -45.683        2.461       26.835       26.194       15.490      720.121      686.105      239.952        0.765        0.082      116.807       12.934        0.012      341.287       15.896      861.337
07/25/2014  05:08:00      -94.068      -47.863        8.042       42.268       30.797       18.845     1786.587      948.444      355.121        0.715        0.155      105.544       20.955        0.039      341.407       16.098      861.345
07/25/2014  05:09:00      -68.199      -51.657        0.416       41.411       25.584       17.811     1714.879      654.532      317.241        0.500        0.134       85.554       16.850        0.039      341.419       16.118      861.358
07/25/2014  05:10:00      -85.678      -49.848        7.711       34.551       31.376       21.953     1193.760      984.455      481.924        0.627        0.133       99.124       17.785        0.032      341.392       16.072      861.365
07/25/2014  05:11:00      -96.044      -68.583       -1.118       43.636       26.670       18.805     1904.126      711.275      353.638        0.845        0.148      118.018       21.714        0.034      341.499       16.253      861.363
07/25/2014  05:12:00      -61.944      -51.344        5.623       47.757       33.800       22.613     2280.777     1142.414      511.336        0.522        0.197       80.457       18.750        0.054      341.448       16.167      861.365
07/25/2014  05:13:00      -95.986      -67.350       -1.248       51.016       35.207       22.825     2602.619     1239.507      520.994        0.906        0.218      117.257       25.444        0.047      341.454       16.176      861.380
07/25/2014  05:14:00     -118.556      -30.121      -10.918       23.446       20.149       14.132      549.696      405.975      199.716        0.812        0.058      122.323        9.236        0.006      341.356       16.012      861.392
07/25/2014  05:15:00     -109.107      -34.531       -1.029       37.305       24.114       17.121     1391.684      581.481      293.131        0.768        0.113      114.441       15.904        0.019      341.330       15.967      861.402
07/25/2014  05:16:00     -118.928      -40.836       -0.808       35.721       28.505       19.413     1275.993      812.527      376.871        0.914        0.123      125.743       19.506        0.024      341.325       15.959      861.411
07/25/2014  05:17:00     -155.922      -33.046       -6.650       36.254       23.043       20.035     1314.375      530.968      401.417        1.385        0.112      159.385       11.924        0.006      341.324       15.957      861.415
07/25/2014  05:18:00     -132.185      -45.695       -0.294       35.608       25.201       17.749     1267.902      635.097      315.014        1.089        0.111      139.860       19.929        0.020      341.291       15.901      861.424
07/25/2014  05:19:00     -118.687      -12.307       -2.374       40.950       31.057       20.766     1676.940      964.537      431.244        0.866        0.154      119.324       18.603        0.024      341.169       15.696      861.428
07/25/2014  05:20:00     -139.829       -6.929      -15.300       46.083       28.185       23.240     2123.679      794.392      540.081        1.165        0.173      140.000       19.969        0.020      341.103       15.583      861.428
07/25/2014  05:21:00     -170.018       11.202      -13.549       38.984       28.583       19.790     1519.774      816.984      391.631        1.597        0.136      170.387       19.748        0.013      341.218       15.778      861.421
07/25/2014  05:22:00     -171.389       13.061      -15.454       37.130       29.403       20.736     1378.617      864.557      430.001        1.623        0.134      171.886       17.051        0.010      341.205       15.756      861.411
07/25/2014  05:23:00     -145.849       -1.603      -11.880       49.002       38.034       29.722     2401.211     1446.557      883.387        1.307        0.237      145.858       25.669        0.031      341.169       15.694      861.406
07/25/2014  05:24:00     -153.246      -20.642      -15.369       44.720       37.025       30.450     1999.913     1370.851      927.206        1.422        0.215      154.630       28.362        0.034      341.100       15.578      861.406
07/25/2014  05:25:00     -125.043       -4.626       -9.897       55.044       43.546       25.334     3029.843     1896.221      641.823        1.066        0.278      125.129       21.363        0.029      341.056       15.504      861.401
07/25/2014  05:26:00     -115.114      -11.077       -3.388       59.687       39.462       26.603     3562.493     1557.229      707.729        0.961        0.291      115.646       27.663        0.057      341.056       15.505      861.392
07/25/2014  05:27:00     -132.915      -21.610      -10.440       40.580       32.720       22.655     1646.698     1070.573      513.248        1.074        0.162      134.660       21.457        0.025      341.119       15.612      861.390
07/25/2014  05:28:00     -104.978      -14.035        2.156       63.481       31.499       26.647     4029.889      992.158      710.077        0.848        0.287      105.912       31.144        0.086      341.043       15.483      861.410
07/25/2014  05:29:00     -180.903        8.019      -14.852       49.097       35.609       29.396     2410.532     1267.975      864.153        1.878        0.227      181.081       28.324        0.024      341.107       15.590      861.415
07/25/2014  05:30:00     -179.116       14.123      -10.552       31.451       28.835       17.266      989.148      831.486      298.117        1.726        0.106      179.672       15.556        0.007      341.116       15.605      861.415
07/25/2014  05:31:00     -176.242      -16.099      -16.940       29.356       31.676       20.636      861.780     1003.376      425.858        1.695        0.115      176.976       15.090        0.007      341.128       15.625      861.411
07/25/2014  05:32:00     -179.788      -10.480      -17.892       54.548       27.890       24.528     2975.485      777.852      601.643        1.855        0.218      180.093       30.405        0.029      341.078       15.540      861.410
07/25/2014  05:33:00     -180.963        6.192      -19.830       28.346       34.454       22.806      803.504     1187.104      520.127        1.784        0.126      181.069       16.410        0.008      341.042       15.479      861.411
07/25/2014  05:34:00     -150.483      -11.090      -16.022       34.560       31.213       18.528     1194.399      974.223      343.283        1.277        0.126      150.891       11.180        0.005      341.072       15.532      861.406
07/25/2014  05:35:00     -148.939      -30.499      -14.581       25.623       31.198       18.766      656.528      973.318      352.149        1.265        0.099      152.030       17.349        0.013      341.159       15.679      861.413
07/25/2014  05:36:00     -154.456      -52.071       -7.758       30.738       27.143       20.019      944.815      736.726      400.748        1.435        0.104      162.997       15.308        0.009      341.176       15.708      861.414
07/25/2014  05:37:00     -149.550      -39.971       -3.745       31.138       25.783       20.217      969.553      664.749      408.746        1.301        0.102      154.799       17.414        0.013      341.237       15.811      861.422
07/25/2014  05:38:00     -147.901      -31.258       -4.505       32.031       30.519       20.154     1025.999      931.400      406.180        1.262        0.118      151.168       16.269        0.012      341.309       15.932      861.446
07/25/2014  05:39:00      -87.477      -25.901        2.124       33.212       34.542       20.415     1103.056     1193.128      416.776        0.552        0.136       91.231       19.817        0.047      341.267       15.861      861.451
07/25/2014  05:40:00     -120.361      -22.179       -6.593       18.320       25.191       16.748      335.627      634.607      280.510        0.814        0.063      122.388        9.569        0.006      341.288       15.896      861.455
07/25/2014  05:41:00     -109.153      -43.195       -1.101       28.102       23.488       17.548      789.723      551.682      307.915        0.771        0.082      117.389       17.600        0.022      341.356       16.011      861.472
07/25/2014  05:42:00     -125.315      -41.417       -6.335       22.319       22.808       11.596      498.138      520.218      134.467        0.931        0.058      131.982       10.546        0.006      341.380       16.053      861.480
07/25/2014  05:43:00     -108.695      -46.545       -3.995       28.923       22.299       17.815      836.512      497.253      317.376        0.782        0.083      118.241       13.368        0.013      341.414       16.110      861.482
07/25/2014  05:44:00     -122.971      -57.119       -3.148       54.693       24.628       21.243     2991.351      606.555      451.251        1.122        0.202      135.589       24.541        0.033      341.451       16.172      861.487
07/25/2014  05:45:00     -116.031      -49.559       -7.843       30.108       28.754       18.790      906.485      826.809      353.049        0.903        0.104      126.172        8.865        0.005      341.349       16.002      861.500
07/25/2014  05:46:00      -47.575      -51.659        2.559       41.756       35.455       26.103     1743.533     1257.027      681.351        0.431        0.184       70.229       24.065        0.117      341.208       15.760      861.501
07/25/2014  05:47:00      -88.475      -72.006       -2.618       31.568       27.815       16.238      996.568      773.651      263.681        0.753        0.102      114.073       16.510        0.021      341.214       15.771      861.504
07/25/2014  05:48:00      -73.485      -58.872        0.286       42.638       35.082       19.964     1818.026     1230.767      398.580        0.616        0.172       94.160       13.391        0.020      341.163       15.686      861.512
07/25/2014  05:49:00      -70.509      -64.362        5.732       46.583       36.777       21.968     2170.017     1352.530      482.577        0.658        0.200       95.467       25.513        0.071      341.116       15.605      861.522
07/25/2014  05:50:00      -63.234      -58.359        7.182       42.994       36.526       27.451     1848.523     1334.157      753.539        0.570        0.197       86.048       25.827        0.090      341.109       15.595      861.520
07/25/2014  05:51:00      -70.698      -63.214        7.199       42.260       35.501       24.947     1785.895     1260.350      622.348        0.636        0.183       94.838       24.728        0.068      341.111       15.596      861.513
07/25/2014  05:52:00      -91.628      -77.793        2.609       34.687       28.560       21.566     1203.220      815.670      465.114        0.847        0.124      120.198       18.827        0.025      341.170       15.697      861.508
07/25/2014  05:53:00      -79.954      -63.802        2.071       44.771       31.175       26.191     2004.487      971.883      685.965        0.706        0.183      102.290       27.017        0.070      341.151       15.667      861.509
07/25/2014  05:54:00      -97.071      -71.492        4.129       43.967       31.439       21.860     1933.094      988.410      477.861        0.897        0.170      120.556       25.062        0.043      341.168       15.693      861.518
07/25/2014  05:55:00     -119.368      -80.472        2.365       35.114       31.532       17.757     1233.000      994.238      315.302        1.164        0.127      143.960       10.481        0.005      341.151       15.666      861.531
07/25/2014  05:56:00      -87.013      -70.269        1.749       37.896       31.552       19.127     1436.118      995.558      365.826        0.765        0.140      111.843       10.903        0.010      341.135       15.638      861.536
07/25/2014  05:57:00      -76.536      -75.313       -2.930       48.701       35.376       27.316     2371.805     1251.439      746.145        0.795        0.218      107.377       22.243        0.043      341.134       15.634      861.547
07/25/2014  05:58:00     -115.006      -91.890       -2.431       45.222       36.113       26.005     2045.054     1304.171      676.286        1.285        0.201      147.208       25.280        0.029      341.155       15.671      861.560
07/25/2014  05:59:00     -118.409      -82.371       -2.299       55.701       31.517       20.404     3102.572      993.326      416.334        1.266        0.226      144.242       23.938        0.028      341.154       15.669      861.574
07/25/2014  06:00:00      -90.339      -73.095        3.752       41.779       31.957       25.502     1745.501     1021.246      650.338        0.847        0.171      116.207       22.179        0.036      341.160       15.681      861.586
07/25/2014  06:01:00      -62.859      -76.607        8.077       49.074       39.610       26.797     2408.260     1568.939      718.100        0.729        0.235       99.096       30.315        0.094      341.188       15.727      861.587
07/25/2014  06:02:00      -73.092      -64.771       -4.796       38.904       33.231       22.438     1513.500     1104.307      503.457        0.634        0.156       97.661       20.914        0.046      341.180       15.715      861.593
07/25/2014  06:03:00      -56.671      -79.582       -2.148       43.904       46.692       20.032     1927.546     2180.123      401.264        0.703        0.225       97.698       23.958        0.060      341.180       15.716      861.604
07/25/2014  06:04:00     -103.815      -34.558        3.715       37.268       27.089       24.541     1388.896      733.817      602.283        0.735        0.136      109.415       21.672        0.039      341.175       15.705      861.616
07/25/2014  06:05:00      -50.652      -53.375        6.250       38.917       29.187       21.747     1514.546      851.875      472.911        0.415        0.142       73.584       21.138        0.083      341.163       15.685      861.617
07/25/2014  06:06:00      -60.561      -59.982        2.909       34.449       21.424       15.989     1186.725      459.001      255.646        0.459        0.095       85.238       10.409        0.015      341.182       15.718      861.623
07/25/2014  06:07:00      -42.744      -66.733        4.897       37.403       17.143       19.694     1399.014      293.878      387.851        0.419        0.104       79.248       16.969        0.046      341.230       15.799      861.636
07/25/2014  06:08:00      -62.836      -63.820       -4.625       23.376       17.400       11.203      546.442      302.763      125.515        0.451        0.049       89.562        9.952        0.012      341.251       15.835      861.653
07/25/2014  06:09:00      -61.836      -45.535       -2.673       34.994       15.078       12.795     1224.580      227.354      163.724        0.376        0.081       76.793        6.734        0.008      341.237       15.810      861.665
07/25/2014  06:10:00      -49.727      -36.507       -1.375       27.522       19.201       16.471      757.487      368.686      271.290        0.260        0.070       61.689       12.907        0.044      341.210       15.766      861.665
07/25/2014  06:11:00      -70.042      -35.232       -0.453       36.850       23.568       15.066     1357.934      555.471      226.997        0.414        0.107       78.404       14.572        0.035      341.227       15.795      861.656
07/25/2014  06:12:00      -56.535      -22.489        6.922       37.438       21.033       15.702     1401.566      442.369      246.540        0.292        0.105       60.844       17.833        0.086      341.179       15.712      861.637
07/25/2014  06:13:00      -58.758      -27.912        1.638       28.692       12.555       11.351      823.258      157.629      128.849        0.267        0.055       65.051       13.624        0.044      341.247       15.828      861.645
07/25/2014  06:14:00      -68.257      -28.699        0.624       11.755       11.230        8.576      138.170      126.120       73.549        0.291        0.017       74.045        5.264        0.005      341.194       15.740      861.654
07/25/2014  06:15:00      -78.994      -42.654      -10.064       13.638       15.606        9.870      185.988      243.537       97.423        0.434        0.026       89.774        5.288        0.003      341.226       15.791      861.655
07/25/2014  06:16:00      -52.581      -32.719       -3.319       26.010       17.568        9.312      676.531      308.622       86.717        0.246        0.054       61.930        9.523        0.024      341.234       15.806      861.656
07/25/2014  06:17:00      -22.398      -25.235        0.506       16.290       10.744       11.347      265.376      115.440      128.751        0.082        0.025       33.741        7.597        0.051      341.243       15.821      861.663
07/25/2014  06:18:00      -55.313      -23.236       -6.659       15.024        7.190        7.160      225.708       51.702       51.259        0.199        0.016       59.995        6.460        0.012      341.223       15.787      861.676
07/25/2014  06:19:00      -81.371      -37.284      -12.524       12.988       10.977        8.627      168.695      120.486       74.430        0.427        0.018       89.506        2.345        0.001      341.209       15.764      861.688
07/25/2014  06:20:00      -68.525      -25.849      -14.802       10.774       16.018        9.948      116.076      256.568       98.957        0.303        0.024       73.238        2.211        0.001      341.222       15.786      861.702
07/25/2014  06:21:00      -89.058      -25.373      -15.309       21.734       18.397       12.617      472.367      338.457      159.186        0.489        0.049       92.602        8.617        0.009      341.130       15.630      861.710
07/25/2014  06:22:00      -68.741      -14.536      -10.968       16.396       12.861        8.536      268.814      165.395       72.867        0.278        0.025       70.261        8.530        0.015      341.135       15.638      861.713
07/25/2014  06:23:00      -31.589       -4.460       -3.148       12.202        6.803        4.466      148.883       46.283       19.945        0.062        0.011       31.902        3.148        0.010      341.220       15.783      861.716
07/25/2014  06:24:00       -8.000      -16.186       -5.163       11.249       14.162        7.652      126.549      200.557       58.552        0.037        0.019       18.055        7.397        0.168      341.536       16.317      861.719
07/25/2014  06:25:00      -68.141      -35.490       -6.665       27.413       10.393       11.358      751.470      108.015      129.010        0.347        0.049       76.829        6.707        0.008      341.374       16.042      861.740
07/25/2014  06:26:00      -58.729      -31.647       -2.860       24.898       14.450       10.892      619.896      208.815      118.638        0.270        0.047       66.713        7.782        0.014      341.306       15.928      861.764
07/25/2014  06:27:00      -11.593      -34.904       -5.862       20.373       15.907        8.453      415.075      253.031       71.460        0.106        0.037       36.779        3.662        0.010      341.412       16.106      861.786
07/25/2014  06:28:00       -0.368        4.368        6.853       20.662       35.518       19.250      426.920     1261.549      370.559        0.106        0.103        4.383       19.728       20.256      341.682       16.566      861.777
07/25/2014  06:29:00       -9.332       19.897       55.671       14.311       21.353       10.882      204.810      455.952      118.417        0.218        0.039       21.977       11.145        0.257      341.765       16.706      861.786
07/25/2014  06:30:00       -3.954       42.621       19.058       20.297       16.933       23.260      411.969      286.710      541.047        0.172        0.062       42.804       15.272        0.127      341.571       16.375      861.810
07/25/2014  06:31:00      -24.679       36.325      -10.493       10.119       32.030        7.850      102.387     1025.928       61.616        0.161        0.059       43.915       12.334        0.079      341.490       16.239      861.824
07/25/2014  06:32:00        8.791      -41.646       -0.817       11.119       22.065        4.760      123.643      486.873       22.661        0.122        0.032       42.564        2.996        0.005      341.558       16.355      861.823
07/25/2014  06:33:00       -2.155      -56.306      -16.926       38.109       27.820       15.405     1452.270      773.929      237.314        0.296        0.123       56.347       14.651        0.068      341.805       16.771      861.813
07/25/2014  06:34:00      -32.833       34.930       -2.539       23.908       24.746       14.486      571.597      612.383      209.845        0.185        0.070       47.939       12.067        0.063      341.665       16.535      861.832
07/25/2014  06:35:00     -100.933       11.373      -10.300       20.205       19.112       10.272      408.227      365.263      105.521        0.565        0.044      101.571        8.780        0.007      341.389       16.067      861.864
07/25/2014  06:36:00      -17.322      -41.189        1.561       31.803       14.984       14.339     1011.433      224.529      205.608        0.172        0.072       44.683        9.228        0.043      341.477       16.218      861.849
07/25/2014  06:37:00      -42.466      -39.263       -6.235       15.355       25.039       16.260      235.764      626.969      264.393        0.226        0.056       57.836        7.023        0.015      341.608       16.440      861.859
07/25/2014  06:38:00      -62.786      -23.390       -3.137       33.133       20.897       16.519     1097.789      436.681      272.885        0.315        0.090       67.002       13.354        0.040      341.585       16.399      861.866
07/25/2014  06:39:00        0.605       -8.277       20.636       18.961       16.150       13.741      359.516      260.818      188.808        0.065        0.040        8.299       11.882        2.050      341.752       16.682      861.860
07/25/2014  06:40:00      -39.533      -39.708        3.599       32.392       26.980       19.215     1049.225      727.894      369.233        0.265        0.107       56.032       16.683        0.089      341.649       16.508      861.880
07/25/2014  06:41:00      -23.012      -43.284       20.857       45.418       31.349       27.616     2062.776      982.764      762.626        0.332        0.190       49.021       31.610        0.416      341.707       16.607      861.887
07/25/2014  06:42:00      -51.070      -67.664        2.180       48.264       37.195       23.926     2329.436     1383.471      572.439        0.574        0.214       84.774       24.996        0.087      341.657       16.522      861.902
07/25/2014  06:43:00      -52.772      -62.144       -2.602       49.837       35.815       22.613     2483.760     1282.718      511.347        0.546        0.214       81.527       21.412        0.069      341.673       16.550      861.907
07/25/2014  06:44:00      -64.816      -65.587       -7.024       46.455       29.026       22.615     2158.104      842.496      511.455        0.603        0.176       92.210       22.293        0.058      341.648       16.508      861.914
07/25/2014  06:45:00      -10.593      -33.413        7.048       23.827       20.927       21.643      567.725      437.953      468.429        0.138        0.074       35.052        5.781        0.027      341.653       16.515      861.910
07/25/2014  06:46:00      -64.744      -20.492        6.553       39.799       32.378       24.193     1583.992     1048.337      585.313        0.394        0.161       67.910       11.500        0.029      341.515       16.281      861.918
07/25/2014  06:47:00      -37.220      -39.700        6.134       30.788       28.993       22.010      947.872      840.618      484.454        0.264        0.114       54.419       14.974        0.076      341.511       16.275      861.921
07/25/2014  06:48:00      -70.854      -74.830        0.484       52.359       39.987       29.948     2741.431     1598.938      896.863        0.793        0.262      103.053       30.734        0.089      341.501       16.257      861.936
07/25/2014  06:49:00     -106.195     -100.563       -6.549       43.269       32.405       21.589     1872.205     1050.068      466.082        1.241        0.169      146.255       22.187        0.023      341.399       16.085      861.936
07/25/2014  06:50:00      -81.353      -70.073        3.569       43.206       39.391       24.392     1866.768     1551.643      594.953        0.778        0.201      107.371       20.926        0.038      341.450       16.172      861.944
07/25/2014  06:51:00      -40.489      -82.639        7.610       31.788       46.995       26.170     1010.475     2208.569      684.845        0.621        0.195       92.025       22.544        0.060      341.587       16.401      861.945
07/25/2014  06:52:00      -60.262      -41.578       -5.202       32.678       42.968       21.676     1067.861     1846.260      469.832        0.438        0.169       73.214       22.005        0.090      341.599       16.424      861.960
07/25/2014  06:53:00      -28.611      -45.443       -0.409       37.212       39.601       26.319     1384.714     1568.223      692.678        0.326        0.182       53.700       19.843        0.137      341.738       16.659      861.956
07/25/2014  06:54:00      -76.942      -47.841       -2.248       25.107       34.263       18.405      630.345     1173.920      338.749        0.518        0.107       90.602       14.337        0.025      341.628       16.474      861.961
07/25/2014  06:55:00      -66.541      -48.709        5.829       34.804       34.745       18.634     1211.322     1207.223      347.228        0.480        0.138       82.464       20.222        0.060      341.715       16.621      861.961
07/25/2014  06:56:00      -82.815      -82.760        3.616       39.992       38.111       20.413     1599.380     1452.464      416.675        0.859        0.173      117.079       19.398        0.027      341.673       16.548      861.969
07/25/2014  06:57:00     -110.319      -99.870       -4.822       28.140       34.418       23.822      791.841     1184.620      567.483        1.236        0.127      148.810       18.161        0.015      341.681       16.562      861.984
07/25/2014  06:58:00      -68.230      -83.322        5.246       43.402       41.900       28.913     1883.715     1755.580      835.980        0.805        0.224      107.694       27.274        0.064      341.740       16.663      862.003
07/25/2014  06:59:00      -88.839      -79.882       -0.896       33.253       36.995       22.726     1105.793     1368.597      516.453        0.863        0.150      119.471       19.793        0.027      341.737       16.658      862.026
07/25/2014  07:00:00      -74.011      -68.419       -4.683       26.358       30.089       20.540      694.738      905.330      421.896        0.610        0.101      100.791       15.957        0.025      341.805       16.772      862.041
07/25/2014  07:01:00      -69.064      -43.555       -2.915       33.999       25.385       18.796     1155.960      644.414      353.308        0.441        0.108       81.651        5.824        0.005      341.826       16.810      862.057
07/25/2014  07:02:00      -50.671      -66.160       -0.246       41.126       49.443       22.354     1691.376     2444.575      499.712        0.579        0.232       83.335       21.524        0.067      341.916       16.961      862.075
07/25/2014  07:03:00      -47.381      -61.168        4.519       29.016       51.837       23.339      841.910     2687.080      544.714        0.504        0.204       77.372       20.943        0.073      341.876       16.892      862.095
07/25/2014  07:04:00      -17.045      -13.801       19.176       32.145       31.378       19.152     1033.327      984.571      366.815        0.162        0.119       21.932       13.297        0.368      342.113       17.294      862.107
07/25/2014  07:05:00      -54.180      -53.746        5.078       48.134       29.281       19.883     2316.853      857.386      395.352        0.471        0.178       76.316       13.915        0.033      341.911       16.952      862.110
07/25/2014  07:06:00      -57.683      -48.509        4.486       34.633       36.028       26.191     1199.422     1297.991      685.954        0.444        0.159       75.369       18.870        0.063      341.903       16.940      862.124
07/25/2014  07:07:00      -61.392      -62.790       -5.119       31.442       38.725       13.198      988.586     1499.641      174.184        0.520        0.133       87.816       11.220        0.016      341.927       16.981      862.134
07/25/2014  07:08:00      -42.252      -31.009        2.489       38.476       28.383       20.966     1480.429      805.573      439.565        0.274        0.136       52.410       21.359        0.166      342.060       17.206      862.135
07/25/2014  07:09:00      -71.542      -60.490        6.272       50.463       28.809       24.298     2546.532      829.948      590.372        0.639        0.198       93.687       24.488        0.068      341.989       17.086      862.137
07/25/2014  07:10:00      -72.265      -41.004        9.547       39.880       37.117       20.532     1590.387     1377.684      421.564        0.519        0.169       83.088       21.070        0.064      342.127       17.320      862.145
07/25/2014  07:11:00      -60.615      -81.148       -5.121       40.710       22.369       15.795     1657.281      500.363      249.472        0.635        0.120      101.288        8.199        0.007      342.084       17.247      862.147
07/25/2014  07:12:00      -27.094      -69.974        1.603       32.235       42.947       21.656     1039.092     1844.450      468.966        0.449        0.168       75.036       14.559        0.038      342.169       17.392      862.158
07/25/2014  07:13:00      -49.219     -104.090       -3.801       30.929       34.214       19.653      956.588     1170.569      386.258        0.789        0.126      115.140       18.969        0.027      342.066       17.214      862.161
07/25/2014  07:14:00      -29.985      -88.651        1.964       23.320       32.463       19.169      543.803     1053.870      367.438        0.536        0.098       93.585       17.332        0.034      342.095       17.265      862.175
07/25/2014  07:15:00       -5.881      -70.709       -0.267       30.539       28.434       16.722      932.651      808.477      279.630        0.353        0.101       70.953       14.969        0.045      342.135       17.332      862.194
07/25/2014  07:16:00      -20.264      -42.898        5.967       30.862       21.236       18.887      952.460      450.954      356.711        0.202        0.088       47.444       15.758        0.110      342.219       17.475      862.210
07/25/2014  07:17:00      -33.259      -61.702        5.324       45.864       34.261       21.607     2103.533     1173.833      466.867        0.434        0.187       70.095       21.857        0.097      342.215       17.469      862.232
07/25/2014  07:18:00      -58.210      -79.842       -4.610       27.500       24.498       14.737      756.273      600.142      217.179        0.568        0.079       98.809       12.891        0.017      342.120       17.307      862.244
07/25/2014  07:19:00      -48.166      -59.053        6.040       29.695       36.438       18.832      881.786     1327.705      354.644        0.420        0.128       76.205       19.695        0.067      342.199       17.440      862.267
07/25/2014  07:20:00      -58.548      -62.233        0.247       47.020       45.179       17.853     2210.881     2041.118      318.740        0.593        0.229       85.445       26.799        0.098      342.192       17.431      862.265
07/25/2014  07:21:00     -115.743      -75.296      -10.272       28.811       31.095       15.658      830.069      966.917      245.176        1.061        0.102      138.079        7.997        0.003      342.192       17.429      862.270
07/25/2014  07:22:00      -39.395      -46.767        6.733       56.550       31.107       21.609     3197.933      967.646      466.955        0.421        0.232       61.149       26.865        0.193      342.356       17.708      862.277
07/25/2014  07:23:00      -10.079      -52.772        9.972       16.508       47.586       20.750      272.527     2264.407      430.556        0.298        0.148       53.726       23.981        0.199      342.607       18.134      862.276
07/25/2014  07:24:00      -16.395      -84.408       -6.955       19.132       20.041       17.663      366.039      401.622      311.973        0.426        0.054       85.985       10.952        0.016      342.331       17.665      862.287
07/25/2014  07:25:00      -36.744      -49.289        0.462       23.557       19.243       14.775      554.930      370.295      218.289        0.246        0.057       61.477        7.825        0.016      342.397       17.779      862.279
07/25/2014  07:26:00      -22.254      -60.398        4.206       22.823       27.080       16.982      520.872      733.305      288.386        0.285        0.077       64.367       10.257        0.025      342.380       17.748      862.281
07/25/2014  07:27:00      -30.853      -42.809       -2.093       17.073       21.765       13.733      291.482      473.729      188.598        0.187        0.048       52.769        7.968        0.023      342.441       17.851      862.271
07/25/2014  07:28:00      -12.738      -40.118        8.704       22.122       24.682       16.743      489.388      609.220      280.326        0.161        0.069       42.092       11.975        0.081      342.617       18.151      862.256
07/25/2014  07:29:00      -29.319      -37.021       -3.383        9.621       19.451       11.389       92.555      378.330      129.717        0.142        0.030       47.225        5.907        0.016      342.507       17.966      862.249
07/25/2014  07:30:00      -14.788      -14.966       10.270       19.015       14.216       14.976      361.562      202.083      224.288        0.067        0.039       21.039       15.862        0.568      342.854       18.556      862.239
07/25/2014  07:31:00      -28.459      -11.450        7.384       20.767       13.991       16.195      431.254      195.751      262.291        0.094        0.044       30.676       16.280        0.282      342.815       18.488      862.231
07/25/2014  07:32:00      -12.633        0.122        4.314       24.580       14.415       16.836      604.197      207.792      283.443        0.064        0.055       12.634       12.612        0.997      343.133       19.030      862.218
07/25/2014  07:33:00      -17.197      -27.838        7.583       14.806       26.374       14.146      219.219      695.584      200.103        0.112        0.056       32.722       13.731        0.176      342.964       18.744      862.216
07/25/2014  07:34:00      -22.845      -26.988        1.342       12.778       12.592        7.155      163.271      158.567       51.195        0.081        0.019       35.359        4.855        0.019      342.625       18.166      862.216
07/25/2014  07:35:00      -26.518      -18.688       -0.938       16.235       11.105        8.589      263.579      123.319       73.770        0.076        0.023       32.441        7.237        0.050      342.663       18.228      862.219
07/25/2014  07:36:00      -17.748       -8.682       -2.833       17.574       14.177        7.292      308.847      200.990       53.170        0.048        0.028       19.758        4.727        0.057      342.845       18.539      862.233
07/25/2014  07:37:00      -20.865       -6.558        5.155       11.164       19.265       13.239      124.629      371.122      175.284        0.059        0.034       21.871        8.215        0.141      343.021       18.839      862.238
07/25/2014  07:38:00        1.378        8.605       15.652       12.453       17.110       16.845      155.072      292.752      283.752        0.053        0.037        8.715       11.373        1.703      343.425       19.527      862.244
07/25/2014  07:39:00       15.188       25.472        6.929       14.368       20.924       16.544      206.435      437.827      273.693        0.092        0.046       29.657       11.159        0.142      343.095       18.965      862.257
07/25/2014  07:40:00        0.729       27.548       21.700       15.055       27.245       15.940      226.653      742.317      254.093        0.123        0.061       27.558       11.357        0.170      343.433       19.541      862.252
07/25/2014  07:41:00       26.858      -10.923       11.214       19.220       20.179       25.846      369.416      407.203      668.023        0.121        0.072       28.994       12.576        0.188      343.452       19.573      862.256
07/25/2014  07:42:00        2.592       -2.505       20.639       17.144       36.406       25.958      293.900     1325.430      673.795        0.137        0.115        3.604       24.665       46.823      343.492       19.642      862.248
07/25/2014  07:43:00        4.811        2.089       20.952       25.404       18.245       18.963      645.349      332.872      359.578        0.090        0.067        5.245       12.755        5.914      343.531       19.708      862.223
07/25/2014  07:44:00      -18.946        8.773       18.360       15.295       17.333       24.089      233.944      300.416      580.300        0.094        0.056       20.878       15.493        0.551      343.715       20.022      862.207
07/25/2014  07:45:00      -13.453       -0.721       23.737       14.260       12.622       13.495      203.346      159.311      182.112        0.064        0.027       13.473        6.780        0.253      343.741       20.068      862.189
07/25/2014  07:46:00      -16.997        4.529       24.137       11.431       14.844       13.088      130.667      220.335      171.294        0.071        0.026       17.590        9.526        0.293      343.699       19.996      862.177
07/25/2014  07:47:00       -2.948       15.622       41.307       11.858       19.935       12.615      140.611      397.390      159.150        0.133        0.035       15.898        9.968        0.393      344.112       20.701      862.183
07/25/2014  07:48:00       15.851       17.206       35.020       17.692       14.648       10.170      313.021      214.559      103.438        0.120        0.032       23.394        8.077        0.119      343.483       19.627      862.200
07/25/2014  07:49:00       19.744       30.899       31.454       17.526       14.341       15.957      307.157      205.678      254.633        0.155        0.038       36.668        5.928        0.026      343.283       19.286      862.222
07/25/2014  07:50:00       -1.429        7.112       16.182       13.943       33.774       13.863      194.410     1140.656      192.182        0.092        0.076        7.254        5.846        0.649      343.489       19.637      862.240
07/25/2014  07:51:00        9.516        2.112       38.459       22.924       34.633       14.700      525.492     1199.436      216.094        0.176        0.097        9.748       13.897        2.032      343.733       20.053      862.260
07/25/2014  07:52:00        3.736       36.631       31.394       15.533       21.962       21.585      241.270      482.335      465.923        0.177        0.059       36.821       14.123        0.147      343.649       19.910      862.275
07/25/2014  07:53:00        0.184       15.667       40.927       13.867       15.863       15.731      192.287      251.640      247.464        0.131        0.035       15.668        8.246        0.277      343.866       20.282      862.291
07/25/2014  07:54:00      -10.824        2.717       16.073       11.653       12.213       13.063      135.789      149.152      170.632        0.042        0.023       11.159        5.854        0.275      343.963       20.445      862.298
07/25/2014  07:55:00      -25.569      -12.180        4.096       24.947       16.660       17.011      622.346      277.555      289.376        0.100        0.059       28.322       14.042        0.246      343.588       19.808      862.300
07/25/2014  07:56:00      -58.986      -45.979        4.298       23.391       24.883       15.940      547.161      619.169      254.097        0.352        0.071       74.789       14.366        0.037      343.177       19.107      862.304
07/25/2014  07:57:00      -57.846      -68.059       -1.637       10.598       20.618       15.159      112.318      425.083      229.784        0.437        0.038       89.321        9.378        0.011      343.100       18.975      862.299
07/25/2014  07:58:00      -58.168      -82.155       -6.465       20.327       17.243       14.582      413.175      297.316      212.635        0.555        0.046      100.662        8.995        0.008      343.114       18.999      862.291
07/25/2014  07:59:00      -31.858      -56.970       -4.710       11.931       21.397       12.804      142.347      457.812      163.942        0.252        0.038       65.272        6.486        0.010      343.133       19.031      862.277
07/25/2014  08:00:00      -32.946      -54.956       -6.000       15.798       25.305       17.533      249.564      640.354      307.397        0.267        0.060       64.075        3.021        0.002      343.175       19.102      862.267
07/25/2014  08:01:00      -37.502      -64.901        1.013       15.510       16.742        9.648      240.547      280.285       93.087        0.312        0.031       74.957        4.626        0.004      343.192       19.130      862.265
07/25/2014  08:02:00      -43.787      -87.552       -3.745       12.827       12.504        8.346      164.524      156.352       69.656        0.499        0.020       97.891        2.007        0.000      343.212       19.164      862.273
07/25/2014  08:03:00      -56.704      -84.086       -9.200       23.610       12.098       17.592      557.414      146.371      309.465        0.569        0.051      101.419        6.340        0.004      343.290       19.299      862.289
07/25/2014  08:04:00      -94.467      -83.884       -7.342       26.078       21.490       11.739      680.053      461.830      137.808        0.865        0.064      126.336        9.067        0.005      343.312       19.335      862.289
07/25/2014  08:05:00      -56.556      -43.532        0.720       41.939       25.533       20.516     1758.842      651.940      420.896        0.396        0.142       71.369       19.606        0.075      343.489       19.637      862.284
07/25/2014  08:06:00       -1.603      -12.829       18.307       14.312       31.640       22.402      204.821     1001.115      501.827        0.110        0.085       12.929       19.319        2.233      344.325       21.065      862.286
07/25/2014  08:07:00       -9.593        0.962       12.459       24.959       16.591       24.951      622.943      275.277      622.544        0.088        0.076        9.641       16.122        2.797      344.175       20.808      862.287
07/25/2014  08:08:00      -13.937        7.542       19.369       13.986       14.830       15.717      195.595      219.939      247.021        0.064        0.033       15.847       10.605        0.448      344.331       21.073      862.294
07/25/2014  08:09:00       -8.443        2.553        9.719       24.114       19.022       20.057      581.480      361.844      402.286        0.076        0.067        8.821       12.444        1.990      344.268       20.966      862.304
07/25/2014  08:10:00      -12.558        2.820       19.989       25.627       19.795       20.240      656.748      391.829      409.651        0.101        0.073       12.871       17.383        1.824      344.328       21.070      862.308
07/25/2014  08:11:00      -39.918      -16.095        8.814       46.526       22.234       24.038     2164.682      494.334      577.802        0.258        0.162       43.040       28.921        0.452      344.046       20.587      862.301
07/25/2014  08:12:00      -27.065      -11.674       11.809       27.866       23.783       15.325      776.514      565.610      234.857        0.129        0.079       29.475       17.538        0.354      344.046       20.588      862.311
07/25/2014  08:13:00      -58.191      -11.536       13.251       47.620       37.231       23.651     2267.695     1386.140      559.380        0.395        0.211       59.323       27.381        0.213      343.923       20.378      862.307
07/25/2014  08:14:00      -30.348        9.041        4.524       22.242       17.622       14.230      494.701      310.524      202.481        0.102        0.050       31.666       12.008        0.144      343.935       20.398      862.319
07/25/2014  08:15:00      -27.528       16.350       26.493       20.195       21.334       23.655      407.822      455.148      559.547        0.157        0.071       32.018       18.088        0.319      344.280       20.987      862.325
07/25/2014  08:16:00      -14.197       19.937       33.666       21.119       22.161       18.518      446.016      491.120      342.929        0.151        0.064       24.475       12.099        0.244      344.884       22.022      862.321
07/25/2014  08:17:00      -25.898        6.118       16.367       16.701       19.038       27.382      278.928      362.430      749.797        0.118        0.070       26.611       16.320        0.376      344.398       21.190      862.322
07/25/2014  08:18:00      -41.865       10.645       17.545       21.820       20.373       25.451      476.097      415.047      647.758        0.186        0.077       43.198       20.997        0.236      344.108       20.693      862.327
07/25/2014  08:19:00      -35.217       21.164       -0.591       15.729       14.394       19.597      247.399      207.182      384.033        0.126        0.042       41.087       13.987        0.116      344.113       20.701      862.345
07/25/2014  08:20:00       -6.251        2.268       13.792       18.413       10.872       16.671      339.051      118.195      277.924        0.048        0.037        6.650        8.155        1.504      344.704       21.714      862.344
07/25/2014  08:21:00      -22.060        5.716        4.986       35.201       21.363       22.695     1239.077      456.360      515.053        0.138        0.111       22.788       13.509        0.351      344.216       20.878      862.350
07/25/2014  08:22:00      -39.448      -32.652       12.069       38.491       36.885       26.779     1481.576     1360.537      717.118        0.316        0.178       51.209       20.522        0.161      344.132       20.736      862.352
07/25/2014  08:23:00      -16.289      -34.008        0.335       31.128       40.465       21.180      968.928     1637.438      448.594        0.224        0.153       37.708       20.890        0.307      344.101       20.680      862.357
07/25/2014  08:24:00      -12.218        2.571       29.747       23.481       15.767       15.012      551.361      248.605      225.366        0.103        0.051       12.486       15.958        1.634      345.105       22.400      862.354
07/25/2014  08:25:00      -17.424        2.161       12.002       19.815       20.643       15.958      392.616      426.132      254.672        0.076        0.054       17.558       12.802        0.532      344.458       21.292      862.353
07/25/2014  08:26:00      -24.719        6.192        6.316       19.574       13.641       20.447      383.122      186.075      418.077        0.084        0.049       25.483       13.079        0.263      344.473       21.318      862.350
07/25/2014  08:27:00      -31.287        8.558       18.896       18.826       19.718       21.022      354.402      388.797      441.921        0.130        0.059       32.437       16.701        0.265      344.512       21.384      862.344
07/25/2014  08:28:00      -25.448      -13.197        8.676       22.767       17.784       21.678      518.324      316.273      469.915        0.110        0.065       28.666       17.568        0.376      344.497       21.358      862.328
07/25/2014  08:29:00      -12.829       -8.656        3.212       17.237       21.410       15.587      297.122      458.405      242.948        0.062        0.050       15.477        7.811        0.255      344.203       20.856      862.313
07/25/2014  08:30:00      -38.883       19.330        7.701       18.271       25.059       17.759      333.834      627.939      315.379        0.161        0.064       43.423       12.599        0.084      344.161       20.784      862.304
07/25/2014  08:31:00      -11.556      -53.264       -6.029       17.304       29.040       10.351      299.426      843.295      107.134        0.213        0.062       54.503        9.745        0.032      344.052       20.596      862.309
07/25/2014  08:32:00      -41.657      -49.878       -1.397       11.801       18.922        7.111      139.253      358.039       50.573        0.239        0.027       64.985        5.861        0.008      343.904       20.346      862.305
07/25/2014  08:33:00      -31.012      -38.549        5.841       14.205       18.167       11.258      201.776      330.054      126.743        0.157        0.033       49.475        7.015        0.020      344.068       20.624      862.304
07/25/2014  08:34:00      -55.505      -54.585        0.033       24.689       17.568       14.910      609.563      308.648      222.298        0.360        0.057       77.848       12.668        0.026      344.006       20.519      862.312
07/25/2014  08:35:00      -54.479      -60.230        3.668       22.296       24.950       17.581      497.125      622.512      309.097        0.402        0.071       81.213       10.707        0.017      344.039       20.575      862.318
07/25/2014  08:36:00      -31.035      -29.438        2.511       12.188       19.085       19.498      148.553      364.246      380.156        0.136        0.045       42.776       12.789        0.089      344.161       20.783      862.327
07/25/2014  08:37:00      -22.936        8.546       12.620       14.367       11.452       18.885      206.418      131.156      356.638        0.073        0.035       24.476       10.532        0.185      344.783       21.849      862.339
07/25/2014  08:38:00      -17.701       18.273       21.144       19.770       21.407       18.690      390.868      458.244      349.314        0.115        0.060       25.441        5.618        0.049      345.041       22.290      862.333
07/25/2014  08:39:00      -34.113       -9.099       22.242       29.404       32.392       24.110      864.586     1049.232      581.270        0.212        0.125       35.305       21.658        0.376      344.711       21.725      862.334
07/25/2014  08:40:00       34.529        6.067       36.060       47.808       32.969       31.736     2285.648     1086.975     1007.186        0.345        0.219       35.058       29.150        0.691      345.265       22.673      862.339
07/25/2014  08:41:00       -5.182       16.647       39.879       27.789       30.911       28.963      772.235      955.507      838.867        0.223        0.128       17.435       23.120        1.759      345.559       23.177      862.346
07/25/2014  08:42:00       20.351       24.623       43.093       40.070       43.794       34.555     1605.574     1917.917     1194.040        0.380        0.236       31.945       28.979        0.823      345.233       22.617      862.352
07/25/2014  08:43:00       12.068       63.063       73.883       36.510       36.479       27.724     1332.982     1330.699      768.639        0.651        0.172       64.207       26.943        0.176      344.923       22.087      862.356
07/25/2014  08:44:00       66.355       69.072       50.431       40.110       28.570       29.884     1608.839      816.265      893.055        0.752        0.166       95.781       20.840        0.047      344.662       21.639      862.350
07/25/2014  08:45:00       20.283       19.301       33.751       35.380       49.335       18.319     1251.764     2433.925      335.592        0.297        0.201       27.999        2.835        0.010      344.954       22.141      862.358
07/25/2014  08:46:00      -18.371       -5.828       31.310       27.965       29.644       18.094      782.021      878.748      327.384        0.167        0.099       19.274       18.011        0.873      345.196       22.555      862.364
07/25/2014  08:47:00       -1.984       31.751       55.050       28.716       32.318       32.936      824.596     1044.422     1084.761        0.350        0.148       31.813       25.620        0.649      345.368       22.849      862.378
07/25/2014  08:48:00       20.663       23.093       47.771       28.185       34.154       32.376      794.379     1166.511     1048.183        0.313        0.150       30.987       23.873        0.594      345.061       22.323      862.381
07/25/2014  08:49:00       32.006      -10.470       43.935       27.316       34.610       28.921      746.179     1197.849      836.451        0.292        0.139       33.675       21.881        0.422      344.995       22.210      862.381
07/25/2014  08:50:00       -2.326       -0.080       42.909       19.760       44.510       25.349      390.456     1981.109      642.588        0.243        0.151        2.327       26.203      126.800      345.454       22.996      862.366
07/25/2014  08:51:00       18.442       15.975       47.987       25.642       26.335       23.515      657.534      693.550      552.970        0.240        0.095       24.399       17.889        0.538      345.179       22.526      862.369
07/25/2014  08:52:00       57.866      -15.370       34.458       63.057       48.973       45.393     3976.197     2398.324     2060.540        0.660        0.422       59.872       48.820        0.665      344.991       22.204      862.367
07/25/2014  08:53:00        0.511       34.704       79.087       29.109       42.549       25.648      847.338     1810.445      657.826        0.539        0.166       34.708       23.907        0.474      345.534       23.133      862.365
07/25/2014  08:54:00       52.715       52.930       48.521       55.165       53.341       46.666     3043.140     2845.294     2177.732        0.800        0.403       74.702       40.470        0.293      345.110       22.407      862.361
07/25/2014  08:55:00      107.367       94.489       30.697       53.183       29.220       41.256     2828.448      853.831     1702.049        1.339        0.269      143.024       19.678        0.019      344.569       21.480      862.361
07/25/2014  08:56:00       25.183       32.072       36.524       46.715       43.212       30.421     2182.247     1867.273      925.434        0.398        0.249       40.777        9.917        0.059      345.189       22.542      862.362
07/25/2014  08:57:00       23.613       19.109       45.809       50.570       48.433       33.799     2557.280     2345.792     1142.385        0.453        0.302       30.377       32.113        1.118      345.453       22.995      862.369
07/25/2014  08:58:00       27.861       48.904       33.466       24.934       23.126       28.577      621.722      534.800      816.645        0.313        0.099       56.283       20.201        0.129      344.957       22.145      862.377
07/25/2014  08:59:00        1.463       37.336       20.997       21.187       31.240       16.854      448.900      975.914      284.066        0.177        0.085       37.365       12.290        0.108      345.024       22.260      862.372
07/25/2014  09:00:00       -7.653       23.877       38.643       18.653       15.778       19.938      347.922      248.943      397.521        0.156        0.050       25.073        9.527        0.144      345.449       22.987      862.361
07/25/2014  09:01:00      -11.920       29.480       -3.816       20.300       30.075       21.568      412.076      904.493      465.161        0.140        0.089       31.799       18.648        0.344      344.993       22.207      862.364
07/25/2014  09:02:00       -1.649       37.216        8.892       20.227       30.182       22.700      409.114      910.944      515.293        0.165        0.092       37.253       13.509        0.132      345.606       23.257      862.366
07/25/2014  09:03:00        8.351       60.480        6.428       24.095       38.922       27.799      580.549     1514.928      772.792        0.332        0.143       61.054       19.227        0.099      345.292       22.721      862.375
07/25/2014  09:04:00       10.997       18.032       14.621       20.590       25.011       23.427      423.946      625.553      548.830        0.113        0.080       21.121       12.766        0.365      345.407       22.916      862.374
07/25/2014  09:05:00        4.198       75.125        8.761       32.877       36.509       28.402     1080.904     1332.906      806.650        0.448        0.161       75.242       22.736        0.091      345.535       23.136      862.372
07/25/2014  09:06:00       38.154       57.114       38.582       42.326       49.149       42.305     1791.499     2415.590     1789.677        0.610        0.300       68.686       11.004        0.026      345.425       22.947      862.361
07/25/2014  09:07:00       82.135       34.634       32.697       51.227       70.535       37.770     2624.216     4975.204     1426.591        0.902        0.451       89.138       27.189        0.093      344.893       22.035      862.365
07/25/2014  09:08:00       83.182       57.689       53.795       78.860       55.015       49.082     6218.869     3026.615     2409.015        1.240        0.583      101.229       52.236        0.266      345.234       22.619      862.361
07/25/2014  09:09:00      110.947       65.443       25.757       73.279       41.535       51.135     5369.789     1725.145     2614.833        1.348        0.485      128.810       43.251        0.113      345.208       22.576      862.364
07/25/2014  09:10:00       31.022       31.688       66.482       43.132       62.218       28.795     1860.406     3871.027      829.134        0.647        0.328       44.345       19.403        0.191      345.623       23.285      862.368
07/25/2014  09:11:00      101.692       56.864       17.793       57.485       41.919       50.154     3304.562     1757.244     2515.400        1.073        0.379      116.511       37.643        0.104      344.819       21.908      862.388
07/25/2014  09:12:00       10.652       31.679        3.917       36.182       30.195       30.167     1309.154      911.743      910.032        0.213        0.157       33.422       25.361        0.576      345.094       22.379      862.392
07/25/2014  09:13:00       40.290       29.256       27.596       47.436       29.259       18.411     2250.168      856.099      338.968        0.334        0.172       49.792       19.681        0.156      345.511       23.094      862.379
07/25/2014  09:14:00       50.936       45.419        2.386       39.384       24.141       22.946     1551.093      582.775      526.508        0.366        0.133       68.245       19.376        0.081      345.357       22.829      862.378
07/25/2014  09:15:00       59.182       60.304        3.481       39.417       38.431       27.805     1553.664     1476.927      773.132        0.548        0.190       84.493       20.472        0.059      345.443       22.977      862.360
07/25/2014  09:16:00       89.130       63.140       -2.323       40.269       27.263       31.174     1621.611      743.261      971.812        0.764        0.167      109.228       16.981        0.024      344.996       22.211      862.352
07/25/2014  09:17:00       41.813       61.660        6.984       45.878       37.511       35.458     2104.750     1407.050     1257.257        0.518        0.238       74.500       18.138        0.059      345.432       22.959      862.337
07/25/2014  09:18:00       15.088       29.025       24.931       36.632       50.757       29.511     1341.928     2576.274      870.922        0.324        0.239       32.713       22.206        0.461      345.557       23.172      862.334
07/25/2014  09:19:00       69.062       62.800       59.719       23.019       19.964       18.791      529.864      398.560      353.106        0.678        0.064       93.346        7.450        0.006      344.917       22.075      862.329
07/25/2014  09:20:00       79.606       62.490       39.168       32.565       22.141       31.295     1060.462      490.229      979.369        0.715        0.127      101.203       22.199        0.048      344.950       22.133      862.330
07/25/2014  09:21:00       57.463       57.187       -5.295       22.906       29.472       25.647      524.679      868.617      657.770        0.433        0.103       81.070       14.269        0.031      344.968       22.163      862.326
07/25/2014  09:22:00       57.320       63.050       -7.713       33.415       17.509       24.656     1116.562      306.549      607.907        0.468        0.102       85.211       19.173        0.051      344.906       22.057      862.321
07/25/2014  09:23:00       24.907       40.030       14.591       22.904       26.028       28.371      524.576      677.440      804.911        0.222        0.100       47.146       10.748        0.052      345.177       22.520      862.331
07/25/2014  09:24:00      -20.485       14.422       -1.616       25.759       24.589       11.681      663.546      604.625      136.435        0.102        0.070       25.052        9.934        0.157      345.077       22.350      862.330
07/25/2014  09:25:00      -72.483       38.680      -12.969       24.469       22.048       17.244      598.715      486.109      297.369        0.415        0.069       82.158        4.933        0.004      344.883       22.018      862.328
07/25/2014  09:26:00      -20.492       26.111       14.497       32.802       34.002       26.498     1075.939     1156.127      702.135        0.212        0.147       33.192       21.376        0.415      345.737       23.481      862.313
07/25/2014  09:27:00       -1.649       23.799       -6.823       44.037       23.117       27.711     1939.291      534.417      767.874        0.193        0.162       23.856       18.501        0.601      345.228       22.608      862.308
07/25/2014  09:28:00      -22.591       -9.911       21.334       36.937       20.031       20.492     1364.309      401.250      419.916        0.162        0.109       24.670       24.930        1.021      345.482       23.046      862.307
07/25/2014  09:29:00       25.183        6.050       33.976       34.382       42.241       32.640     1182.110     1784.331     1065.351        0.293        0.202       25.899       30.221        1.362      345.931       23.815      862.292
07/25/2014  09:30:00       -2.146       19.610       36.637       25.825       26.603       13.772      666.937      707.739      189.663        0.165        0.078       19.727       11.608        0.346      346.177       24.236      862.288
07/25/2014  09:31:00       -7.097      -13.757       15.604       35.953       43.034       26.035     1292.626     1851.965      677.825        0.215        0.191       15.480       18.089        1.365      345.609       23.262      862.287
07/25/2014  09:32:00      -21.596      -17.393       19.280       41.845       32.795       33.478     1750.999     1075.538     1120.808        0.254        0.197       27.729       28.453        1.053      345.884       23.736      862.280
07/25/2014  09:33:00      -86.414      -53.641       -3.921       67.178       39.485       28.397     4512.910     1559.051      806.362        0.862        0.344      101.709       36.409        0.128      345.389       22.885      862.278
07/25/2014  09:34:00      -75.458      -19.398        6.597       45.480       38.764       21.150     2068.452     1502.642      447.339        0.507        0.201       77.911       27.422        0.124      345.384       22.876      862.268
07/25/2014  09:35:00      -87.286      -21.377       -5.502       32.241       38.630       18.943     1039.497     1492.290      358.828        0.550        0.145       89.866       10.472        0.014      345.066       22.332      862.260
07/25/2014  09:36:00      -62.829       26.358       -8.828       23.264       33.790       18.138      541.205     1141.745      328.978        0.337        0.101       68.134       10.967        0.026      345.111       22.409      862.247
07/25/2014  09:37:00      -33.250      -30.662      -13.518       33.072       27.182       12.418     1093.757      738.880      154.194        0.211        0.099       45.230       12.613        0.078      345.148       22.472      862.248
07/25/2014  09:38:00       11.513      -18.518       17.723       14.707       32.434       20.121      216.304     1051.939      404.841        0.123        0.084       21.805        8.593        0.155      345.642       23.319      862.240
07/25/2014  09:39:00       39.579       80.070       -5.799       27.188       37.562       36.254      739.174     1410.900     1314.373        0.574        0.173       89.318       23.492        0.069      345.699       23.417      862.245
07/25/2014  09:40:00       40.614       34.581       10.105       28.001       24.080       29.661      784.056      579.866      879.756        0.260        0.112       53.341       13.732        0.066      345.672       23.370      862.236
07/25/2014  09:41:00      -18.430      -84.629        6.153       21.150       48.476       21.320      447.303     2349.932      454.561        0.540        0.163       86.613       22.852        0.070      345.547       23.157      862.236
07/25/2014  09:42:00       -9.423      -59.791      -16.117       15.889       28.886       16.396      252.446      834.420      268.825        0.264        0.068       60.529       13.516        0.050      345.174       22.515      862.229
07/25/2014  09:43:00      -37.606       -6.099        3.018       27.270       16.775       14.985      743.639      281.401      224.545        0.135        0.062       38.097       12.041        0.100      345.746       23.498      862.231
07/25/2014  09:44:00      -54.650      -14.067       -7.237       31.762       22.372       16.040     1008.839      500.525      257.278        0.250        0.088       56.431       20.100        0.127      345.339       22.799      862.227
07/25/2014  09:45:00      -92.192      -20.305       -8.654       44.693       22.720       22.084     1997.429      516.213      487.710        0.599        0.150       94.401       23.594        0.062      345.286       22.708      862.224
07/25/2014  09:46:00      -29.830        5.958        6.169       22.202       26.783       24.930      492.929      717.317      621.520        0.140        0.092       30.419       18.263        0.360      345.858       23.691      862.218
07/25/2014  09:47:00       10.392       30.213       37.191       35.810       20.691       28.633     1282.385      428.135      819.857        0.247        0.127       31.950       15.248        0.228      346.627       25.013      862.221
07/25/2014  09:48:00      100.956       72.689       24.287       70.811       43.673       38.079     5014.256     1907.356     1450.007        1.222        0.419      124.402       40.540        0.106      346.128       24.152      862.212
07/25/2014  09:49:00       95.532       65.867       -8.390       43.323       32.135       28.393     1876.854     1032.681      806.138        0.862        0.186      116.038       13.599        0.014      345.588       23.224      862.211
07/25/2014  09:50:00       74.932       77.333       43.094       90.484       56.059       56.362     8187.444     3142.581     3176.680        1.398        0.725      107.681       52.365        0.236      345.999       23.932      862.195
07/25/2014  09:51:00      109.991      101.641       48.965       52.925       39.692       33.768     2801.101     1575.440     1140.283        1.517        0.276      149.763       26.364        0.031      345.675       23.375      862.200
07/25/2014  09:52:00       38.414       83.778       78.779       60.330       47.108       53.054     3639.701     2219.136     2814.753        1.169        0.434       92.165       33.493        0.132      345.969       23.877      862.197
07/25/2014  09:53:00       27.796       13.861        7.362       55.092       44.357       24.267     3035.181     1967.509      588.879        0.330        0.280       31.060       18.203        0.343      345.674       23.374      862.199
07/25/2014  09:54:00       21.432       39.029       61.141       50.630       45.947       40.929     2563.401     2111.093     1675.206        0.603        0.317       44.527       37.164        0.697      346.555       24.887      862.195
07/25/2014  09:55:00       61.683       50.992       72.877       72.556       65.883       49.019     5264.324     4340.518     2402.816        1.186        0.600       80.031       57.021        0.508      346.163       24.212      862.180
07/25/2014  09:56:00      102.730      112.989       57.638       48.914       51.761       39.995     2392.579     2679.167     1599.587        1.666        0.334      152.709       23.005        0.023      345.733       23.474      862.175
07/25/2014  09:57:00      116.449       95.930       37.950       42.451       20.115       32.788     1802.097      404.601     1075.039        1.374        0.164      150.873       22.401        0.022      345.545       23.153      862.169
07/25/2014  09:58:00       20.780       26.934       37.117       47.759       54.660       29.499     2280.946     2987.718      870.172        0.434        0.307       34.018       27.580        0.657      346.098       24.102      862.163
07/25/2014  09:59:00        6.112      -32.348       17.301       27.862       49.693       32.112      776.282     2469.401     1031.201        0.283        0.214       32.920       13.887        0.178      346.760       25.241      862.155
07/25/2014  10:00:00       65.533      -81.467       -6.850       57.975       56.085       34.712     3361.053     3145.521     1204.897        0.934        0.386      104.553       29.887        0.082      346.095       24.096      862.159
07/25/2014  10:01:00       44.965      -12.739       38.106       34.644       47.473       34.829     1200.208     2253.705     1213.033        0.415        0.233       46.735       35.464        0.576      346.527       24.840      862.141
07/25/2014  10:02:00       49.676       58.485       52.409       54.239       34.201       38.869     2941.910     1169.691     1510.823        0.713        0.281       76.734       35.453        0.213      346.591       24.949      862.137
07/25/2014  10:03:00       45.281       50.881       29.605       56.525       40.305       44.465     3195.080     1624.519     1977.148        0.615        0.340       68.112       35.166        0.267      346.170       24.225      862.129
07/25/2014  10:04:00       31.235       67.260       10.557       42.620       49.234       37.028     1816.498     2424.003     1371.065        0.561        0.281       74.159       32.534        0.192      346.243       24.351      862.130
07/25/2014  10:05:00      -13.617       26.084       14.781       27.794       54.226       23.867      772.520     2940.472      569.621        0.268        0.214       29.424       27.939        0.902      346.697       25.131      862.137
07/25/2014  10:06:00       -4.140      -35.395       33.982       19.291       39.779       15.310      372.153     1582.335      234.399        0.231        0.109       35.637        9.257        0.067      346.601       24.966      862.130
07/25/2014  10:07:00       23.249       20.507       53.776       51.889       49.086       30.289     2692.455     2409.418      917.430        0.493        0.301       31.001       20.309        0.429      346.868       25.427      862.106
07/25/2014  10:08:00       74.012       50.135       40.942       65.199       42.817       37.516     4250.952     1833.256     1407.423        0.858        0.375       89.394       24.546        0.075      346.550       24.877      862.081
07/25/2014  10:09:00       56.623       73.478        7.580       56.557       49.986       44.083     3198.658     2498.577     1943.293        0.815        0.382       92.764       32.168        0.120      346.473       24.744      862.068
07/25/2014  10:10:00      207.772      132.498       26.643       77.804       44.060       51.349     6053.539     1941.283     2636.670        3.603        0.532      246.424       44.523        0.033      345.967       23.872      862.047
07/25/2014  10:11:00      155.141      125.229       68.534       78.143       52.688       58.408     6106.386     2776.075     3411.497        2.837        0.615      199.377       49.009        0.060      346.124       24.143      862.033
07/25/2014  10:12:00       92.491       77.198       70.357       56.128       48.960       52.292     3150.307     2397.036     2734.480        1.387        0.414      120.475       27.350        0.052      346.249       24.361      862.022
07/25/2014  10:13:00       80.694       74.947       77.140       66.279       81.015       49.322     4392.845     6563.478     2432.630        1.573        0.669      110.130       46.225        0.176      346.312       24.468      862.018
07/25/2014  10:14:00        2.760       14.769       43.025       20.648       40.468       20.860      426.331     1637.640      435.125        0.229        0.125       15.024       14.943        0.989      347.365       26.283      862.002
07/25/2014  10:15:00       10.828       19.838       47.204       37.160       36.125       39.189     1380.830     1304.983     1535.770        0.348        0.211       22.601       24.709        1.195      347.506       26.525      862.016
07/25/2014  10:16:00       32.778       49.405       37.980       74.612       50.779       46.227     5567.013     2578.545     2136.910        0.762        0.514       59.289       36.187        0.373      347.219       26.031      862.025
07/25/2014  10:17:00       49.879       50.149       15.594       55.835       52.550       35.729     3117.526     2761.467     1276.591        0.620        0.358       70.731       27.010        0.146      346.809       25.325      862.035
07/25/2014  10:18:00       15.072       98.745        2.495       49.881       67.218       38.570     2488.130     4518.209     1487.624        0.924        0.425       99.889       39.562        0.157      346.616       24.992      862.044
07/25/2014  10:19:00       -4.019       92.262       -6.927       37.358       56.333       36.530     1395.585     3173.456     1334.468        0.724        0.295       92.349       30.358        0.108      346.498       24.790      862.045
07/25/2014  10:20:00      -13.276       14.034       21.410       27.831       22.713       20.726      774.586      515.863      429.549        0.128        0.086       19.318       14.673        0.577      347.099       25.824      862.056
07/25/2014  10:21:00      -44.094      -11.942        3.813       48.012       48.117       24.544     2305.178     2315.271      602.392        0.366        0.261       45.682       22.796        0.249      346.661       25.070      862.059
07/25/2014  10:22:00      -73.511      -67.189      -14.888       30.329       33.667       27.508      919.834     1133.489      756.685        0.647        0.141       99.590       19.501        0.038      346.068       24.050      862.055
07/25/2014  10:23:00      -23.312      -46.733       -0.706       31.495       32.327       23.221      991.964     1045.004      539.235        0.265        0.129       52.225        4.354        0.007      346.366       24.561      862.055
07/25/2014  10:24:00       98.195       90.375       22.273       90.040       77.681       38.304     8107.159     6034.368     1467.169        1.695        0.780      133.454       31.044        0.054      346.721       25.172      862.042
07/25/2014  10:25:00      122.059       78.444       34.514       52.548       39.224       50.578     2761.306     1538.541     2558.115        1.455        0.343      145.092       28.458        0.038      346.688       25.115      862.035
07/25/2014  10:26:00      144.576       79.218       36.536       73.517       41.365       58.829     5404.721     1711.028     3460.818        1.954        0.529      164.857       23.602        0.020      346.620       24.997      862.024
07/25/2014  10:27:00       55.455      107.383       87.590       57.726       73.516       73.337     3332.271     5404.560     5378.301        1.819        0.706      120.856       61.164        0.256      346.956       25.574      862.019
07/25/2014  10:28:00      107.079      105.725       87.631       73.537       64.393       59.458     5407.697     4146.469     3535.205        2.170        0.654      150.478       46.379        0.095      346.626       25.007      861.998
07/25/2014  10:29:00       54.601       84.180      101.424       69.554       67.201       61.849     4837.714     4515.948     3825.336        1.676        0.659      100.337       50.983        0.258      346.719       25.169      862.007
07/25/2014  10:30:00      109.437       87.119       54.429       49.328       45.046       53.551     2433.217     2029.132     2867.691        1.493        0.367      139.879       29.224        0.044      346.557       24.889      862.014
07/25/2014  10:31:00       65.203       64.754       78.515       50.635       50.062       42.152     2563.874     2506.235     1776.790        1.073        0.342       91.895       33.113        0.130      346.816       25.334      862.014
07/25/2014  10:32:00       62.389       34.515       69.356       69.980       82.533       61.585     4897.166     6811.762     3792.721        1.269        0.775       71.300       63.389        0.790      346.590       24.947      862.016
07/25/2014  10:33:00       41.230      -19.240       30.647       47.502       81.949       41.303     2256.464     6715.561     1705.917        0.684        0.534       45.499       34.682        0.581      347.001       25.654      861.992
07/25/2014  10:34:00       -6.537       52.013       13.096       23.648       39.048       26.392      559.246     1524.768      696.549        0.285        0.139       52.422       22.654        0.187      347.204       26.006      861.997
07/25/2014  10:35:00        0.262       29.701       27.000       23.725       28.274       23.466      562.884      799.447      550.647        0.176        0.096       29.702       21.127        0.506      347.430       26.393      861.991
07/25/2014  10:36:00      -27.602       38.845       13.465       34.179       22.531       25.500     1168.203      507.666      650.256        0.239        0.116       47.653       12.475        0.069      346.993       25.642      861.991
07/25/2014  10:37:00       22.924       16.663       21.029       33.358       30.117       20.945     1112.767      907.060      438.679        0.185        0.123       28.340       14.802        0.273      347.301       26.171      861.993
07/25/2014  10:38:00       -1.192       37.335       24.590       23.059       44.267       30.307      531.695     1959.598      918.535        0.270        0.170       37.354       31.300        0.702      347.402       26.347      861.985
07/25/2014  10:39:00      -36.380       18.202       -2.455       34.885       24.822       29.916     1216.983      616.154      894.990        0.219        0.136       40.679       20.500        0.254      346.926       25.527      861.986
07/25/2014  10:40:00      -20.097      -16.342        1.358       19.139       18.082       16.477      366.314      326.952      271.498        0.082        0.048       25.902        9.694        0.140      346.815       25.333      861.976
07/25/2014  10:41:00      -32.164      -13.965       12.817       21.714       20.150       18.511      471.498      406.021      342.644        0.131        0.061       35.065        8.324        0.056      346.910       25.498      861.975
07/25/2014  10:42:00      -30.279      -36.962       16.784       23.990       44.036       34.198      575.542     1939.202     1169.499        0.312        0.184       47.781       18.544        0.151      347.217       26.026      861.968
07/25/2014  10:43:00        9.622      -15.657       41.381       45.383       47.558       39.815     2059.581     2261.754     1585.205        0.398        0.295       18.378       29.754        2.621      347.849       27.118      861.963
07/25/2014  10:44:00       30.998      -24.494       39.121       39.333       63.295       47.773     1547.106     4006.317     2282.289        0.546        0.392       39.508       44.866        1.290      347.375       26.299      861.967
07/25/2014  10:45:00        7.839       63.304       90.343       32.359       48.411       29.493     1047.073     2343.641      869.840        0.824        0.213       63.787       30.169        0.224      347.043       25.727      861.956
07/25/2014  10:46:00       49.596       23.920       21.932       34.507       28.503       42.817     1190.739      812.416     1833.335        0.367        0.192       55.063       28.913        0.276      346.744       25.212      861.967
07/25/2014  10:47:00      -13.548        1.046       18.360       24.305       22.723       21.387      590.731      516.345      457.387        0.104        0.078       13.588       16.760        1.521      347.460       26.445      861.952
07/25/2014  10:48:00       -8.957       20.354       11.057       19.136       30.606       23.043      366.176      936.704      530.974        0.122        0.092       22.238       15.700        0.498      347.300       26.170      861.952
07/25/2014  10:49:00      -36.021      -24.730        5.722       17.820       21.250       17.726      317.549      451.541      314.219        0.151        0.054       43.693       11.856        0.074      346.878       25.442      861.936
07/25/2014  10:50:00       13.811       52.631       18.050       68.653       37.091       23.540     4713.258     1375.753      554.120        0.496        0.332       54.413       24.368        0.201      346.916       25.508      861.933
07/25/2014  10:51:00       45.310       55.926       22.109       28.483       22.925       31.855      811.287      525.564     1014.732        0.401        0.118       71.977       15.427        0.046      346.734       25.194      861.923
07/25/2014  10:52:00       34.469       60.658       17.192       33.825       24.030       36.836     1144.153      577.458     1356.924        0.412        0.154       69.767       13.035        0.035      347.058       25.754      861.911
07/25/2014  10:53:00      -21.520       49.192        2.489       25.097       50.666       26.580      629.847     2567.071      706.486        0.340        0.195       53.693       21.171        0.155      347.278       26.131      861.914
07/25/2014  10:54:00        3.103       37.027       38.806       39.160       48.747       35.263     1533.522     2376.231     1243.509        0.402        0.258       37.157       27.681        0.555      347.737       26.924      861.886
07/25/2014  10:55:00      101.139      106.469       64.775       75.404       46.033       43.708     5685.830     2119.080     1910.372        1.774        0.486      146.850       46.886        0.102      347.136       25.887      861.866
07/25/2014  10:56:00       92.186       70.012       17.334       51.378       43.228       38.379     2639.749     1868.652     1472.982        0.984        0.299      115.758       24.294        0.044      347.162       25.932      861.843
07/25/2014  10:57:00       99.144       89.932       -8.610       30.134       28.664       27.752      908.070      821.619      770.168        1.025        0.125      133.856       16.793        0.016      346.919       25.513      861.830
07/25/2014  10:58:00      119.247       53.932       -2.660       30.542       41.398       28.633      932.794     1713.822      819.839        1.030        0.173      130.876       15.890        0.015      346.823       25.349      861.811
07/25/2014  10:59:00       17.976       67.503       -6.365       26.168       23.959       18.102      684.754      574.025      327.686        0.325        0.079       69.856        6.987        0.010      346.965       25.593      861.800
07/25/2014  11:00:00       43.858       67.172        0.910       52.639       58.672       35.457     2770.828     3442.401     1257.231        0.695        0.374       80.222       28.279        0.124      347.131       25.879      861.789
07/25/2014  11:01:00       89.282       72.676       16.990       36.986       29.619       49.398     1367.998      877.268     2440.194        0.911        0.234      115.122       30.605        0.071      346.881       25.448      861.774
07/25/2014  11:02:00       46.385       25.735       24.322       23.782       23.731       17.903      565.573      563.161      320.531        0.243        0.072       53.046       11.675        0.048      347.220       26.031      861.772
07/25/2014  11:03:00       -3.996       41.765       27.917       31.759       38.205       28.917     1008.659     1459.652      836.169        0.292        0.165       41.955       25.204        0.361      347.994       27.368      861.769
07/25/2014  11:04:00      -89.395       46.749       15.672       59.853       34.675       34.794     3582.367     1202.323     1210.628        0.821        0.300      100.881       31.964        0.100      347.375       26.300      861.770
07/25/2014  11:05:00      -49.877       22.513       25.141       54.890       26.110       22.867     3012.861      681.716      522.907        0.392        0.211       54.722       21.263        0.151      347.368       26.289      861.754
07/25/2014  11:06:00       48.777       43.513       29.885       56.395       40.218       30.328     3180.366     1617.520      919.757        0.544        0.286       65.365       18.060        0.076      347.763       26.969      861.737
07/25/2014  11:07:00      179.502      121.613       44.963       63.467       47.799       52.621     4028.073     2284.750     2768.928        2.906        0.454      216.819       29.663        0.019      347.294       26.156      861.713
07/25/2014  11:08:00      148.674      138.842        8.681       79.510       47.247       43.629     6321.827     2232.254     1903.527        2.595        0.523      203.424       30.091        0.022      347.081       25.790      861.697
07/25/2014  11:09:00       71.031       75.087       10.120       58.972       55.177       36.750     3477.642     3044.472     1350.587        0.933        0.394      103.361       33.426        0.105      347.651       26.775      861.695
07/25/2014  11:10:00      103.003      101.273       32.638       41.464       42.049       50.681     1719.242     1768.131     2568.516        1.399        0.303      144.450       33.332        0.053      347.630       26.738      861.673
07/25/2014  11:11:00       41.102       82.634        0.764       64.868       39.794       32.086     4207.865     1583.576     1029.490        0.767        0.341       92.291       20.188        0.048      347.458       26.443      861.680
07/25/2014  11:12:00        7.260       36.690       13.274       42.191       48.084       32.687     1780.076     2312.108     1068.441        0.337        0.258       37.401       28.375        0.576      347.790       27.016      861.666
07/25/2014  11:13:00      -78.515       39.504       -8.289       46.743       35.924       26.701     2184.893     1290.553      712.945        0.599        0.209       87.893       28.047        0.102      347.274       26.125      861.666
07/25/2014  11:14:00     -126.398      -13.745      -11.729       45.577       20.894       19.417     2077.276      436.572      377.031        0.960        0.145      127.143       12.248        0.009      346.963       25.589      861.647
07/25/2014  11:15:00      -63.219      -67.603       -7.213       98.565       37.745       35.125     9715.097     1424.709     1233.765        1.049        0.619       92.557       29.839        0.104      347.248       26.079      861.631
07/25/2014  11:16:00       -6.396        2.731       12.981       38.219       47.619       37.649     1460.659     2267.592     1417.420        0.268        0.257        6.954       23.310       11.235      348.085       27.525      861.636
07/25/2014  11:17:00       -8.245       67.024       12.186       24.927       65.266       28.352      621.364     4259.639      803.846        0.520        0.284       67.529       33.912        0.252      348.019       27.410      861.634
07/25/2014  11:18:00       42.129       60.674        2.168       71.521       58.722       35.988     5115.269     3448.245     1295.161        0.766        0.493       73.866       30.604        0.172      347.751       26.948      861.618
07/25/2014  11:19:00       32.852      138.307      -14.938       40.794       91.654       41.105     1664.131     8400.371     1689.616        1.609        0.588      142.155       51.797        0.133      347.585       26.661      861.600
07/25/2014  11:20:00       92.964       76.173      -20.002       32.874       48.461       34.687     1080.709     2348.468     1203.189        0.974        0.232      120.186       32.463        0.073      347.164       25.936      861.600
07/25/2014  11:21:00       17.726      100.671       -4.161       40.820       45.474       32.616     1666.252     2067.925     1063.834        0.763        0.240      102.220       24.485        0.057      347.551       26.601      861.587
07/25/2014  11:22:00      -36.684      190.572      -12.167       32.247       52.628       32.228     1039.888     2769.743     1038.643        2.133        0.242      194.071       29.300        0.023      347.312       26.188      861.587
07/25/2014  11:23:00      -67.265      165.701      -14.722       39.170       55.304       36.852     1534.304     3058.587     1358.081        1.907        0.298      178.833       27.508        0.024      347.326       26.213      861.589
07/25/2014  11:24:00      -43.477       82.189       10.051       38.820       48.203       36.982     1506.964     2323.520     1367.703        0.697        0.260       92.980       27.877        0.090      348.060       27.482      861.587
07/25/2014  11:25:00       -7.218       15.665       32.261       30.634       21.734       24.803      938.468      472.376      615.178        0.168        0.101       17.248       16.095        0.871      348.332       27.951      861.595
07/25/2014  11:26:00       81.482       95.990       12.495       62.625       51.836       42.158     3921.945     2686.969     1777.330        1.220        0.419      125.910       36.392        0.084      347.560       26.618      861.589
07/25/2014  11:27:00       67.434      -16.073       29.684       58.413       69.356       46.067     3412.022     4810.313     2122.149        0.801        0.517       69.323       39.537        0.325      347.807       27.045      861.581
07/25/2014  11:28:00       55.546       93.250      -16.935       38.616       36.702       27.952     1491.220     1347.066      781.334        0.784        0.181      108.540       17.528        0.026      347.891       27.190      861.570
07/25/2014  11:29:00       48.834       41.875       18.586       36.434       32.490       34.299     1327.406     1055.612     1176.432        0.402        0.178       64.329       18.000        0.078      347.721       26.896      861.569
07/25/2014  11:30:00       19.262      -10.331       29.411       52.683       50.564       33.038     2775.527     2556.765     1091.514        0.388        0.321       21.858       24.857        1.293      348.183       27.692      861.557
07/25/2014  11:31:00       38.588       -2.865       59.802       70.139       56.813       63.837     4919.488     3227.758     4075.200        0.865        0.611       38.694       45.458        1.380      348.201       27.725      861.553
07/25/2014  11:32:00       33.685       -5.889       41.546       51.467       43.373       42.107     2648.806     1881.255     1772.957        0.460        0.315       34.196       39.790        1.354      348.009       27.392      861.557
07/25/2014  11:33:00        4.083      -22.748        1.901       26.663       38.085       35.992      710.923     1450.441     1295.395        0.200        0.173       23.112       24.978        1.168      347.838       27.098      861.546
07/25/2014  11:34:00       18.004       36.932       24.723       52.685       40.928       35.868     2775.698     1675.133     1286.505        0.402        0.287       41.087       20.416        0.247      348.124       27.591      861.552
07/25/2014  11:35:00      176.100      114.890       13.555       56.926       61.037       55.301     3240.563     3725.464     3058.191        2.721        0.501      210.264       23.754        0.013      347.487       26.488      861.544
07/25/2014  11:36:00      140.660       92.501       37.669       65.874       66.337       52.181     4339.439     4400.625     2722.871        2.061        0.573      168.350       28.292        0.028      347.775       26.986      861.548
07/25/2014  11:37:00       92.490       32.608       36.335       88.768       65.269       51.339     7879.756     4260.099     2635.666        1.285        0.739       98.070       51.884        0.280      348.135       27.609      861.534
07/25/2014  11:38:00       59.055       60.213       40.687       61.460       66.049       51.017     3777.286     4362.491     2602.686        0.975        0.537       84.339       36.251        0.185      348.097       27.545      861.543
07/25/2014  11:39:00       78.585      129.232       16.419       55.244       69.575       50.553     3051.871     4840.748     2555.571        1.680        0.522      151.250       42.539        0.079      347.860       27.135      861.535
07/25/2014  11:40:00        3.787       82.850        2.562       39.157       55.579       37.260     1533.250     3088.977     1388.333        0.645        0.301       82.937       35.814        0.186      348.166       27.666      861.544
07/25/2014  11:41:00       20.113       76.245        3.157       32.009       50.988       36.436     1024.569     2599.734     1327.576        0.559        0.248       78.853       32.401        0.169      348.165       27.662      861.540
07/25/2014  11:42:00       47.291      -73.168       23.972       49.620       80.481       38.698     2462.107     6477.154     1497.522        0.930        0.522       87.121       44.987        0.267      348.288       27.874      861.531
07/25/2014  11:43:00       30.858       -2.896       41.831       51.850      105.346       52.833     2688.400    11097.826     2791.360        0.964        0.829       30.993       70.656        5.197      348.561       28.348      861.537
07/25/2014  11:44:00       90.768       54.211       45.819      122.430       73.606       73.983    14989.145     5417.848     5473.507        1.957        1.294      105.725       63.136        0.357      348.253       27.814      861.542
07/25/2014  11:45:00      116.177       98.843       71.577       93.188       68.061       69.409     8684.021     4632.303     4817.663        2.326        0.907      152.536       65.573        0.185      348.051       27.463      861.541
07/25/2014  11:46:00       80.086       84.304       55.114       73.491       78.116       76.474     5400.909     6102.096     5848.219        1.695        0.868      116.279       36.870        0.101      348.210       27.738      861.542
07/25/2014  11:47:00       59.547       46.696       15.401       69.333       59.085       42.271     4807.132     3491.083     1786.850        0.802        0.504       75.673       31.166        0.170      348.493       28.229      861.536
07/25/2014  11:48:00       79.195       64.142       33.471       93.926       63.256       64.125     8822.184     4001.271     4112.058        1.422        0.847      101.912       60.540        0.353      348.531       28.294      861.536
07/25/2014  11:49:00       66.787      128.337      -12.775       50.996       51.059       41.622     2600.599     2607.011     1732.360        1.402        0.347      144.675       29.426        0.041      347.766       26.973      861.533
07/25/2014  11:50:00       67.730       87.409        1.751       44.987       66.691       44.325     2023.838     4447.711     1964.705        1.033        0.422      110.578       23.707        0.046      347.778       26.993      861.538
07/25/2014  11:51:00      148.323      132.072       17.700       74.533       51.558       49.840     5555.148     2658.249     2484.052        2.522        0.535      198.602       27.687        0.019      347.474       26.467      861.533
07/25/2014  11:52:00       -6.486       25.429        2.875       50.160       74.338       31.992     2516.016     5526.158     1023.501        0.488        0.453       26.243       38.034        2.100      348.102       27.554      861.492
07/25/2014  11:53:00      -81.757      -87.922      -10.779       44.343       81.040       35.177     1966.269     6567.436     1237.397        1.215        0.489      120.060       27.383        0.052      347.773       26.984      861.479
07/25/2014  11:54:00      -62.512      -59.816        5.042       84.824       55.943       34.908     7195.095     3129.615     1218.594        0.952        0.577       86.520       37.625        0.189      348.021       27.414      861.454
07/25/2014  11:55:00      -92.696     -103.378        2.300       87.910       57.085       38.396     7728.163     3258.646     1474.221        1.587        0.623      138.850       30.698        0.049      347.947       27.285      861.430
07/25/2014  11:56:00      -83.618      -40.829        2.787       34.942       33.012       28.128     1220.972     1089.767      791.182        0.588        0.155       93.053       19.994        0.046      347.843       27.106      861.440
07/25/2014  11:57:00      -43.942      -12.626        2.843       42.024       17.098       20.108     1765.982      292.355      404.315        0.228        0.123       45.720       20.083        0.193      348.285       27.870      861.446
07/25/2014  11:58:00       32.669       14.055       23.405       91.559       67.921       40.123     8383.011     4613.214     1609.816        0.821        0.730       35.564       53.775        2.286      348.556       28.338      861.434
07/25/2014  11:59:00       91.023      100.226      -19.070      140.647       51.506       42.408    19781.604     2652.829     1798.415        2.146        1.212      135.390       54.993        0.165      347.749       26.944      861.430
07/25/2014  12:00:00       39.274       51.950       16.834       37.331       41.278       33.231     1393.574     1703.888     1104.323        0.436        0.210       65.125       25.459        0.153      348.505       28.250      861.399
07/25/2014  12:01:00       30.528      -52.466       37.739       46.098       76.321       37.016     2125.040     5824.934     1370.216        0.721        0.466       60.701       25.887        0.182      348.539       28.311      861.379
07/25/2014  12:02:00      -27.819      -35.900        9.793       66.530       56.165       43.054     4426.300     3154.558     1853.620        0.579        0.472       45.417       39.492        0.756      348.011       27.397      861.371
07/25/2014  12:03:00       67.394       58.277       11.418       60.431       46.837       39.952     3651.847     2193.743     1596.194        0.775        0.372       89.096       31.803        0.127      348.266       27.836      861.353
07/25/2014  12:04:00       56.801      -85.511       37.872      119.566      159.443       86.226    14295.980    25422.010     7434.959        2.955        2.358      102.657      117.883        1.319      348.504       28.248      861.349
07/25/2014  12:05:00      129.256     -156.395       -9.252       71.764      112.617       53.426     5150.021    12682.639     2854.383        3.097        1.034      202.895       66.231        0.107      348.156       27.645      861.363
07/25/2014  12:06:00       79.149       11.419       31.264       76.890       76.563       54.215     5912.015     5861.878     2939.222        1.104        0.736       79.968       64.375        0.648      348.292       27.882      861.362
07/25/2014  12:07:00       87.272       64.361       32.710       47.563       55.066       42.719     2262.219     3032.270     1824.896        0.997        0.356      108.438       23.517        0.047      348.160       27.653      861.339
07/25/2014  12:08:00        4.693       47.725       12.193       37.513       52.097       35.325     1407.256     2714.067     1247.865        0.391        0.268       47.955       33.144        0.478      348.496       28.234      861.316
07/25/2014  12:09:00       29.310      -60.521       -4.820       42.472       92.201       32.221     1803.897     8501.067     1038.200        0.794        0.567       67.245       22.533        0.112      348.586       28.391      861.310
07/25/2014  12:10:00      -25.791      -54.651        3.813       52.850       52.127       31.094     2793.092     2717.211      966.818        0.507        0.324       60.431       25.432        0.177      348.623       28.455      861.304
07/25/2014  12:11:00       -6.158      -54.784       -7.790       40.354       39.923       19.596     1628.444     1593.816      383.985        0.335        0.180       55.129       19.130        0.120      348.771       28.709      861.283
07/25/2014  12:12:00      -16.227      -23.255       25.329       47.667       52.453       30.947     2272.113     2751.367      957.727        0.371        0.299       28.357       33.042        1.358      349.140       29.351      861.270
07/25/2014  12:13:00        7.160       28.669       29.076       57.551       33.950       46.573     3312.167     1152.611     2169.072        0.417        0.332       29.549       22.746        0.593      348.843       28.835      861.260
07/25/2014  12:14:00       47.639       13.730       40.133       84.088       86.242       43.221     7070.819     7437.684     1868.045        1.022        0.819       49.579       45.869        0.856      348.612       28.436      861.245
07/25/2014  12:15:00       63.383       79.051        5.903       63.457       51.904       47.025     4026.836     2693.997     2211.346        0.961        0.447      101.324       33.597        0.110      348.463       28.178      861.247
07/25/2014  12:16:00       39.236        6.945       22.565       72.128       41.303       42.422     5202.483     1705.913     1799.618        0.540        0.435       39.846       32.368        0.660      349.122       29.319      861.234
07/25/2014  12:17:00       27.874       15.974        5.683       68.268       46.012       28.182     4660.580     2117.134      794.237        0.432        0.379       32.127       23.691        0.544      348.914       28.960      861.224
07/25/2014  12:18:00       33.519       56.467       60.815       85.796       68.122       42.033     7360.892     4640.561     1766.747        1.089        0.688       65.666       36.588        0.310      349.135       29.340      861.229
07/25/2014  12:19:00      102.573      137.986      127.748       89.088       71.804       87.873     7936.598     5155.847     7721.737        3.334        1.041      171.934       65.593        0.146      348.346       27.971      861.219
07/25/2014  12:20:00      100.781       56.007       43.449       83.915       81.586       38.566     7041.714     6656.334     1487.345        1.518        0.759      115.298       21.868        0.036      348.460       28.170      861.221
07/25/2014  12:21:00        5.818      -32.349       34.043       31.440       57.939       36.259      988.450     3356.957     1314.683        0.395        0.283       32.868       33.141        1.017      348.878       28.897      861.213
07/25/2014  12:22:00       41.647       68.109      112.113       75.810       98.801       61.208     5747.082     9761.604     3746.480        1.909        0.963       79.833       36.389        0.208      349.071       29.229      861.199
07/25/2014  12:23:00      177.158      101.181       55.167      120.593       78.610       72.735    14542.564     6179.591     5290.428        3.533        1.301      204.015       63.033        0.095      348.549       28.323      861.225
07/25/2014  12:24:00      140.410       58.756       38.026       66.799       62.405       53.393     4462.169     3894.423     2850.764        1.791        0.560      152.208       44.046        0.084      348.441       28.140      861.234
07/25/2014  12:25:00       97.972       86.586       37.270       86.498       54.817       54.373     7481.976     3004.954     2956.376        1.596        0.672      130.750       27.265        0.043      348.526       28.285      861.220
07/25/2014  12:26:00      111.998       82.910       29.144       65.045       67.457       55.697     4230.787     4550.469     3102.177        1.607        0.594      139.348       40.684        0.085      348.527       28.289      861.229
07/25/2014  12:27:00       61.364       77.632       -8.035       62.257       46.032       33.290     3875.988     2118.907     1108.246        0.848        0.355       98.956       27.288        0.076      348.367       28.011      861.205
07/25/2014  12:28:00       54.344       48.778       -7.343       33.592       37.156       32.682     1128.421     1380.539     1068.136        0.448        0.179       73.025       24.809        0.115      348.459       28.171      861.192
07/25/2014  12:29:00       46.615       15.207      -12.250       42.402       45.377       27.225     1797.892     2059.027      741.215        0.358        0.230       49.033       17.488        0.127      348.266       27.837      861.190
07/25/2014  12:30:00       31.541       -1.475       24.610       36.493       52.366       31.037     1331.744     2742.182      963.319        0.332        0.252       31.576       30.930        0.960      348.651       28.503      861.174
07/25/2014  12:31:00       42.687       27.227       32.225       55.380       35.505       31.878     3066.918     1260.638     1016.205        0.447        0.267       50.631       18.272        0.130      348.898       28.930      861.158
07/25/2014  12:32:00       87.687     -150.416        2.522       94.882      145.713       64.507     9002.655    21232.414     4161.132        3.235        1.720      174.109       82.272        0.223      348.986       29.081      861.123
07/25/2014  12:33:00      116.359      -98.509        7.171      110.492      136.689       92.821    12208.584    18683.804     8615.813        3.139        1.975      152.458      107.251        0.495      349.118       29.309      861.107
07/25/2014  12:34:00       92.267      -27.269       87.745       93.689      183.008       99.849     8777.542    33491.843     9969.882        3.459        2.612       96.212      119.791        1.550      349.151       29.367      861.106
07/25/2014  12:35:00       83.304       99.154      146.707      108.578      109.898       82.794    11789.173    12077.621     6854.887        3.450        1.536      129.503       88.288        0.465      348.841       28.829      861.120
07/25/2014  12:36:00      114.481      -65.105       54.245       85.252      103.580       74.471     7267.943    10728.742     5545.945        2.191        1.177      131.699       76.660        0.339      348.782       28.727      861.114
07/25/2014  12:37:00      114.345       73.540       53.323       59.670       53.919       43.110     3560.472     2907.231     1858.498        1.482        0.416      135.951       37.460        0.076      348.508       28.255      861.096
07/25/2014  12:38:00      159.339       65.611       35.713       93.541       91.861       53.017     8749.941     8438.482     2810.811        2.548        1.000      172.319       42.683        0.061      348.853       28.851      861.073
07/25/2014  12:39:00       48.600      106.436      102.739       81.860       82.265       73.106     6700.979     6767.602     5344.447        2.153        0.941      117.007       63.773        0.297      348.929       28.983      861.038
07/25/2014  12:40:00      119.637       90.957       74.143      123.426       87.972       72.632    15234.080     7739.109     5275.435        2.816        1.412      150.287       60.877        0.164      348.877       28.891      861.001
07/25/2014  12:41:00      144.205       51.824       86.783      123.205      108.917       64.638    15179.440    11862.936     4178.090        3.111        1.561      153.235       66.808        0.190      349.019       29.137      861.001
07/25/2014  12:42:00      130.209        5.207       23.380       93.074       69.502       55.282     8662.738     4830.584     3056.108        1.704        0.827      130.313       39.859        0.094      348.941       29.004      860.996
07/25/2014  12:43:00      162.640       81.222       13.736      110.854       78.542       73.098    12288.567     6168.785     5343.275        2.851        1.190      181.794       64.927        0.128      348.726       28.630      860.991
07/25/2014  12:44:00       87.642       90.298       49.743       86.879       57.546       53.945     7547.963     3311.565     2910.076        1.604        0.688      125.836       50.545        0.161      349.051       29.195      860.985
07/25/2014  12:45:00      136.563      107.797       20.760       97.795       79.582       66.664     9563.807     6333.249     4444.024        2.552        1.017      173.982       28.613        0.027      349.028       29.154      860.969
07/25/2014  12:46:00      175.317      112.348       19.202       75.602       64.176       50.451     5715.701     4118.556     2545.333        2.805        0.619      208.226       42.599        0.042      348.917       28.959      860.974
07/25/2014  12:47:00       86.412       64.813       63.799       90.240       62.436       58.436     8143.324     3898.201     3414.757        1.559        0.773      108.018       45.025        0.174      349.487       29.949      860.958
07/25/2014  12:48:00       41.535      115.898      117.879       79.045       73.838       47.732     6248.034     5452.017     2278.365        2.151        0.699      123.116       41.465        0.113      349.126       29.325      860.939
07/25/2014  12:49:00      175.264      141.047       74.223      116.778       78.040       81.083    13637.204     6090.319     6574.410        4.121        1.315      224.970       73.995        0.108      349.020       29.137      860.918
07/25/2014  12:50:00      159.426      113.288       60.556       93.943       57.395       61.662     8825.381     3294.191     3802.160        2.892        0.796      195.578       29.445        0.023      349.092       29.263      860.911
07/25/2014  12:51:00      136.444      -36.187       53.560      127.909      144.087       85.282    16360.766    20761.081     7273.034        3.359        2.220      141.161       90.163        0.408      348.951       29.020      860.899
07/25/2014  12:52:00      146.852       40.623       95.842       94.827      179.977       91.963     8992.125    32391.893     8457.204        4.111        2.492      152.367      115.524        0.575      348.947       29.014      860.885
07/25/2014  12:53:00      143.608      -15.976       94.185      148.313      191.331      117.934    21996.834    36607.740    13908.367        5.112        3.626      144.494      130.953        0.821      349.262       29.558      860.878
07/25/2014  12:54:00      123.030      121.505      117.760       90.139       91.581       75.046     8125.071     8387.159     5631.912        3.295        1.107      172.915       65.259        0.142      348.945       29.009      860.910
07/25/2014  12:55:00      153.945     -185.864       -3.618      116.569      168.866       75.625    13588.305    28515.603     5719.122        5.303        2.391      241.339      104.443        0.187      349.126       29.321      860.901
07/25/2014  12:56:00      186.230     -159.208        8.262      113.109      152.739      102.017    12793.735    23329.299    10407.551        5.330        2.327      245.008      116.438        0.226      348.907       28.944      860.893
07/25/2014  12:57:00       98.229     -108.685       31.482      108.296      166.792       88.229    11728.055    27819.460     7784.330        3.488        2.367      146.497      108.544        0.549      349.145       29.358      860.885
07/25/2014  12:58:00      228.432     -259.575      -58.320       83.435       89.338       48.071     6961.395     7981.349     2310.832        7.010        0.863      345.775       36.946        0.011      348.621       28.446      860.887
07/25/2014  12:59:00       72.867       15.757       79.844       68.458       85.443       60.290     4686.451     7300.544     3634.933        1.377        0.781       74.552       62.966        0.713      349.240       29.521      860.906
07/25/2014  13:00:00       22.275       25.001       62.297       55.140       79.990       48.689     3040.367     6398.359     2370.613        0.840        0.590       33.485       52.068        2.418      349.223       29.493      860.914
07/25/2014  13:01:00      -15.272       -6.734        6.257       54.731       44.449       27.785     2995.488     1975.734      771.989        0.303        0.287       16.691       16.110        0.932      349.222       29.493      860.919
07/25/2014  13:02:00       40.047      -77.829        1.734       86.351       55.598       36.252     7456.461     3091.131     1314.210        0.976        0.593       87.528       24.049        0.075      349.410       29.817      860.913
07/25/2014  13:03:00      111.843       23.044       28.402       57.258       90.247       47.683     3278.509     8144.456     2273.639        1.377        0.685      114.192       32.418        0.081      349.128       29.329      860.904
07/25/2014  13:04:00      136.636       99.223       71.857      117.079       88.231       59.992    13707.511     7784.708     3599.042        2.938        1.255      168.863       34.710        0.042      349.443       29.871      860.895
07/25/2014  13:05:00       94.941       80.195      108.923       81.155       67.595       56.616     6586.096     4569.044     3205.400        2.083        0.718      124.278       47.040        0.143      349.554       30.065      860.907
07/25/2014  13:06:00       88.396       33.031       91.071       82.644       86.992       49.190     6829.971     7567.548     2419.704        1.700        0.841       94.365       55.578        0.347      349.204       29.459      860.908
07/25/2014  13:07:00       76.148       41.939       99.522       76.269       82.676       61.981     5817.023     6835.286     3841.588        1.697        0.825       86.933       68.802        0.626      349.232       29.508      860.901
07/25/2014  13:08:00      203.702     -125.843       53.945      124.125      157.941       75.406    15406.927    24945.514     5685.994        5.313        2.302      239.439       83.332        0.121      349.128       29.326      860.881
07/25/2014  13:09:00       95.967      -75.702        7.224       73.350       72.327       43.891     5380.213     5231.171     1926.394        1.376        0.627      122.231       40.284        0.109      349.062       29.214      860.895
07/25/2014  13:10:00       54.156       25.184       59.459       68.079       59.508       36.182     4634.756     3541.153     1309.119        0.829        0.474       59.725       47.668        0.637      349.265       29.566      860.876
07/25/2014  13:11:00       53.212     -103.870       18.336       59.156       78.335       34.009     3499.487     6136.310     1156.639        1.237        0.540      116.707       36.531        0.098      349.407       29.813      860.858
07/25/2014  13:12:00       36.208     -124.661       54.325       65.464      139.834       85.538     4285.476    19553.446     7316.696        2.547        1.558      129.813       92.555        0.508      349.402       29.801      860.830
07/25/2014  13:13:00       73.262      -47.216       87.191       96.055      184.450      111.200     9226.503    34021.671    12365.497        3.540        2.781       87.159      132.258        2.303      349.410       29.816      860.810
07/25/2014  13:14:00      207.064     -279.231      -30.193      144.526      209.955      113.297    20887.632    44081.195    12836.228        9.977        3.890      347.628      117.465        0.114      349.200       29.451      860.775
07/25/2014  13:15:00      196.940     -209.673        9.582      123.287      188.959       81.295    15199.750    35705.416     6608.829        7.017        2.876      287.660      118.415        0.169      348.840       28.826      860.801
07/25/2014  13:16:00       96.444     -177.732      -15.891       53.312       77.226       30.944     2842.155     5963.865      957.518        2.545        0.488      202.213       32.298        0.026      348.985       29.078      860.820
07/25/2014  13:17:00       -5.928      -87.376        6.461       37.211       62.334       37.259     1384.682     3885.575     1388.255        0.718        0.333       87.577       36.816        0.177      349.473       29.927      860.811
07/25/2014  13:18:00       53.996     -109.689       -4.957       76.905       73.345       39.753     5914.405     5379.512     1580.292        1.392        0.644      122.259       46.346        0.144      349.231       29.506      860.804
07/25/2014  13:19:00      111.583      -18.984       53.628       58.951      112.445       53.228     3475.213    12643.882     2833.173        1.732        0.948      113.186       65.067        0.330      349.272       29.578      860.802
07/25/2014  13:20:00       64.366       35.225       53.564       87.472      129.301       67.457     7651.433    16718.765     4550.482        1.858        1.446       73.375       72.340        0.972      349.326       29.670      860.776
07/25/2014  13:21:00      -13.373      -92.549       14.583       60.558       88.131       57.080     3667.274     7767.044     3258.102        1.182        0.735       93.510       61.568        0.433      349.765       30.434      860.780
07/25/2014  13:22:00       39.862     -110.866       -8.257       72.254       74.637       33.252     5220.664     5570.734     1105.726        1.292        0.595      117.815       34.463        0.086      348.967       29.050      860.786
07/25/2014  13:23:00       49.107     -162.487       -0.030       78.200      116.025       43.108     6115.166    13461.841     1858.308        2.512        1.072      169.746       33.490        0.039      349.071       29.229      860.771
07/25/2014  13:24:00      -16.956      -56.004       36.846       51.849       70.145       51.305     2688.338     4920.366     2632.200        0.751        0.512       58.514       48.567        0.689      349.643       30.221      860.729
07/25/2014  13:25:00       44.640      -61.698       26.877       99.456      115.630       72.508     9891.456    13370.349     5257.412        1.751        1.426       76.154       73.069        0.921      349.700       30.320      860.693
07/25/2014  13:26:00      229.828     -328.493      -63.601      144.559      150.271       98.166    20897.232    22581.242     9636.575       10.893        2.656      400.910       89.984        0.050      349.198       29.446      860.645
07/25/2014  13:27:00      145.206     -156.983       26.395      130.138      164.996       96.265    16935.820    27223.778     9266.939        4.992        2.671      213.842      122.881        0.330      349.576       30.102      860.651
07/25/2014  13:28:00       45.140     -109.432       22.153       99.071      110.031       76.186     9815.054    12106.847     5804.254        2.111        1.386      118.377       61.666        0.271      349.798       30.489      860.667
07/25/2014  13:29:00      136.241     -303.395      -13.613       93.160      108.402       63.622     8678.752    11750.902     4047.745        6.763        1.224      332.581       40.845        0.015      349.167       29.392      860.692
07/25/2014  13:30:00       24.318     -124.917        4.010       92.936      125.857       58.509     8637.052    15839.889     3423.281        2.205        1.395      127.262       70.426        0.306      349.755       30.414      860.703
07/25/2014  13:31:00       35.980     -121.210      -13.430       66.429       54.099       39.335     4412.772     2926.679     1547.255        1.253        0.444      126.438       25.907        0.042      349.603       30.151      860.697
07/25/2014  13:32:00      -34.587     -107.018        5.798       83.374       66.946       53.457     6951.170     4481.799     2857.672        1.348        0.715      112.468       21.461        0.036      349.613       30.169      860.705
07/25/2014  13:33:00      -51.279     -152.645        1.278       72.987       80.767       50.399     5327.088     6523.349     2540.084        2.016        0.720      161.028       46.357        0.083      349.396       29.791      860.702
07/25/2014  13:34:00      -48.461     -174.078        7.926       95.747       98.649       55.512     9167.513     9731.612     3081.581        2.734        1.099      180.698       28.256        0.024      349.304       29.632      860.716
07/25/2014  13:35:00      102.964     -257.578      -25.281      130.035      136.559       83.684    16909.214    18648.486     7002.995        6.007        2.128      277.395       73.358        0.070      349.384       29.768      860.713
07/25/2014  13:36:00       77.325      -82.869       27.732       82.133      147.600       85.577     6745.795    21785.766     7323.374        2.473        1.793      113.343      104.404        0.848      349.332       29.680      860.724
07/25/2014  13:37:00       17.357       61.086       87.855       54.313       74.455       70.639     2949.935     5543.572     4989.897        1.261        0.674       63.504       63.980        1.015      349.361       29.732      860.686
07/25/2014  13:38:00     -122.734      -15.125       -2.009       66.784       39.432       28.924     4460.063     1554.870      836.570        1.107        0.343      123.663       23.576        0.036      349.422       29.837      860.657
07/25/2014  13:39:00      -13.963      -32.361       37.476       60.569       67.945       46.767     3668.646     4616.578     2187.162        0.656        0.524       35.245       43.927        1.553      349.755       30.415      860.635
07/25/2014  13:40:00      155.043      -69.918       50.296      145.198      186.014       94.887    21082.569    34601.136     9003.519        4.806        3.234      170.079      126.800        0.556      349.682       30.287      860.595
07/25/2014  13:41:00      124.534      -52.143       53.070       80.620      126.431       88.557     6499.506    15984.916     7842.266        2.568        1.516      135.010       90.360        0.448      349.583       30.115      860.577
07/25/2014  13:42:00      186.713     -107.180       52.422      107.755      164.589       94.604    11611.160    27089.528     8949.966        4.836        2.383      215.289       92.157        0.183      349.650       30.230      860.524
07/25/2014  13:43:00      113.018      -26.198       89.464      136.341      178.462      110.157    18588.902    31848.839    12134.642        4.201        3.129      116.015      131.432        1.283      349.848       30.574      860.500
07/25/2014  13:44:00      136.545     -199.916       65.899      154.367      247.293      145.397    23829.220    61153.620    21140.214        8.452        5.306      242.097      187.075        0.597      349.771       30.441      860.499
07/25/2014  13:45:00       34.573       29.107      128.140       96.870      172.691      109.446     9383.816    29822.235    11978.443        3.481        2.559       45.194      110.605        5.989      350.150       31.100      860.511
07/25/2014  13:46:00       90.697     -207.147        7.570      125.812      106.762       76.675    15828.568    11398.090     5879.096        4.214        1.655      226.132       53.633        0.056      349.873       30.618      860.546
07/25/2014  13:47:00      107.139      -19.896       99.511      129.140      134.573      101.577    16677.135    18109.944    10317.888        3.343        2.255      108.971      107.305        0.970      349.685       30.292      860.532
07/25/2014  13:48:00       42.534     -106.426       42.692       68.207      157.541       81.421     4652.193    24819.031     6629.305        2.552        1.805      114.611       99.802        0.758      349.533       30.030      860.541
07/25/2014  13:49:00      114.595     -246.310      -27.498       86.947      117.390       50.810     7559.804    13780.405     2581.669        4.923        1.196      271.662       34.244        0.016      349.421       29.834      860.548
07/25/2014  13:50:00      157.319     -290.957      -34.159       66.018       90.876       50.435     4358.414     8258.449     2543.722        6.286        0.758      330.765       23.700        0.005      349.177       29.410      860.568
07/25/2014  13:51:00       79.526     -123.431      -10.124       70.834      105.329       49.916     5017.468    11094.230     2491.637        2.013        0.930      146.832       65.407        0.198      349.284       29.598      860.570
07/25/2014  13:52:00       17.411     -136.202        4.444      134.999       77.510       61.986    18224.711     6007.784     3842.298        2.347        1.404      137.310       66.430        0.234      349.603       30.150      860.532
07/25/2014  13:53:00       81.959       52.395       41.942       82.050       82.922       43.294     6732.167     6876.010     1874.363        1.335        0.774       97.275       42.879        0.194      349.640       30.214      860.528
07/25/2014  13:54:00      -98.227       52.347      -14.173      108.253       50.488       43.648    11718.663     2548.992     1905.173        1.438        0.809      111.305       34.165        0.094      349.446       29.879      860.483
07/25/2014  13:55:00     -201.983       13.459      -15.811       65.467       41.738       33.753     4285.934     1742.044     1139.298        2.420        0.358      202.431       32.435        0.026      349.287       29.600      860.490
07/25/2014  13:56:00        1.241      -99.543        0.039       63.417       47.116       42.604     4021.762     2219.956     1815.071        0.898        0.403       99.551       22.066        0.049      349.614       30.172      860.484
07/25/2014  13:57:00       93.599      -26.060        7.156       66.529       74.401       54.595     4426.167     5535.545     2980.565        1.121        0.647       97.159       43.758        0.203      349.527       30.020      860.476
07/25/2014  13:58:00       70.553     -148.488        8.159       79.635      107.427       60.589     6341.733    11540.460     3671.067        2.432        1.078      164.397       56.631        0.119      349.809       30.507      860.441
07/25/2014  13:59:00       10.523     -103.030       35.369       72.682       77.675       53.111     5282.662     6033.371     2820.825        1.305        0.707      103.566       44.734        0.187      350.053       30.933      860.467
07/25/2014  14:00:00      -39.940      -57.123       25.894       58.784       76.112       36.999     3455.566     5792.994     1368.948        0.807        0.531       69.701       41.863        0.361      350.299       31.361      860.495
07/25/2014  14:01:00     -121.843     -141.476        4.140      113.842       96.839       52.384    12959.974     9377.697     2744.088        2.997        1.254      186.711       39.457        0.045      350.011       30.859      860.527
07/25/2014  14:02:00     -380.785     -143.121      -17.922      130.284      119.124       60.514    16973.889    14190.579     3661.943       10.031        1.741      406.794       66.792        0.027      349.544       30.047      860.495
07/25/2014  14:03:00     -364.625     -212.466      -13.404      116.960       94.929       67.546    13679.609     9011.583     4562.405       10.276        1.363      422.011       64.559        0.023      349.456       29.894      860.461
07/25/2014  14:04:00     -285.977      -83.869        3.303      150.282       88.681       54.137    22584.786     7864.291     2930.814        6.110        1.669      298.021       58.443        0.038      349.694       30.307      860.482
07/25/2014  14:05:00     -118.205     -100.250        5.248      120.114      100.293       46.711    14427.325    10058.775     2181.877        2.535        1.333      154.992       53.519        0.119      349.749       30.404      860.507
07/25/2014  14:06:00      -81.065     -114.479        4.877       59.099      101.021       35.446     3492.691    10205.274     1256.422        1.732        0.748      140.275       40.796        0.085      349.895       30.658      860.506
07/25/2014  14:07:00       75.748     -103.098       15.078       92.507       90.902       57.766     8557.520     8263.185     3336.954        1.837        1.008      127.934       58.959        0.212      350.170       31.135      860.472
07/25/2014  14:08:00      -19.899      -86.788       14.442       55.747       75.747       50.334     3107.756     5737.647     2533.462        0.976        0.569       89.040       32.573        0.134      350.146       31.095      860.457
07/25/2014  14:09:00       -1.621      -44.263       11.221       42.275       65.087       35.097     1787.176     4236.290     1231.817        0.467        0.363       44.293       37.070        0.700      350.100       31.017      860.447
07/25/2014  14:10:00      -67.495     -100.764       -0.240       53.655       62.654       46.477     2878.857     3925.571     2160.085        1.184        0.448      121.281       28.016        0.053      349.953       30.761      860.416
07/25/2014  14:11:00       51.737      -21.368        8.860       52.300      110.275       51.055     2735.288    12160.613     2606.654        1.035        0.875       55.976       58.746        1.101      349.654       30.242      860.409
07/25/2014  14:12:00       -2.519       66.196       42.034       53.062       70.459       41.099     2815.532     4964.411     1689.141        0.781        0.473       66.244       46.165        0.486      349.897       30.663      860.390
07/25/2014  14:13:00        5.492       87.738       12.652       30.948       36.680       36.866      957.763     1345.437     1359.100        0.577        0.183       87.910       25.250        0.082      349.712       30.341      860.393
07/25/2014  14:14:00       11.107       23.872       -1.795       19.140       24.894       26.845      366.325      619.733      720.628        0.120        0.085       26.329       19.237        0.534      349.847       30.575      860.398
07/25/2014  14:15:00     -142.098       65.251      -16.795       50.849       43.655       25.707     2585.609     1905.781      660.865        1.494        0.258      156.363       22.370        0.020      349.468       29.917      860.385
07/25/2014  14:16:00      -34.871       30.261      -14.581       63.584       70.310       42.114     4042.925     4943.468     1773.552        0.655        0.538       46.171       30.378        0.433      349.744       30.397      860.378
07/25/2014  14:17:00      144.778      125.484       24.434       43.468       81.620       64.026     1889.451     6661.816     4099.370        2.497        0.633      191.590       42.533        0.049      349.514       29.994      860.366
07/25/2014  14:18:00       70.588      109.142      123.246       69.824       60.412       54.623     4875.373     3649.627     2983.640        2.179        0.575      129.980       43.163        0.110      349.725       30.364      860.348
07/25/2014  14:19:00      145.811       80.976       75.310       85.027       74.216       62.370     7229.670     5508.031     3890.049        2.506        0.831      166.787       48.327        0.084      349.767       30.433      860.312
07/25/2014  14:20:00      112.817       97.402        8.121       60.765       42.304       55.775     3692.427     1789.663     3110.892        1.544        0.430      149.046       49.949        0.112      349.501       29.974      860.290
07/25/2014  14:21:00       80.744       -4.215       16.249       65.792       92.123       51.016     4328.649     8486.723     2602.621        1.111        0.771       80.854       21.817        0.073      349.774       30.449      860.269
07/25/2014  14:22:00        7.244        8.156       38.911       60.743       86.124       61.512     3689.659     7417.381     3783.776        0.826        0.745       10.908       51.034       21.889      349.935       30.727      860.230
07/25/2014  14:23:00        0.144      -10.575       22.166       34.949       42.875       30.168     1221.451     1838.237      910.131        0.229        0.198       10.576       18.175        2.953      350.276       31.321      860.239
07/25/2014  14:24:00      101.101     -191.726       -9.932       56.814       57.257       33.083     3227.774     3278.363     1094.511        2.734        0.380      216.749       22.848        0.011      349.869       30.611      860.245
07/25/2014  14:25:00       60.195     -178.890       -2.319       62.597       72.461       45.020     3918.393     5250.579     2026.825        2.341        0.560      188.746       41.582        0.049      349.802       30.495      860.242
07/25/2014  14:26:00       56.575       -6.083       49.525       53.881       55.436       47.248     2903.158     3073.177     2232.403        0.695        0.410       56.901       43.867        0.594      350.287       31.340      860.256
07/25/2014  14:27:00       36.698      -36.152       26.214       40.267       56.624       35.279     1621.446     3206.244     1244.621        0.471        0.304       51.514       34.130        0.439      350.265       31.302      860.259
07/25/2014  14:28:00       36.037      -89.768       -4.990       45.404       49.025       28.116     2061.514     2403.474      790.488        0.732        0.263       96.731       18.380        0.036      350.063       30.952      860.273
07/25/2014  14:29:00      -70.742     -117.671       -5.458       77.521       58.275       37.074     6009.543     3395.929     1374.477        1.483        0.539      137.298       31.087        0.051      349.894       30.656      860.290
07/25/2014  14:30:00      -64.378     -173.091       -1.445       89.411       71.001       42.837     7994.366     5041.071     1834.970        2.449        0.744      184.676       44.246        0.057      349.719       30.352      860.290
07/25/2014  14:31:00     -128.322      -31.659       -8.905       68.987       81.953       32.184     4759.171     6716.316     1035.811        1.503        0.626      132.170       28.330        0.046      349.794       30.484      860.258
07/25/2014  14:32:00      -80.978      -63.198       -0.621      104.488       92.627       58.058    10917.804     8579.810     3370.726        1.671        1.143      102.720       55.945        0.297      350.104       31.021      860.252
07/25/2014  14:33:00     -146.271     -118.054        7.354      109.846       97.728       49.975    12066.080     9550.834     2497.528        2.975        1.206      187.968       48.224        0.066      350.098       31.010      860.231
07/25/2014  14:34:00     -225.499     -169.696      -11.432       97.454       84.002       51.085     9497.186     7056.357     2609.685        4.947        0.958      282.217       47.604        0.028      349.507       29.983      860.239
07/25/2014  14:35:00     -138.061      -73.578        8.929       73.815       64.095       39.924     5448.710     4108.219     1593.947        1.785        0.558      156.444       39.070        0.062      349.846       30.572      860.229
07/25/2014  14:36:00      -42.097      -58.483       13.654       50.512       51.608       32.747     2551.491     2663.341     1072.350        0.583        0.314       72.058       31.830        0.195      350.087       30.993      860.218
07/25/2014  14:37:00      -29.094      -80.966       -3.753       41.307       48.393       31.149     1706.305     2341.838      970.261        0.622        0.251       86.035       12.664        0.022      349.950       30.755      860.205
07/25/2014  14:38:00      -86.925      -57.862       -8.921       64.268       65.684       41.298     4130.325     4314.360     1705.509        1.056        0.508      104.421       32.113        0.095      350.087       30.992      860.178
07/25/2014  14:39:00      -69.585        2.887       -9.022       48.409       21.416       23.623     2343.386      458.642      558.069        0.415        0.168       69.645       25.002        0.129      349.731       30.374      860.174
07/25/2014  14:40:00      -55.012       50.328      -19.255       29.389       38.527       28.873      863.723     1484.310      833.645        0.456        0.159       74.560       19.005        0.065      349.628       30.196      860.164
07/25/2014  14:41:00      -70.390       17.049        4.591       50.285       32.580       25.261     2528.590     1061.438      638.109        0.475        0.211       72.425       22.773        0.099      350.310       31.379      860.171
07/25/2014  14:42:00      -56.799     -109.236        1.359       72.998       86.096       29.149     5328.699     7412.514      849.680        1.437        0.680      123.120       35.274        0.082      350.153       31.105      860.193
07/25/2014  14:43:00     -277.998     -204.832       16.412      200.571      124.062       84.339    40228.850    15391.312     7113.031        9.111        3.137      345.310       83.413        0.058      350.111       31.032      860.193
07/25/2014  14:44:00     -389.443     -192.196       -4.568      140.970      118.464       73.089    19872.647    14033.731     5341.970       11.393        1.962      434.287       83.469        0.037      349.789       30.472      860.173
07/25/2014  14:45:00     -181.770      -20.877       -7.551       87.444       77.093       52.245     7646.531     5943.308     2729.562        2.492        0.816      182.965       45.590        0.062      350.165       31.126      860.161
07/25/2014  14:46:00     -174.217      -84.496       -4.420       92.467       94.175       44.913     8550.092     8868.870     2017.141        2.847        0.972      193.626       44.663        0.053      350.150       31.099      860.152
07/25/2014  14:47:00     -156.533      -69.200       10.207      106.617       87.340       40.963    11367.243     7628.247     1677.946        2.503        1.034      171.147       41.926        0.060      350.278       31.323      860.146
07/25/2014  14:48:00      -59.034       46.562        9.792       52.195       93.519       41.422     2724.278     8745.771     1715.796        0.946        0.659       75.186       30.138        0.161      350.369       31.482      860.109
07/25/2014  14:49:00      -64.827      -43.166      -11.393       83.368       79.851       42.027     6950.260     6376.240     1766.241        1.064        0.755       77.883       15.220        0.038      350.489       31.690      860.110
07/25/2014  14:50:00     -126.685     -164.244       -1.539      125.537       82.886       63.455    15759.543     6870.163     4026.569        3.484        1.333      207.425       66.864        0.104      350.402       31.537      860.102
07/25/2014  14:51:00     -342.773     -255.331      -16.512      152.929      117.757       71.531    23387.186    13866.630     5116.638       11.266        2.119      427.420       47.913        0.013      350.319       31.390      860.098
07/25/2014  14:52:00     -216.598     -204.512        6.224      188.866      166.861       95.228    35670.427    27842.456     9068.438        8.067        3.629      297.892      111.436        0.140      350.455       31.629      860.096
07/25/2014  14:53:00     -234.150      -80.310       -7.432      119.783      133.530       54.744    14347.927    17830.239     2996.900        4.825        1.759      247.539       45.839        0.034      350.294       31.350      860.112
07/25/2014  14:54:00     -165.852     -108.548       15.690      165.282      116.362       74.911    27318.188    13540.132     5611.706        4.299        2.324      198.216       90.026        0.206      350.433       31.592      860.098
07/25/2014  14:55:00     -388.530     -154.720      -13.647      241.103      115.586       88.716    58130.465    13360.234     7870.585       12.720        3.968      418.203      107.452        0.066      350.283       31.331      860.065
07/25/2014  14:56:00     -438.583     -188.689      -17.729      189.834      164.916      105.094    36036.968    27197.436    11044.680       15.126        3.714      477.450      112.045        0.055      350.160       31.116      860.052
07/25/2014  14:57:00     -289.468     -138.493      -12.995      138.568       80.554       53.743    19201.164     6488.897     2888.314        6.585        1.429      320.892       43.985        0.019      350.231       31.237      860.056
07/25/2014  14:58:00     -378.842     -117.309      -14.839      184.502      138.062       78.001    34041.075    19061.186     6084.084       10.833        2.959      396.588       80.830        0.042      350.296       31.352      860.057
07/25/2014  14:59:00     -293.806       -6.610      -14.836      153.505      146.575       73.062    23563.914    21484.195     5338.064        6.848        2.519      293.881       76.987        0.069      350.345       31.436      860.013
07/25/2014  15:00:00     -354.858      -89.204        6.263      176.142      110.409       66.926    31026.127    12190.220     4479.144        9.080        2.385      365.898       72.169        0.039      350.437       31.598      860.028
07/25/2014  15:01:00     -302.631     -150.027       -7.435      114.264      105.767       56.551    13056.373    11186.687     3197.970        7.079        1.372      337.778       43.869        0.017      350.429       31.582      860.057
07/25/2014  15:02:00     -361.493     -132.112       -9.067      148.573      136.530       71.292    22074.041    18640.403     5082.551        9.700        2.290      384.878       73.711        0.037      350.292       31.345      860.029
07/25/2014  15:03:00     -381.130     -145.504       -7.660      221.311      155.480       99.253    48978.780    24173.930     9851.252       12.473        4.150      407.960      120.338        0.087      350.215       31.212      860.008
07/25/2014  15:04:00     -367.853     -250.558       -6.617      194.887      159.846       84.042    37980.781    25550.743     7063.081       13.435        3.530      445.079       87.291        0.038      350.016       30.867      860.020
07/25/2014  15:05:00     -319.723      -74.062      -23.076      139.760      105.274       54.265    19532.950    11082.664     2944.672        7.089        1.678      328.188       60.013        0.033      350.350       31.447      860.034
07/25/2014  15:06:00      -72.744      -90.643       18.550       94.619      100.482       55.181     8952.791    10096.667     3044.895        1.797        1.105      116.223       53.883        0.215      350.621       31.920      860.020
07/25/2014  15:07:00     -252.891     -162.064        5.415      168.727      176.941       67.100    28468.919    31307.988     4502.374        7.725        3.214      300.364       56.936        0.036      350.669       32.001      860.013
07/25/2014  15:08:00     -179.504     -113.742        8.298      139.068       71.774       64.120    19339.814     5151.561     4111.343        3.691        1.430      212.507       72.822        0.117      350.416       31.562      860.023
07/25/2014  15:09:00     -156.770     -117.349       23.129      173.250      132.710       70.868    30015.669    17611.901     5022.338        4.576        2.632      195.826       80.259        0.168      350.634       31.942      860.013
07/25/2014  15:10:00     -241.423        6.094       30.052      257.128      152.204      105.001    66114.568    23166.198    11025.187        7.975        5.015      241.500      136.868        0.321      350.757       32.156      860.022
07/25/2014  15:11:00     -610.092     -106.314      -37.351      233.226      129.620       85.274    54394.456    16801.223     7271.661       23.167        3.923      619.285      109.689        0.031      350.060       30.943      860.092
07/25/2014  15:12:00     -328.334      -49.205      -16.727      156.576       99.922       60.198    24516.192     9984.494     3623.772        7.431        1.906      332.000       60.805        0.034      349.906       30.675      860.111
07/25/2014  15:13:00      -97.005       -5.161       10.072      103.485       67.489       39.639    10709.226     4554.734     1571.256        1.318        0.842       97.142       40.638        0.175      350.196       31.181      860.048
07/25/2014  15:14:00     -248.555       18.201      -10.958      158.017      105.602       61.373    24969.428    11151.725     3766.662        5.105        1.994      249.221       68.801        0.076      350.326       31.404      860.037
07/25/2014  15:15:00     -202.284      -45.358       -4.591       86.184       89.872       57.832     7427.637     8076.949     3344.537        3.092        0.942      207.307       39.314        0.036      350.288       31.338      860.012
07/25/2014  15:16:00      -76.727       67.989       19.255      135.563      124.547       68.841    18377.252    15511.853     4739.045        2.475        1.931      102.516       42.835        0.175      350.257       31.287      859.982
07/25/2014  15:17:00     -182.350       38.771      -14.030      120.121      154.558       63.843    14429.170    23888.087     4075.985        3.866        2.120      186.426       56.234        0.091      350.226       31.232      859.984
07/25/2014  15:18:00     -258.716       33.082      -42.151      140.335       92.106       51.049    19693.882     8483.549     2606.046        5.029        1.539      260.823       54.670        0.044      350.449       31.620      860.000
07/25/2014  15:19:00     -374.632     -106.648       -0.898      178.666      157.406       89.371    31921.697    24776.544     7987.196       10.819        3.234      389.516       96.304        0.061      350.302       31.363      859.955
07/25/2014  15:20:00     -350.745      -17.812      -23.421      125.294      128.229       59.896    15698.707    16442.755     3587.549        7.980        1.786      351.197       64.169        0.033      350.043       30.911      859.937
07/25/2014  15:21:00     -265.532      -85.575      -17.549      128.506      135.207       54.596    16513.896    18280.946     2980.735        5.795        1.889      278.981       56.387        0.041      350.382       31.502      859.911
07/25/2014  15:22:00     -331.106     -126.275       -8.163      142.942      120.441       66.993    20432.285    14505.949     4488.115        8.253        1.971      354.368       65.584        0.034      350.500       31.707      859.905
07/25/2014  15:23:00     -273.368       -1.841      -22.309      113.653       68.966       54.395    12917.002     4756.286     2958.837        4.793        1.032      273.374       62.491        0.052      350.579       31.846      859.927
07/25/2014  15:24:00     -217.834      -11.655       12.504      145.366      185.340       72.156    21131.391    34350.958     5206.493        5.420        3.034      218.145       62.348        0.082      350.901       32.407      859.908
07/25/2014  15:25:00     -227.721     -104.665       12.820      163.891      166.249       80.838    26860.150    27638.568     6534.835        6.199        3.052      250.622       89.301        0.127      350.766       32.171      859.930
07/25/2014  15:26:00     -155.151      -58.044       17.026      140.684      123.291       62.164    19791.904    15200.757     3864.421        3.329        1.943      165.653       58.746        0.126      350.691       32.040      859.934
07/25/2014  15:27:00     -144.379      -79.433       15.786      112.123       86.013       48.263    12571.587     7398.165     2329.361        2.485        1.115      164.787       50.446        0.094      350.465       31.648      859.902
07/25/2014  15:28:00       -5.380       16.978       35.130       71.669       45.710       45.106     5136.383     2089.403     2034.535        0.540        0.463       17.810       30.487        2.930      351.016       32.608      859.869
07/25/2014  15:29:00     -275.862       49.863      -26.536      140.312      118.126       60.222    19687.451    13953.805     3626.688        5.827        1.863      280.332       58.904        0.044      350.540       31.777      859.862
07/25/2014  15:30:00     -129.890     -146.624      -15.309      178.180       96.126       63.101    31748.136     9240.279     3981.700        4.178        2.249      195.883       75.974        0.150      350.533       31.763      859.829
07/25/2014  15:31:00     -253.979     -120.325       -5.288      114.544       93.085       58.272    13120.426     8664.825     3395.606        5.209        1.259      281.039       56.992        0.041      350.724       32.096      859.839
07/25/2014  15:32:00     -329.585     -172.366       -7.868      156.408      126.589       73.947    24463.495    16024.728     5468.150        9.217        2.298      371.936       75.834        0.042      350.556       31.805      859.843
07/25/2014  15:33:00     -226.042        2.760       -7.589      123.948      106.455       54.541    15363.009    11332.570     2974.710        4.041        1.484      226.058       62.663        0.077      350.865       32.342      859.833
07/25/2014  15:34:00     -483.628     -127.528      -26.290      178.270      158.122       80.451    31780.121    25002.722     6472.406       15.704        3.163      500.159       71.202        0.020      350.330       31.410      859.820
07/25/2014  15:35:00     -242.688      -11.436       -1.651      154.324      147.069       69.007    23815.962    21629.239     4762.027        5.461        2.510      242.957       69.375        0.082      350.561       31.813      859.814
07/25/2014  15:36:00     -255.846      -86.524       -6.872      198.580      126.717       75.130    39433.818    16057.238     5644.582        6.705        3.057      270.081       76.085        0.079      350.658       31.983      859.806
07/25/2014  15:37:00     -274.462      -12.704      -12.319      224.561      107.738       73.523    50427.732    11607.583     5405.592        7.153        3.372      274.756      101.340        0.136      350.712       32.077      859.807
07/25/2014  15:38:00     -278.328      -94.988       15.648      203.820      152.148       86.567    41542.695    23148.927     7493.905        7.945        3.609      294.091      102.294        0.121      350.672       32.007      859.782
07/25/2014  15:39:00     -403.370        5.794      -12.348      206.579      166.752       96.389    42675.057    27806.107     9290.833       12.132        3.989      403.412      100.369        0.062      350.580       31.846      859.794
07/25/2014  15:40:00     -494.886      -18.140      -34.258      252.825      134.721       89.636    63920.269    18149.702     8034.568       16.824        4.505      495.218      108.239        0.048      350.456       31.630      859.795
07/25/2014  15:41:00     -446.916     -132.592      -26.587      178.260      134.088       77.272    31776.593    17979.523     5970.918       13.686        2.786      466.170       73.192        0.025      350.581       31.849      859.812
07/25/2014  15:42:00     -208.477      -46.340        0.343      180.008      130.987       66.301    32402.900    17157.691     4395.844        4.977        2.698      213.565       87.337        0.167      350.864       32.341      859.815
07/25/2014  15:43:00     -322.639      -91.729       -1.279      199.490      150.235       75.447    39796.389    22570.694     5692.199        9.027        3.403      335.425       97.661        0.085      350.667       31.998      859.812
07/25/2014  15:44:00     -292.977      -69.685        4.504      138.064      134.966       70.076    19061.541    18215.828     4910.675        6.644        2.109      301.150       66.530        0.049      350.759       32.157      859.806
07/25/2014  15:45:00     -263.037      -63.017      -18.256      147.321      134.007       61.500    21703.433    17957.745     3782.253        5.846        2.172      270.480       71.252        0.069      350.775       32.186      859.798
07/25/2014  15:46:00     -315.349      -56.723      -13.498      209.417      144.073       81.385    43855.421    20757.054     6623.518        8.703        3.562      320.410      105.375        0.108      350.704       32.062      859.819
07/25/2014  15:47:00     -205.802     -312.849        2.067      181.034      188.447       72.414    32773.399    35512.152     5243.812       10.687        3.676      374.471       69.949        0.035      350.074       30.965      859.778
07/25/2014  15:48:00     -339.061     -256.689      -16.750      169.389      182.622       84.170    28692.654    33350.933     7084.624       12.512        3.456      425.266       63.791        0.023      350.443       31.608      859.753
07/25/2014  15:49:00     -262.582      -55.085       -1.630      202.293      161.266       76.090    40922.304    26006.680     5789.686        7.234        3.636      268.297       66.248        0.061      350.507       31.720      859.833
07/25/2014  15:50:00     -321.225      -84.691       -2.188      244.540      149.224       75.211    59800.018    22267.879     5656.626        9.903        4.386      332.202       95.852        0.083      350.230       31.237      859.835
07/25/2014  15:51:00     -424.925     -265.222      -18.392      295.160      194.844      111.659    87119.344    37964.379    12467.796       19.437        6.878      500.903      131.810        0.069      350.182       31.156      859.746
07/25/2014  15:52:00     -340.728     -155.364       -7.679      232.169      199.822      107.653    53902.382    39928.790    11589.135       12.284        5.271      374.478      106.476        0.081      350.461       31.639      859.745
07/25/2014  15:53:00     -267.075      -54.409        0.299      147.227      125.683       74.718    21675.927    15796.270     5582.721        5.866        2.153      272.561       71.960        0.070      350.589       31.862      859.839
07/25/2014  15:54:00     -370.173     -138.168      -24.342      211.497      184.853       84.543    44730.877    34170.576     7147.582       12.136        4.302      395.118       90.977        0.053      350.492       31.694      859.830
07/25/2014  15:55:00     -482.935     -143.187      -34.536      246.063      158.483      101.776    60547.122    25116.817    10358.335       17.545        4.801      503.715      107.036        0.045      350.267       31.303      859.799
07/25/2014  15:56:00     -525.885     -220.714      -18.108      221.067      212.976      104.324    48870.682    45358.847    10883.519       21.533        5.256      570.324      117.542        0.042      350.203       31.190      859.803
07/25/2014  15:57:00     -532.721      -99.304      -17.751      150.276      176.242       84.647    22582.818    31061.291     7165.112       17.738        3.040      541.898       82.731        0.023      350.137       31.075      859.821
07/25/2014  15:58:00     -291.771     -104.181      -14.773      179.893      133.514       66.887    32361.422    17825.912     4473.872        7.542        2.733      309.812       76.980        0.062      350.153       31.104      859.794
07/25/2014  15:59:00     -239.048     -121.853        2.301      150.370      112.373       68.454    22610.993    12627.785     4685.922        5.595        1.996      268.313       77.131        0.083      350.452       31.624      859.783
07/25/2014  16:00:00     -393.738      -91.270      -18.418      120.093      117.197       67.651    14422.285    13735.069     4576.667        9.821        1.637      404.178       52.218        0.017      350.571       31.829      859.814
07/25/2014  16:01:00     -320.934      -76.280       -1.167      206.263      117.814       75.040    42544.537    13880.104     5631.017        8.542        3.103      329.875       97.794        0.088      350.471       31.656      859.797
07/25/2014  16:02:00     -327.536        8.837      -31.902      136.412      119.932       66.381    18608.171    14383.588     4406.386        7.288        1.870      327.655       59.649        0.033      350.378       31.495      859.789
07/25/2014  16:03:00     -506.943      -46.271      -47.465      161.769      131.807       71.273    26169.259    17373.110     5079.802       15.499        2.431      509.050       80.556        0.025      350.301       31.362      859.757
07/25/2014  16:04:00     -365.049       38.580      -21.800      172.261      107.633       55.432    29673.701    11584.886     3072.739        8.977        2.217      367.082       70.956        0.037      350.344       31.435      859.771
07/25/2014  16:05:00     -226.030       -1.225       -2.600      180.090      116.988       54.348    32432.266    13686.092     2953.754        5.008        2.454      226.034       73.917        0.107      350.423       31.572      859.756
07/25/2014  16:06:00     -427.900     -168.142      -11.827      140.263      128.068       76.386    19673.785    16401.325     5834.802       12.670        2.095      459.750       75.154        0.027      350.258       31.286      859.748
07/25/2014  16:07:00     -325.365      -73.034       -8.587      143.143      104.389       58.894    20489.869    10897.072     3468.484        7.306        1.743      333.461       58.374        0.031      350.185       31.160      859.756
07/25/2014  16:08:00     -216.786      -88.632        3.367      135.385      118.174       66.925    18329.153    13965.156     4479.004        4.581        1.839      234.205       55.243        0.056      350.284       31.332      859.761
07/25/2014  16:09:00     -226.110     -173.527       -3.775      130.131      186.536       66.804    16934.168    34795.838     4462.748        6.871        2.810      285.022       47.554        0.028      350.380       31.499      859.739
07/25/2014  16:10:00     -451.185     -269.873      -24.271      173.477      125.176       74.703    30094.124    15669.119     5580.602       16.416        2.567      525.737       70.922        0.018      350.238       31.251      859.746
07/25/2014  16:11:00     -359.013     -247.312       -7.159      191.372      130.169       74.943    36623.361    16943.867     5616.504       12.463        2.959      435.951       78.066        0.032      350.087       30.990      859.750
07/25/2014  16:12:00     -397.835     -179.477      -16.623      157.324      171.697       81.527    24750.907    29479.940     6646.625       12.581        3.044      436.446       96.133        0.049      350.272       31.309      859.716
07/25/2014  16:13:00     -212.955      -55.946       11.105      127.399      117.012       72.710    16230.599    13691.712     5286.804        4.190        1.760      220.181       64.638        0.086      350.750       32.142      859.720
07/25/2014  16:14:00     -380.580     -107.980       -8.946      199.485      172.803       78.236    39794.235    29860.725     6120.798       11.616        3.789      395.602       72.279        0.033      350.668       31.998      859.730
07/25/2014  16:15:00     -445.929     -180.737      -11.776      247.715      155.198       90.894    61362.617    24086.533     8261.683       16.267        4.686      481.164      109.479        0.052      350.252       31.276      859.750
07/25/2014  16:16:00     -319.806     -279.756       -0.501      239.294      182.817      113.064    57261.814    33422.092    12783.468       14.198        5.173      424.899      131.201        0.095      350.070       30.960      859.747
07/25/2014  16:17:00     -169.695     -113.033       15.830      154.217       92.007       69.106    23782.969     8465.322     4775.575        3.942        1.851      203.895       88.923        0.190      350.198       31.182      859.766
07/25/2014  16:18:00     -157.122     -104.178        0.154      110.368       89.397       59.553    12181.029     7991.889     3546.590        2.963        1.186      188.521       46.448        0.061      350.297       31.354      859.764
07/25/2014  16:19:00     -315.865     -185.408       10.587      224.113      173.075      102.171    50226.505    29955.004    10438.839       11.242        4.531      366.261      110.093        0.090      350.213       31.207      859.720
07/25/2014  16:20:00     -296.082     -256.051       -4.694      149.924      115.663       71.090    22477.292    13377.837     5053.847        9.707        2.045      391.442       75.591        0.037      350.187       31.163      859.733
07/25/2014  16:21:00     -211.843      -81.509       13.370      135.986      120.547       63.243    18492.129    14531.604     3999.740        4.435        1.851      226.983       72.777        0.103      350.370       31.482      859.749
07/25/2014  16:22:00     -333.984       14.426        1.929      199.332      149.825       85.543    39733.443    22447.650     7317.678        9.061        3.475      334.296       94.306        0.080      350.293       31.346      859.719
07/25/2014  16:23:00     -196.645      -32.754       15.600      142.895      105.604       63.958    20419.057    11152.166     4090.597        3.782        1.783      199.354       66.107        0.110      350.651       31.971      859.715
07/25/2014  16:24:00     -388.745      -86.184      -24.112      154.219      134.423       71.238    23783.628    18069.604     5074.793       10.302        2.346      398.184       68.087        0.029      350.532       31.762      859.725
07/25/2014  16:25:00     -182.111     -103.501       10.877      158.364      156.144       68.982    25079.129    24380.839     4758.479        4.910        2.711      209.468       70.451        0.113      350.595       31.874      859.710
07/25/2014  16:26:00      -93.996      -64.380       32.943      157.436      130.358       85.005    24786.239    16993.256     7225.842        3.153        2.450      113.930       78.317        0.473      350.718       32.087      859.689
07/25/2014  16:27:00     -558.785     -175.438       -9.217      251.167      158.367       98.228    63084.836    25080.259     9648.780       22.044        4.891      585.679      113.563        0.038      350.209       31.202      859.696
07/25/2014  16:28:00     -383.821     -111.498       -5.704      283.778      154.899       92.707    80529.839    23993.823     8594.573       13.643        5.656      399.688      119.845        0.090      350.369       31.479      859.700
07/25/2014  16:29:00     -208.205     -122.184       -3.736      176.940      135.995       79.396    31307.795    18494.509     6303.726        5.719        2.805      241.409       85.863        0.127      350.585       31.855      859.724
07/25/2014  16:30:00     -234.696     -107.052        2.211      147.803      103.062       70.295    21845.754    10621.765     4941.429        5.197        1.870      257.958       68.959        0.071      350.534       31.767      859.729
07/25/2014  16:31:00     -387.201     -171.659       -0.339      213.979      147.971       94.332    45786.853    21895.389     8898.551       12.797        3.829      423.546      105.798        0.062      350.465       31.646      859.738
07/25/2014  16:32:00     -335.992     -120.539        0.587      227.936      136.944       79.579    51954.703    18753.674     6332.777       10.222        3.852      356.960       86.965        0.059      350.471       31.657      859.751
07/25/2014  16:33:00     -324.212      -51.741        4.619      160.041      167.320       81.433    25613.068    27996.029     6631.397        8.401        3.012      328.315       75.505        0.053      350.494       31.696      859.744
07/25/2014  16:34:00     -239.153     -206.273       -0.487      154.129      126.103       73.724    23755.620    15901.903     5435.161        7.241        2.255      315.821       62.867        0.040      350.444       31.608      859.754
07/25/2014  16:35:00     -370.606     -289.292       -6.779      208.200      189.342       87.651    43347.232    35850.225     7682.653       15.396        4.344      470.147       91.037        0.037      350.145       31.089      859.720
07/25/2014  16:36:00     -455.646     -144.757      -19.253      213.941      168.288       82.044    45770.915    28320.837     6731.160       15.486        4.041      478.087       92.445        0.037      350.189       31.166      859.729
07/25/2014  16:37:00     -432.209     -290.920      -26.178      187.271      166.196       89.883    35070.540    27621.095     8078.920       17.143        3.539      520.998       95.880        0.034      350.042       30.910      859.735
07/25/2014  16:38:00     -246.653      -84.681        6.702      181.848      141.275       80.829    33068.577    19958.752     6533.316        6.380        2.978      260.784       86.295        0.109      350.347       31.442      859.719
07/25/2014  16:39:00     -437.204     -122.942      -11.075      146.443      146.906       73.191    21445.610    21581.482     5356.932       12.737        2.419      454.161       59.727        0.017      350.266       31.300      859.723
07/25/2014  16:40:00     -323.218      -81.935       -3.140      191.632      133.177       74.415    36722.663    17736.178     5537.537        8.558        3.000      333.442       84.470        0.064      350.462       31.641      859.720
07/25/2014  16:41:00     -570.953      -32.423      -66.226      136.520      113.867       78.454    18637.843    12965.648     6155.074       18.458        1.888      571.872       57.359        0.010      350.085       30.987      859.703
07/25/2014  16:42:00     -289.429     -109.229       -8.091      143.005      143.544       67.768    20450.512    20604.969     4592.509        7.070        2.282      309.354       72.231        0.055      350.366       31.473      859.708
07/25/2014  16:43:00     -142.766      -63.520       10.056      147.450      131.524       77.860    21741.357    17298.668     6062.237        3.480        2.255      156.259       81.161        0.270      350.488       31.687      859.709
07/25/2014  16:44:00     -307.346     -133.883      -11.240      206.497      155.081       84.687    42640.841    24050.181     7171.847        9.317        3.693      335.241       85.732        0.065      350.338       31.426      859.681
07/25/2014  16:45:00     -578.469      -31.615       -3.199      339.587      227.644      134.715   115319.429    51821.700    18148.245       26.043        9.264      579.332      161.521        0.078      350.248       31.268      859.671
07/25/2014  16:46:00     -672.778     -107.475      -24.582      232.898      172.076      114.145    54241.291    29610.065    13029.013       28.081        4.844      681.309      121.158        0.032      350.153       31.103      859.671
07/25/2014  16:47:00     -524.549     -187.006      -24.338      250.449      202.118      103.959    62724.664    40851.822    10807.374       21.253        5.719      556.886      126.005        0.051      350.158       31.113      859.671
07/25/2014  16:48:00     -365.960     -146.704        3.427      207.586      125.268       86.306    43091.948    15691.987     7448.703       11.083        3.312      394.270       95.296        0.058      350.411       31.553      859.667
07/25/2014  16:49:00     -472.381      -27.215      -31.309      196.806      159.913       78.478    38732.738    25572.218     6158.835       14.765        3.523      473.164       92.732        0.038      350.357       31.459      859.685
07/25/2014  16:50:00     -326.204      -55.896      -21.357      173.785      126.773       67.695    30201.212    16071.469     4582.675        8.041        2.543      330.959       87.095        0.069      350.439       31.602      859.687
07/25/2014  16:51:00     -374.281      -84.091       -6.622      214.373      122.307       67.763    45955.684    14958.915     4591.809       10.634        3.275      383.611       70.467        0.034      350.475       31.663      859.676
07/25/2014  16:52:00     -312.136     -178.352       -3.451      218.081      154.177       90.895    47559.416    23770.515     8261.889       10.441        3.980      359.498      115.616        0.103      350.511       31.726      859.690
07/25/2014  16:53:00     -454.841     -316.147      -14.620      245.410      177.769      116.013    60226.199    31601.809    13459.011       20.614        5.264      553.922      130.598        0.056      350.199       31.183      859.690
07/25/2014  16:54:00     -307.989     -285.994        7.281      220.298      192.265      114.928    48531.397    36965.925    13208.419       13.768        4.935      420.297      130.160        0.096      350.095       31.002      859.674
07/25/2014  16:55:00     -323.017     -256.246        2.334      231.069      159.641      101.430    53392.676    25485.370    10287.955       12.957        4.458      412.313      124.422        0.091      350.254       31.281      859.690
07/25/2014  16:56:00     -375.366     -210.522       -1.175      156.437      123.356       74.083    24472.688    15216.635     5488.230       11.519        2.259      430.371       74.582        0.030      350.346       31.438      859.734
07/25/2014  16:57:00     -348.202     -162.821        5.849      180.958      154.088       81.978    32745.849    23743.205     6720.346       10.549        3.160      384.389       88.443        0.053      350.068       30.955      859.712
07/25/2014  16:58:00     -345.947      -56.027      -20.913      178.932      127.324       63.756    32016.664    16211.518     4064.828        8.776        2.615      350.454       67.181        0.037      350.239       31.253      859.687
07/25/2014  16:59:00     -407.125     -258.052        3.070      247.237      227.578      110.876    61126.016    51791.610    12293.533       17.876        6.261      482.018      125.875        0.068      350.162       31.119      859.694
07/25/2014  17:00:00     -424.257     -271.107      -17.768      257.563      158.616      103.166    66338.572    25159.080    10643.145       17.795        5.107      503.481      119.738        0.057      350.076       30.970      859.680
07/25/2014  17:01:00     -371.791     -238.057       14.223      200.713      148.001       93.137    40285.557    21904.317     8674.504       13.297        3.543      441.474       92.115        0.044      350.167       31.129      859.689
07/25/2014  17:02:00     -385.451     -225.008       -1.650      131.296      156.035       71.887    17238.723    24347.006     5167.678       12.297        2.338      446.320       72.792        0.027      350.216       31.212      859.689
07/25/2014  17:03:00     -513.777      -21.224      -18.992      286.152      221.559       92.774    81882.971    49088.275     8607.009       20.215        6.979      514.215      111.847        0.047      350.275       31.315      859.685
07/25/2014  17:04:00     -355.033     -128.955       10.240      217.798      184.877       90.980    47435.903    34179.687     8277.369       11.632        4.495      377.727      107.850        0.082      350.296       31.353      859.676
07/25/2014  17:05:00     -313.985     -154.864       15.625      210.553      179.637       89.918    44332.698    32269.348     8085.286       10.373        4.234      350.100      107.224        0.094      350.310       31.378      859.693
07/25/2014  17:06:00     -374.643     -278.630       -9.167      206.887      170.242      102.315    42802.043    28982.214    10468.358       15.015        4.113      466.896      113.595        0.059      350.120       31.046      859.703
07/25/2014  17:07:00     -326.121     -178.899        1.489      216.588      174.511       81.460    46910.176    30454.070     6635.695       11.116        4.200      371.967      108.171        0.085      350.164       31.124      859.690
07/25/2014  17:08:00     -367.106     -197.652        4.115      228.195      193.856       99.822    52073.146    37580.068     9964.466       13.671        4.981      416.933       98.907        0.056      350.219       31.217      859.701
07/25/2014  17:09:00     -560.396     -267.038      -25.313      222.920      185.900      106.231    49693.398    34558.818    11285.032       24.075        4.777      620.768      109.062        0.031      350.006       30.848      859.708
07/25/2014  17:10:00     -489.939     -300.829      -13.937      258.986      235.606      121.821    67073.778    55510.403    14840.288       23.405        6.871      574.924      140.368        0.060      349.974       30.793      859.693
07/25/2014  17:11:00     -356.383        7.135      -26.398      180.538      193.006       79.796    32594.068    37251.427     6367.388       10.197        3.811      356.455       69.569        0.038      350.166       31.125      859.735
07/25/2014  17:12:00     -622.510     -170.510      -36.746      271.493      224.712      101.896    73708.318    50495.580    10382.749       27.624        6.729      645.440      113.741        0.031      350.075       30.970      859.707
07/25/2014  17:13:00     -564.659      -94.408       -6.529      211.149      159.353       97.019    44584.075    25393.224     9412.758       20.358        3.970      572.497      115.473        0.041      350.063       30.948      859.714
07/25/2014  17:14:00     -521.797      -89.786      -41.688      192.836      138.766       91.773    37185.534    19256.102     8422.349       17.346        3.243      529.466       88.397        0.028      350.085       30.985      859.738
07/25/2014  17:15:00     -577.296      -77.331      -18.248      205.032      143.690       80.091    42038.195    20646.822     6414.557       20.433        3.455      582.452       84.246        0.021      350.090       30.993      859.727
07/25/2014  17:16:00     -321.893      -69.509      -22.101      135.606      137.337       68.522    18388.875    18861.425     4695.248        7.543        2.097      329.312       68.943        0.044      350.182       31.155      859.729
07/25/2014  17:17:00     -234.188      -67.793       19.838      190.979      107.341       69.963    36472.847    11522.190     4894.853        5.635        2.644      243.803      101.346        0.173      350.242       31.260      859.721
07/25/2014  17:18:00     -229.377     -173.802        3.795      165.411      133.197       78.780    27360.936    17741.317     6206.260        6.706        2.565      287.787       84.363        0.086      350.265       31.300      859.733
07/25/2014  17:19:00     -454.585     -196.598      -28.556      220.896      111.145       84.316    48794.899    12353.180     7109.226       15.717        3.413      495.276      103.159        0.043      350.060       30.943      859.716
07/25/2014  17:20:00     -358.556     -218.687      -18.432      179.791      149.421       75.292    32324.675    22326.644     5668.829       11.851        3.016      419.984       71.014        0.029      350.079       30.974      859.729
07/25/2014  17:21:00     -279.498     -133.394      -15.318      176.180      120.936       78.054    31039.270    14625.510     6092.389        7.394        2.588      309.698       75.281        0.059      350.326       31.404      859.731
07/25/2014  17:22:00     -412.616      -68.635      -31.139      251.119      202.833       85.265    63061.001    41141.254     7270.081       14.368        5.574      418.285       98.905        0.056      350.283       31.329      859.729
07/25/2014  17:23:00     -264.687      -26.057        6.087      159.251      158.373       87.506    25361.020    25082.140     7657.233        6.443        2.905      265.966       90.833        0.117      350.196       31.177      859.707
07/25/2014  17:24:00     -366.130      -24.561      -17.858      186.990      185.630       73.964    34965.386    34458.467     5470.685       10.492        3.745      366.953       86.495        0.056      350.157       31.110      859.708
07/25/2014  17:25:00     -261.932      -20.291        1.360      154.325       97.250       61.496    23816.311     9457.597     3781.708        5.303        1.853      262.717       75.314        0.082      350.385       31.508      859.693
07/25/2014  17:26:00     -263.545       -6.519       -9.810      143.600      103.042       62.545    20620.959    10617.625     3911.894        5.237        1.758      263.626       52.558        0.040      350.436       31.596      859.675
07/25/2014  17:27:00     -487.429      -13.214      -50.555      344.050      127.218       88.815   118370.422    16184.506     7888.026       19.135        7.122      487.608      133.309        0.075      350.202       31.190      859.652
07/25/2014  17:28:00     -722.520     -133.752      -43.897      355.285      225.433      132.521   126227.408    50820.195    17561.803       36.819        9.730      734.795      178.686        0.059      350.045       30.916      859.611
07/25/2014  17:29:00     -525.023     -134.456      -29.417      227.788      173.834       80.991    51887.261    30218.301     6559.553       19.161        4.433      541.966       95.822        0.031      350.102       31.015      859.669
07/25/2014  17:30:00     -183.788      -45.281        7.926      147.670      121.708       61.085    21806.411    14812.731     3731.360        3.811        2.018      189.284       57.683        0.093      350.307       31.372      859.678
07/25/2014  17:31:00     -532.563     -132.050      -34.654      170.486      164.061       78.241    29065.386    26916.131     6121.688       18.217        3.105      548.690       73.359        0.018      350.200       31.186      859.684
07/25/2014  17:32:00     -398.117     -109.959        2.394      228.079      165.014       95.707    52020.042    27229.576     9159.912       12.948        4.420      413.024      107.275        0.067      350.126       31.057      859.696
07/25/2014  17:33:00     -501.958     -101.978      -36.101      208.339      131.861       79.591    43404.994    17387.264     6334.795       16.538        3.356      512.213       94.255        0.034      349.958       30.764      859.696
07/25/2014  17:34:00     -723.557     -232.649      -45.996      220.294      266.224      111.290    48529.277    70875.151    12385.449       35.576        6.589      760.040      108.724        0.020      349.956       30.761      859.707
07/25/2014  17:35:00     -456.069     -204.201       -8.923      232.114      210.204      108.021    53876.920    44185.629    11668.568       17.973        5.487      499.696      124.570        0.062      350.043       30.912      859.726
07/25/2014  17:36:00     -411.845        5.179      -24.530      133.571      178.997       74.076    17841.107    32039.883     5487.262       11.280        2.768      411.877       64.649        0.025      350.196       31.178      859.745
07/25/2014  17:37:00     -517.057     -118.134      -12.906      215.036      180.075       91.579    46240.326    32427.078     8386.700       18.424        4.353      530.380      108.188        0.042      350.192       31.172      859.712
07/25/2014  17:38:00     -399.301     -126.315       -3.414      193.679      182.964       86.200    37511.523    33475.803     7430.418       12.690        3.921      418.803       95.342        0.052      350.191       31.170      859.739
07/25/2014  17:39:00     -556.575     -150.764      -26.916      284.344      185.920      104.986    80851.657    34566.333    11021.963       22.981        6.322      576.633      130.046        0.051      349.933       30.722      859.746
07/25/2014  17:40:00     -280.789      -59.067       -5.294      205.110      140.362       82.000    42070.263    19701.385     6724.076        7.541        3.425      286.935       98.502        0.118      350.081       30.979      859.773
07/25/2014  17:41:00     -222.866     -157.138       -9.306      217.546      145.952       87.601    47326.180    21302.013     7673.890        7.536        3.815      272.694       98.386        0.130      350.068       30.957      859.765
07/25/2014  17:42:00     -248.256     -148.328      -10.390      162.343      146.913       81.149    26355.172    21583.497     6585.124        6.912        2.726      289.193       75.368        0.068      350.046       30.917      859.752
07/25/2014  17:43:00     -225.049     -187.574        9.534      191.164      157.554       77.390    36543.752    24823.380     5989.224        7.663        3.368      292.969       97.864        0.112      349.912       30.684      859.714
07/25/2014  17:44:00     -428.141      -70.818      -31.793      188.519      138.191       79.154    35539.558    19096.783     6265.327       12.510        3.045      433.959       89.294        0.042      349.992       30.824      859.708
07/25/2014  17:45:00     -349.152      -33.890      -26.705      130.457      134.942       73.832    17019.081    18209.314     5451.229        8.222        2.034      350.793       58.711        0.028      350.153       31.103      859.716
07/25/2014  17:46:00     -264.666      -70.440       -5.517      165.457      117.050       76.951    27376.136    13700.811     5921.478        6.101        2.350      273.879       84.482        0.095      350.125       31.055      859.700
07/25/2014  17:47:00     -293.853      -46.940       -0.475      122.245       89.022       58.057    14943.916     7924.981     3370.598        5.739        1.312      297.578       59.075        0.039      350.226       31.230      859.698
07/25/2014  17:48:00     -385.038     -110.631      -22.078      176.340      122.243       68.082    31095.757    14943.403     4635.121       10.582        2.534      400.617       75.341        0.035      350.301       31.362      859.707
07/25/2014  17:49:00     -266.534     -119.395       16.737      138.999      164.887       81.036    19320.610    27187.606     6566.882        6.932        2.654      292.055       85.697        0.086      350.301       31.360      859.734
07/25/2014  17:50:00     -350.360      -66.726      -13.788      204.139      145.794       84.821    41672.600    21255.925     7194.567        9.874        3.506      356.657       84.608        0.056      350.157       31.111      859.725
07/25/2014  17:51:00     -299.925      -87.579       -9.871      142.439      118.788       71.067    20288.762    14110.525     5050.516        6.858        1.972      312.450       77.537        0.062      350.194       31.176      859.729
07/25/2014  17:52:00     -249.414     -213.272       10.250      159.272      137.503       84.815    25367.420    18907.172     7193.652        7.962        2.573      328.165       83.509        0.065      350.006       30.848      859.721
07/25/2014  17:53:00     -364.279     -167.599       -1.266      193.576      172.395       82.573    37471.766    29719.892     6818.228       11.739        3.700      400.984      108.755        0.074      349.944       30.742      859.691
07/25/2014  17:54:00     -313.993     -125.958       -6.499      157.253      144.396       77.895    24728.471    20850.087     6067.583        8.306        2.582      338.315       82.325        0.059      350.079       30.977      859.701
07/25/2014  17:55:00     -364.367      -19.319      -13.061      177.385      176.163       83.950    31465.520    31033.511     7047.640       10.141        3.477      364.879       79.849        0.048      350.147       31.094      859.725
07/25/2014  17:56:00     -385.126      -94.668      -12.184      162.236      149.289       85.172    26320.671    22287.147     7254.278       10.664        2.793      396.591       64.806        0.027      350.000       30.838      859.719
07/25/2014  17:57:00     -346.413      -53.246        2.817      166.134      144.229       70.229    27600.458    20801.944     4932.131        8.808        2.667      350.481       79.961        0.052      349.974       30.793      859.692
07/25/2014  17:58:00     -430.658      -83.144      -24.008      121.645      106.282       69.244    14797.426    11295.798     4794.761       11.192        1.544      438.611       68.032        0.024      350.017       30.867      859.674
07/25/2014  17:59:00     -398.136     -101.373       -6.591      260.857      174.591       91.171    68046.444    30481.952     8312.130       13.781        5.342      410.839      122.313        0.089      350.124       31.053      859.683
07/25/2014  18:00:00     -523.515     -145.541      -16.517      211.723      156.787       87.960    44826.782    24582.043     7736.966       18.632        3.857      543.370       95.148        0.031      349.983       30.808      859.681
07/25/2014  18:01:00     -532.216     -211.260      -15.784      188.685      187.203       94.122    35602.145    35044.945     8858.983       20.380        3.975      572.612      102.170        0.032      349.902       30.666      859.659
07/25/2014  18:02:00     -324.553      -53.720       -7.857      217.633      202.545       81.286    47364.015    41024.339     6607.470       10.162        4.750      328.969       94.158        0.082      350.042       30.911      859.710
07/25/2014  18:03:00     -362.548      -91.862      -12.914      183.211      158.611       88.561    33566.123    25157.586     7843.002       10.329        3.328      374.005       86.125        0.053      350.003       30.843      859.710
07/25/2014  18:04:00     -382.688     -178.136      -13.704      206.067      171.017       89.347    42463.695    29246.729     7982.959       12.902        3.985      422.117      104.682        0.062      349.892       30.650      859.716
07/25/2014  18:05:00     -332.220     -193.966      -10.187      178.163      155.854       91.607    31742.210    24290.469     8391.822       10.625        3.221      384.698       94.438        0.060      349.880       30.630      859.706
07/25/2014  18:06:00     -340.667     -189.733      -22.997      197.402      143.413       83.879    38967.707    20567.264     7035.727       10.956        3.329      389.940       79.024        0.041      349.863       30.599      859.678
07/25/2014  18:07:00     -403.710     -205.115       -9.094      169.635      189.769       95.687    28776.020    36012.323     9155.960       13.953        3.697      452.829       99.745        0.049      349.901       30.667      859.667
07/25/2014  18:08:00     -298.529      -96.888       -3.747      151.766      119.150       64.304    23032.913    14196.711     4135.025        6.993        2.068      313.858       69.599        0.049      349.953       30.757      859.696
07/25/2014  18:09:00     -408.380     -101.758      -26.227      168.779      152.762       77.370    28486.305    23336.116     5986.155       11.780        2.890      420.867       72.359        0.030      349.926       30.710      859.674
07/25/2014  18:10:00     -517.321     -138.664      -15.386      235.742      165.009       89.996    55574.398    27228.065     8099.358       18.898        4.545      535.583       88.281        0.027      349.818       30.522      859.685
07/25/2014  18:11:00     -381.469     -181.069      -17.585      254.154      162.965      101.482    64594.453    26557.711    10298.603       14.001        5.073      422.261      118.361        0.079      349.817       30.520      859.679
07/25/2014  18:12:00     -355.656     -113.278        9.366      234.878      145.755       85.068    55167.554    21244.631     7236.521       11.151        4.182      373.260      100.337        0.072      349.865       30.603      859.675
07/25/2014  18:13:00     -361.457     -252.501       -2.938      266.942      240.328      113.736    71257.828    57757.591    12935.887       16.816        7.098      440.917      131.408        0.089      349.795       30.481      859.649
07/25/2014  18:14:00     -427.016     -294.629      -10.802      244.078      199.154      117.715    59573.986    39662.176    13856.877       19.116        5.655      518.795      132.290        0.065      349.824       30.532      859.671
07/25/2014  18:15:00     -283.330     -121.013        6.581      177.731      154.634       86.316    31588.209    23911.784     7450.439        7.894        3.148      308.090       83.639        0.074      349.969       30.784      859.705
07/25/2014  18:16:00     -495.275     -128.979      -13.062      180.351      178.804       94.976    32526.312    31970.887     9020.467       16.780        3.676      511.794       94.742        0.034      349.845       30.570      859.707
07/25/2014  18:17:00     -674.743     -101.366      -42.466      239.244      177.365       99.038    57237.517    31458.429     9808.603       28.291        4.925      682.315      108.963        0.026      349.724       30.357      859.720
07/25/2014  18:18:00     -622.313     -113.793      -32.194      214.503      141.837       90.835    46011.604    20117.652     8251.067       23.780        3.719      632.631      105.558        0.028      349.715       30.343      859.705
07/25/2014  18:19:00     -270.600     -109.152       20.059      171.625      155.804       85.811    29455.009    24274.933     7363.484        7.331        3.055      291.785       97.333        0.111      349.885       30.638      859.719
07/25/2014  18:20:00     -455.338     -118.493       -3.389      231.303      182.271       94.903    53500.883    33222.783     9006.607       15.854        4.787      470.503       95.332        0.041      349.809       30.505      859.738
07/25/2014  18:21:00     -341.536     -151.318       -3.714      208.526      154.201       83.716    43483.027    23777.949     7008.426       10.690        3.713      373.556       84.196        0.051      349.783       30.461      859.761
07/25/2014  18:22:00     -381.262      -40.588       -9.633      199.608      127.916       85.353    39843.271    16362.446     7285.136       10.528        3.175      383.416       99.663        0.068      349.809       30.506      859.771
07/25/2014  18:23:00     -143.123     -118.507       10.287      159.036      115.741       73.544    25292.332    13395.969     5408.648        3.936        2.205      185.817       79.266        0.182      349.954       30.757      859.770
07/25/2014  18:24:00     -364.821     -159.522      -27.368      158.182      109.161       68.261    25021.618    11916.077     4659.599       10.044        2.080      398.173       66.073        0.028      349.794       30.481      859.794
07/25/2014  18:25:00     -287.575     -159.357        5.365      212.660      138.915       85.938    45224.468    19297.461     7385.386        9.000        3.595      328.777       97.490        0.088      349.840       30.560      859.761
07/25/2014  18:26:00     -401.668     -224.957       -8.730      269.893      169.616       98.866    72842.349    28769.490     9774.514       16.168        5.569      460.373      119.280        0.067      349.732       30.372      859.773
07/25/2014  18:27:00     -418.028     -174.156      -20.885      217.179      161.449       87.331    47166.557    26065.938     7626.722       14.317        4.043      452.855       97.894        0.047      349.700       30.316      859.802
07/25/2014  18:28:00     -317.766     -103.884       -5.270      226.943      126.132       83.068    51503.118    15909.388     6900.260        9.304        3.716      334.316      104.277        0.097      349.754       30.410      859.799
07/25/2014  18:29:00     -168.240     -116.108       13.037      175.969      158.652       80.624    30964.970    25170.609     6500.208        5.228        3.132      204.415       79.295        0.150      349.810       30.508      859.800
07/25/2014  18:30:00     -391.049     -252.300      -10.590      207.932      160.846      105.466    43235.544    25871.335    11123.109       14.844        4.011      465.376      106.441        0.052      349.699       30.314      859.805
07/25/2014  18:31:00     -391.303     -222.553       -7.902      191.044      170.467       98.216    36497.667    29059.078     9646.323       13.894        3.760      450.164       99.079        0.048      349.701       30.318      859.830
07/25/2014  18:32:00     -434.883     -113.186      -18.883      286.369      244.581       91.108    82007.189    59819.692     8300.748       17.618        7.506      449.371      110.835        0.061      349.700       30.317      859.823
07/25/2014  18:33:00     -364.216     -215.579       -1.351      259.893      177.034      104.199    67544.527    31340.941    10857.366       14.441        5.487      423.235      113.647        0.072      349.682       30.284      859.788
07/25/2014  18:34:00     -429.024     -249.412      -13.302      213.219      202.983      106.584    45462.242    41201.898    11360.214       17.222        4.901      496.254      118.571        0.057      349.550       30.056      859.803
07/25/2014  18:35:00     -334.236     -246.942       -7.734      207.436      152.448       94.709    43029.527    23240.460     8969.876       12.398        3.762      415.564      100.940        0.059      349.612       30.165      859.799
07/25/2014  18:36:00     -355.010     -162.405       -0.904      277.483      162.837      119.752    76996.878    26515.870    14340.657       13.511        5.893      390.394      150.506        0.149      349.626       30.189      859.800
07/25/2014  18:37:00     -421.791      -46.327      -19.653      228.025      183.359       90.241    51995.365    33620.541     8143.469       13.708        4.688      424.328       96.982        0.052      349.656       30.241      859.807
07/25/2014  18:38:00     -481.042     -134.543       -3.687      257.480      223.401      107.674    66295.824    49908.147    11593.787       18.863        6.390      499.503      121.277        0.059      349.627       30.189      859.819
07/25/2014  18:39:00     -378.276     -119.652       -6.937      228.345      158.444       90.429    52141.407    25104.569     8177.344       12.142        4.271      396.749       86.409        0.047      349.635       30.203      859.808
07/25/2014  18:40:00     -342.049     -130.542       -6.594      168.831      132.441       80.296    28503.798    17540.728     6447.519        9.328        2.625      366.113       91.296        0.062      349.594       30.134      859.838
07/25/2014  18:41:00     -191.887     -131.177        5.565      140.030      107.312       74.625    19608.280    11515.803     5568.929        4.537        1.835      232.439       68.402        0.087      349.669       30.261      859.848
07/25/2014  18:42:00     -231.318      -78.440        2.680      223.218      114.059       74.191    49826.493    13009.452     5504.365        6.399        3.417      244.256       81.596        0.112      349.730       30.368      859.838
07/25/2014  18:43:00     -398.127     -243.911      -23.024      240.452      169.179      106.674    57816.950    28621.476    11379.278       15.815        4.891      466.902      116.996        0.063      349.593       30.131      859.837
07/25/2014  18:44:00     -321.715     -189.484       -2.826      190.576      156.854       89.850    36319.120    24603.299     8072.963       10.419        3.450      373.369       88.068        0.056      349.616       30.172      859.826
07/25/2014  18:45:00     -262.899     -138.179       -2.910      200.501      179.128      114.332    40200.690    32086.955    13071.834        8.677        4.268      297.001      113.964        0.147      349.629       30.194      859.828
07/25/2014  18:46:00     -417.903     -240.062      -30.571      152.229      162.884       78.650    23173.686    26531.333     6185.763       14.454        2.795      481.947       84.208        0.031      349.575       30.102      859.844
07/25/2014  18:47:00     -464.483     -186.355      -23.281      186.736      132.561       87.561    34870.456    17572.339     7666.886       15.555        3.005      500.472       78.136        0.024      349.501       29.973      859.855
07/25/2014  18:48:00     -396.693     -162.068      -18.747      188.123      148.634       80.038    35390.432    22091.968     6406.121       12.392        3.194      428.522       69.727        0.026      349.538       30.037      859.866
07/25/2014  18:49:00     -379.691      -44.897       -8.330      232.695      144.430       83.283    54147.192    20860.118     6936.039       11.408        4.097      382.336      104.939        0.075      349.604       30.150      859.862
07/25/2014  18:50:00     -398.877      -49.482      -20.553      154.941      123.168       81.587    24006.821    15170.391     6656.474       10.389        2.292      401.934       77.493        0.037      349.612       30.164      859.866
07/25/2014  18:51:00     -393.567      -39.949      -16.107      228.866      163.732       89.540    52379.746    26808.250     8017.338       12.196        4.360      395.589       99.995        0.064      349.588       30.122      859.841
07/25/2014  18:52:00     -650.357       46.106      -50.075      219.936      168.980       77.844    48372.030    28554.365     6059.755       25.528        4.149      651.990       84.303        0.017      349.512       29.991      859.842
07/25/2014  18:53:00     -720.960     -176.986      -51.646      214.495      173.880      104.597    46008.267    30234.224    10940.577       32.046        4.359      742.366      109.592        0.022      349.403       29.800      859.833
07/25/2014  18:54:00     -476.445      -66.006       -5.367      227.837      154.614       95.691    51909.531    23905.355     9156.857       15.816        4.249      480.996      111.424        0.054      349.448       29.880      859.847
07/25/2014  18:55:00     -534.723     -162.547       -1.399      325.262      183.004      113.397   105795.175    33490.365    12858.791       23.222        7.607      558.883      135.748        0.059      349.422       29.835      859.840
07/25/2014  18:56:00     -398.730      -78.530      -15.882      246.195      129.832       87.302    60611.843    16856.444     7621.571       12.523        4.254      406.389      103.361        0.065      349.504       29.977      859.875
07/25/2014  18:57:00     -395.749     -131.917      -10.582      235.392      189.750      105.907    55409.616    36005.058    11216.286       13.836        5.132      417.157      120.559        0.084      349.437       29.860      859.882
07/25/2014  18:58:00     -336.163      -62.798        9.612      202.956      162.022      105.159    41191.133    26251.147    11058.456        9.776        3.925      341.978      118.566        0.120      349.447       29.879      859.890
07/25/2014  18:59:00     -475.708     -110.113      -29.218      205.097      153.820       80.470    42064.694    23660.516     6475.390       15.572        3.610      488.286       86.130        0.031      349.432       29.851      859.906
07/25/2014  19:00:00     -503.199     -102.199      -52.227      238.500      152.762       83.202    56882.439    23336.321     6922.618       17.674        4.357      513.472       89.499        0.030      349.450       29.883      859.908
07/25/2014  19:01:00     -284.807      -93.964      -17.974      193.660      146.601       81.951    37504.131    21491.836     6715.935        7.798        3.286      299.907       88.936        0.088      349.470       29.917      859.940
07/25/2014  19:02:00     -335.182      -77.022       -3.803      263.260      171.674       88.114    69305.579    29471.925     7764.150       11.240        5.327      343.918      113.071        0.108      349.420       29.831      859.975
07/25/2014  19:03:00     -394.808     -194.974      -14.767      226.605      175.218       98.128    51349.928    30701.514     9629.154       14.288        4.584      440.327       98.471        0.050      349.396       29.789      859.962
07/25/2014  19:04:00     -355.485     -121.132      -11.634      171.205      189.496       79.104    29311.112    35908.573     6257.410       10.631        3.574      375.556       79.488        0.045      349.437       29.861      859.952
07/25/2014  19:05:00     -412.772      -72.286       -9.623      137.039      117.455       75.714    18779.572    13795.784     5732.618       10.700        1.915      419.053       72.988        0.030      349.447       29.877      859.973
07/25/2014  19:06:00     -322.792     -158.849      -28.034      202.737      137.168       85.130    41102.155    18814.926     7247.052        9.868        3.358      359.760       95.275        0.070      349.463       29.906      859.977
07/25/2014  19:07:00     -394.491     -106.510      -11.163      256.083      198.090       90.619    65578.329    39239.578     8211.769       14.004        5.651      408.616      117.158        0.082      349.409       29.810      859.994
07/25/2014  19:08:00     -515.439      -98.024      -42.887      190.691      177.256       93.852    36362.973    31419.821     8808.196       17.684        3.830      524.678      101.665        0.038      349.356       29.721      860.015
07/25/2014  19:09:00     -496.798     -101.012      -29.827      207.771      153.066       83.945    43168.910    23429.221     7046.755       16.576        3.682      506.963      100.209        0.039      349.298       29.619      860.018
07/25/2014  19:10:00     -388.495      -51.289      -10.550      146.154      113.838       76.423    21361.041    12959.159     5840.449        9.691        2.008      391.866       73.380        0.035      349.316       29.651      860.020
07/25/2014  19:11:00     -393.010      -40.687      -14.552      195.528      174.294       93.495    38231.074    30378.454     8741.396       11.682        3.868      395.110       95.061        0.058      349.294       29.612      860.004
07/25/2014  19:12:00     -515.137     -136.330      -18.703      249.145      165.516       85.592    62073.466    27395.571     7325.946       19.053        4.840      532.871       92.863        0.030      349.247       29.533      860.014
07/25/2014  19:13:00     -350.154      -61.811      -24.679      168.685      116.807       80.496    28454.514    13643.793     6479.654        8.780        2.429      355.568       82.608        0.054      349.272       29.575      860.040
07/25/2014  19:14:00     -271.960     -106.826       -4.642      230.501      151.590       90.630    53130.504    22979.419     8213.738        8.484        4.216      292.189       82.134        0.079      349.304       29.632      860.029
07/25/2014  19:15:00     -416.677      -83.647       -6.223      211.028      216.833      104.688    44532.786    47016.526    10959.578       14.156        5.125      424.990      115.146        0.073      349.233       29.508      860.043
07/25/2014  19:16:00     -456.782      -21.657      -15.862      198.758      157.667       93.106    39504.579    24858.992     8668.653       14.119        3.652      457.295      103.604        0.051      349.252       29.540      860.068
07/25/2014  19:17:00     -402.445      -18.469       -9.681      176.867      161.938       84.555    31281.948    26223.804     7149.631       11.351        3.233      402.869       85.332        0.045      349.263       29.559      860.068
07/25/2014  19:18:00     -322.704      -44.387      -10.944      164.533      106.014       70.364    27071.011    11239.074     4951.054        7.474        2.163      325.742       80.339        0.061      349.273       29.576      860.098
07/25/2014  19:19:00     -445.051     -115.070      -32.762      166.102      139.178       75.228    27589.983    19370.617     5659.285       13.249        2.631      459.687       74.078        0.026      349.223       29.489      860.092
07/25/2014  19:20:00     -494.359       -4.385      -24.002      246.847      196.804       95.730    60933.200    38731.650     9164.321       17.689        5.441      494.378      113.929        0.053      349.198       29.447      860.091
07/25/2014  19:21:00     -259.870      -49.411       -2.610      205.506      143.715       81.164    42232.709    20654.030     6587.543        6.971        3.474      264.525      104.484        0.156      349.231       29.505      860.103
07/25/2014  19:22:00     -181.317       -5.317       15.571      166.842      124.418       69.992    27836.374    15479.794     4898.932        4.067        2.411      181.395       71.751        0.156      349.186       29.427      860.105
07/25/2014  19:23:00     -171.966      -98.913        6.032      115.326       94.849       53.430    13300.128     8996.307     2854.754        3.227        1.258      198.384       49.799        0.063      349.250       29.537      860.105
07/25/2014  19:24:00     -184.062      -84.544        5.181      153.905       99.946       63.675    23686.874     9989.216     4054.550        3.938        1.887      202.551       66.496        0.108      349.236       29.515      860.115
07/25/2014  19:25:00     -346.640     -132.909      -13.068      138.651      133.153       69.301    19224.136    17729.611     4802.640        8.987        2.088      371.247       72.986        0.039      349.168       29.394      860.115
07/25/2014  19:26:00     -465.471     -140.883      -15.269      234.682      182.320       96.177    55075.581    33240.534     9250.010       16.714        4.878      486.325      110.872        0.052      349.105       29.284      860.129
07/25/2014  19:27:00     -308.112     -212.873      -11.554      174.728      139.932       77.518    30529.984    19580.935     6009.028        9.824        2.806      374.497       71.196        0.036      349.085       29.250      860.131
07/25/2014  19:28:00     -252.413      -58.548       -6.874      138.057      127.292       76.559    19059.864    16203.147     5861.216        5.415        2.056      259.114       64.885        0.063      349.125       29.321      860.152
07/25/2014  19:29:00     -520.311     -117.203      -39.484      222.201      257.838       85.975    49373.305    66480.274     7391.647       20.461        6.162      533.348       95.602        0.032      349.035       29.163      860.149
07/25/2014  19:30:00     -346.435      -59.714      -16.791      199.842      153.729       72.083    39936.880    23632.599     5195.932        9.630        3.438      351.543       75.642        0.046      349.092       29.261      860.140
07/25/2014  19:31:00     -251.143      -37.877       -0.381      147.644      111.572       73.780    21798.830    12448.370     5443.486        5.209        1.985      253.983       72.951        0.082      349.066       29.218      860.149
07/25/2014  19:32:00     -377.369      -63.996      -24.575      181.486      166.244       79.482    32937.045    27637.045     6317.361       10.699        3.345      382.757       75.110        0.039      349.045       29.181      860.162
07/25/2014  19:33:00     -266.021      -86.985       -2.808      216.711      147.132      101.749    46963.502    21647.803    10352.956        7.864        3.948      279.881      125.358        0.201      349.032       29.159      860.144
07/25/2014  19:34:00     -170.191     -101.323       10.136      173.365      124.191       80.316    30055.431    15423.327     6450.619        4.562        2.596      198.069       73.049        0.136      349.018       29.137      860.159
07/25/2014  19:35:00     -364.389     -135.674      -26.690      162.292      142.284       96.438    26338.771    20244.620     9300.252       10.388        2.794      388.827       99.346        0.065      348.997       29.099      860.160
07/25/2014  19:36:00     -334.451     -112.798       -9.524      193.724      146.480       80.269    37528.895    21456.346     6443.133        9.504        3.271      352.961       95.832        0.074      348.987       29.083      860.173
07/25/2014  19:37:00     -236.621      -85.632       -0.472      170.720      131.148       71.429    29145.151    17199.773     5102.080        5.737        2.572      251.639       69.742        0.077      348.984       29.076      860.212
07/25/2014  19:38:00     -406.619     -157.324      -15.647      199.506      144.922       81.871    39802.679    21002.331     6702.890       12.891        3.375      435.993       87.948        0.041      348.959       29.032      860.222
07/25/2014  19:39:00     -336.720     -165.148       -3.338      231.750      167.284       99.908    53708.089    27984.073     9981.629       11.615        4.584      375.039      107.467        0.082      348.957       29.029      860.233
07/25/2014  19:40:00     -419.964     -211.230      -17.375      186.745      146.559       86.777    34873.641    21479.573     7530.174       14.257        3.194      470.094       85.192        0.033      348.944       29.006      860.232
07/25/2014  19:41:00     -418.131     -175.835       -7.428      201.363      115.759       71.190    40547.076    13400.164     5067.979       13.240        2.951      453.598       75.675        0.028      348.938       28.996      860.268
07/25/2014  19:42:00     -191.917      -35.920       -5.014      140.561      100.931       68.913    19757.282    10187.024     4748.951        3.641        1.735      195.249       57.358        0.086      348.978       29.066      860.285
07/25/2014  19:43:00     -299.420      -71.792       -4.108      195.272      172.021       78.141    38131.151    29591.309     6106.042        8.431        3.691      307.906       85.399        0.077      348.953       29.023      860.307
07/25/2014  19:44:00     -273.217     -110.988      -16.947      131.131      111.320       58.894    17195.398    12392.040     3468.456        6.015        1.653      294.900       48.157        0.027      348.911       28.951      860.333
07/25/2014  19:45:00     -396.511     -144.181      -15.282      171.368      115.484       63.771    29366.995    13336.533     4066.742       11.250        2.339      421.912       69.256        0.027      348.864       28.868      860.352
07/25/2014  19:46:00     -364.792      -63.680       -4.301      144.332      135.255       76.179    20831.756    18294.027     5803.226        9.103        2.246      370.308       70.903        0.037      348.862       28.863      860.371
07/25/2014  19:47:00     -320.222     -154.675      -17.755      174.109      131.371       80.196    30314.005    17258.449     6431.470        9.038        2.700      355.621       87.193        0.060      348.837       28.820      860.380
07/25/2014  19:48:00     -182.686     -100.277        6.572      175.853      139.140       67.418    30924.134    19360.001     4545.233        4.914        2.741      208.398       81.891        0.154      348.766       28.701      860.392
07/25/2014  19:49:00     -181.611      -74.118        1.655      207.566      105.694       59.800    43083.801    11171.252     3576.064        4.814        2.892      196.153       77.589        0.156      348.745       28.663      860.404
07/25/2014  19:50:00     -116.118     -105.588       10.148      154.921      128.121       64.160    24000.473    16414.914     4116.446        3.462        2.227      156.946       76.624        0.238      348.682       28.555      860.419
07/25/2014  19:51:00     -143.680      -90.640        6.274      106.155      111.548       61.364    11268.889    12442.874     3765.575        2.818        1.374      169.882       64.214        0.143      348.703       28.590      860.429
07/25/2014  19:52:00     -167.227     -134.856       -8.340       98.276       72.428       48.683     9658.078     5245.871     2370.021        3.174        0.864      214.828       42.670        0.039      348.732       28.639      860.441
07/25/2014  19:53:00     -111.938      -65.642        0.490       90.763       69.090       48.861     8237.922     4773.468     2387.374        1.612        0.770      129.765       55.173        0.181      348.699       28.586      860.444
07/25/2014  19:54:00     -272.326     -116.228       -8.642      176.889       96.631       64.235    31289.583     9337.562     4126.113        6.624        2.238      296.092       85.754        0.084      348.664       28.523      860.461
07/25/2014  19:55:00     -188.080      -57.374       -6.625      140.277       99.370       63.679    19677.644     9874.492     4055.026        3.615        1.680      196.637       76.240        0.150      348.618       28.443      860.478
07/25/2014  19:56:00     -309.640     -181.759       -6.734      180.474      142.724       76.394    32570.772    20370.047     5836.029        9.386        2.939      359.045       84.979        0.056      348.639       28.479      860.467
07/25/2014  19:57:00     -151.114     -103.394       12.882      132.059      131.034       68.345    17439.508    17169.892     4671.080        3.648        1.964      183.101       67.627        0.136      348.630       28.464      860.469
07/25/2014  19:58:00     -214.144     -109.278        2.931      138.852       98.707       55.778    19279.741     9743.125     3111.223        4.496        1.607      240.415       55.684        0.054      348.601       28.413      860.506
07/25/2014  19:59:00     -205.223     -140.204        3.465      151.133      117.669       69.990    22841.290    13846.087     4898.633        5.168        2.079      248.543       68.351        0.076      348.588       28.392      860.513
07/25/2014  20:00:00     -212.805     -165.322      -16.854      143.362      129.111       66.379    20552.663    16669.681     4406.218        5.726        2.081      269.476       72.567        0.073      348.608       28.426      860.507
07/25/2014  20:01:00     -179.389     -132.996       18.633      132.728      113.350       65.518    17616.616    12848.161     4292.642        4.248        1.738      223.312       64.268        0.083      348.560       28.342      860.540
07/25/2014  20:02:00     -204.391     -138.904       -4.633      120.668      109.973       61.142    14560.707    12094.144     3738.322        4.574        1.520      247.123       64.928        0.069      348.553       28.329      860.563
07/25/2014  20:03:00     -312.965     -128.653       -2.626      150.879      117.059       69.510    22764.572    13702.855     4831.650        7.789        2.065      338.376       59.601        0.031      348.562       28.344      860.568
07/25/2014  20:04:00     -269.194     -151.541      -21.326      126.871      103.294       50.280    16096.339    10669.610     2528.088        6.258        1.465      308.917       48.624        0.025      348.569       28.354      860.569
07/25/2014  20:05:00     -313.112     -199.803      -12.224      168.138      126.709       84.351    28270.272    16055.083     7115.036        9.476        2.572      371.430       97.014        0.068      348.528       28.286      860.578
07/25/2014  20:06:00     -288.942     -128.432        6.698      148.720      102.221       74.402    22117.552    10449.103     5535.636        6.906        1.905      316.200       80.160        0.064      348.510       28.255      860.595
07/25/2014  20:07:00     -189.164     -136.227        2.956      123.912      102.382       56.224    15354.190    10482.086     3161.109        4.167        1.450      233.111       55.567        0.057      348.492       28.224      860.617
07/25/2014  20:08:00     -229.138     -172.828        0.603      117.374      120.087       57.944    13776.627    14420.962     3357.506        5.696        1.578      287.008       50.637        0.031      348.540       28.305      860.624
07/25/2014  20:09:00     -300.182     -188.306      -12.310      146.387       90.223       62.487    21429.128     8140.129     3904.687        7.959        1.674      354.356       73.556        0.043      348.481       28.205      860.633
07/25/2014  20:10:00     -238.722     -134.957        6.590      128.237      115.837       58.611    16444.724    13418.237     3435.234        5.426        1.665      274.229       57.595        0.044      348.462       28.172      860.650
07/25/2014  20:11:00     -252.265     -187.499       -3.980      139.331       97.507       78.978    19413.123     9507.607     6237.583        6.698        1.758      314.314       78.896        0.063      348.401       28.067      860.664
07/25/2014  20:12:00     -315.529     -203.008       -7.387      151.932      118.352       69.155    23083.418    14007.185     4782.467        9.134        2.094      375.194       76.347        0.041      348.410       28.083      860.659
07/25/2014  20:13:00     -235.066     -121.093        2.457      150.465       86.085       53.314    22639.632     7410.672     2842.398        5.140        1.645      264.423       67.340        0.065      348.402       28.068      860.688
07/25/2014  20:14:00     -309.044     -191.250      -14.726      167.991       97.328       67.541    28221.020     9472.679     4561.843        8.727        2.113      363.435       67.611        0.035      348.395       28.057      860.700
07/25/2014  20:15:00     -311.271     -177.217      -24.537       83.501      108.706       63.165     6972.452    11816.982     3989.764        7.583        1.139      358.183       49.968        0.019      348.390       28.048      860.714
07/25/2014  20:16:00     -272.586     -178.769      -14.876      175.489      124.980       62.189    30796.330    15619.961     3867.498        7.837        2.514      325.978       69.228        0.045      348.367       28.009      860.728
07/25/2014  20:17:00     -291.841     -178.306      -22.713      171.976      137.209       63.163    29575.768    18826.378     3989.551        8.493        2.620      342.000       60.338        0.031      348.351       27.981      860.735
07/25/2014  20:18:00     -277.394      -48.173       -0.909      127.705      103.376       59.475    16308.574    10686.605     3537.323        5.489        1.527      281.546       50.929        0.033      348.343       27.967      860.759
07/25/2014  20:19:00     -160.721     -128.584        0.347       93.858       80.203       54.981     8809.290     6432.532     3022.904        3.031        0.913      205.827       47.338        0.053      348.290       27.874      860.777
07/25/2014  20:20:00     -313.790     -191.555       -9.872      128.891      136.802       62.623    16612.775    18714.760     3921.583        8.724        1.962      367.637       70.046        0.036      348.314       27.915      860.782
07/25/2014  20:21:00     -378.728     -178.155      -16.116      181.225      137.694       84.678    32842.539    18959.535     7170.407       11.719        2.949      418.538       85.918        0.042      348.304       27.898      860.779
07/25/2014  20:22:00     -212.182      -88.361        6.033      130.558       94.065       52.537    17045.427     8848.271     2760.096        4.075        1.433      229.846       44.230        0.037      348.268       27.837      860.815
07/25/2014  20:23:00     -255.441     -179.337      -12.271      141.986      127.169       63.816    20160.014    16171.866     4072.537        6.898        2.020      312.109       62.612        0.040      348.245       27.796      860.803
07/25/2014  20:24:00     -252.554      -87.883       -4.787      136.036       70.003       51.218    18505.843     4900.411     2623.269        4.877        1.301      267.408       54.809        0.042      348.191       27.704      860.827
07/25/2014  20:25:00     -247.745     -119.282       -9.515       96.342       93.009       54.403     9281.849     8650.649     2959.713        4.829        1.045      274.965       45.048        0.027      348.181       27.685      860.835
07/25/2014  20:26:00     -229.801     -150.368        0.814      137.522       98.393       57.514    18912.262     9681.229     3307.893        5.365        1.595      274.625       72.076        0.069      348.154       27.641      860.849
07/25/2014  20:27:00     -127.443      -93.796       10.119      107.156       80.767       51.445    11482.307     6523.357     2646.568        2.289        1.033      158.238       55.237        0.122      348.086       27.523      860.871
07/25/2014  20:28:00     -116.311      -73.345        0.851       77.382       60.647       39.135     5987.997     3678.002     1531.515        1.505        0.560      137.506       28.948        0.044      348.065       27.488      860.892
07/25/2014  20:29:00     -173.553      -87.364        5.739       73.569       85.712       39.879     5412.441     7346.495     1590.322        2.606        0.717      194.302       39.223        0.041      348.052       27.463      860.919
07/25/2014  20:30:00     -165.638      -69.155        2.239       97.304       90.570       47.886     9468.111     8202.904     2293.082        2.609        0.998      179.495       42.611        0.056      348.068       27.492      860.928
07/25/2014  20:31:00     -262.610     -137.208       -7.317      116.837       96.164       57.661    13650.980     9247.511     3324.814        5.703        1.311      296.294       58.935        0.040      348.032       27.429      860.940
07/25/2014  20:32:00     -232.421      -88.050      -22.088       91.615      115.872       49.523     8393.329    13426.267     2452.537        4.326        1.214      248.540       48.704        0.038      348.034       27.430      860.943
07/25/2014  20:33:00     -253.797     -147.104        7.775      158.910      117.273       68.606    25252.347    13752.896     4706.825        6.490        2.186      293.347       73.001        0.062      347.991       27.357      860.953
07/25/2014  20:34:00     -192.404     -174.843       -1.351      125.448      116.216       67.820    15737.265    13506.077     4599.590        5.071        1.692      259.980       67.934        0.068      347.976       27.333      860.962
07/25/2014  20:35:00     -170.325      -50.971       18.840      138.974      102.439       62.578    19313.760    10493.730     3915.999        3.284        1.686      177.788       69.891        0.155      347.920       27.236      860.966
07/25/2014  20:36:00     -246.731      -21.668       -6.822      163.427       99.848       64.230    26708.435     9969.625     4125.556        5.109        2.040      247.680       69.591        0.079      347.919       27.236      860.973
07/25/2014  20:37:00     -207.640      -80.911       -2.080      140.253       90.048       57.980    19670.770     8108.604     3361.671        4.040        1.557      222.848       60.654        0.074      347.882       27.170      860.968
07/25/2014  20:38:00     -264.110      -53.003      -14.515      136.016      102.105       50.472    18500.271    10425.529     2547.425        5.212        1.574      269.376       48.976        0.033      347.870       27.147      860.992
07/25/2014  20:39:00     -171.148      -39.033        6.311      129.509       86.546       59.302    16772.653     7490.283     3516.719        2.931        1.389      175.543       72.463        0.170      347.839       27.096      861.011
07/25/2014  20:40:00     -218.199      -94.801       -4.993      135.947       97.921       46.276    18481.495     9588.481     2141.513        4.341        1.511      237.904       54.962        0.053      347.857       27.126      861.032
07/25/2014  20:41:00     -165.830      -78.649       21.010      128.049      127.426       67.994    16396.444    16237.309     4623.203        3.568        1.863      183.535       66.845        0.133      347.820       27.062      861.043
07/25/2014  20:42:00     -165.515      -50.067       10.363      124.952      108.469       57.406    15613.042    11765.513     3295.435        3.034        1.534      172.922       65.951        0.145      347.837       27.094      861.075
07/25/2014  20:43:00      -88.621       -2.199        7.438       90.283       62.965       43.763     8151.010     3964.585     1915.211        1.097        0.702       88.648       46.273        0.272      347.779       26.993      861.080
07/25/2014  20:44:00     -221.209      -99.810        0.968      150.183      119.901       73.036    22555.028    14376.343     5334.262        5.057        2.113      242.684       72.061        0.088      347.813       27.051      861.112
07/25/2014  20:45:00     -141.227      -87.545       11.023      143.498      126.726       62.605    20591.572    16059.457     3919.361        3.414        2.029      166.161       75.786        0.208      347.752       26.948      861.121
07/25/2014  20:46:00     -207.184     -117.209       -7.212      111.691      105.803       63.476    12474.895    11194.292     4029.222        4.220        1.385      238.040       58.833        0.061      347.785       27.002      861.155
07/25/2014  20:47:00     -126.448      -50.046        9.181      106.466       74.461       46.840    11334.977     5544.375     2194.017        1.882        0.954      135.991       54.534        0.161      347.687       26.836      861.175
07/25/2014  20:48:00     -185.269      -59.966       -6.861      144.609       83.372       49.812    20911.651     6950.925     2481.236        3.415        1.517      194.732       66.113        0.115      347.686       26.835      861.200
07/25/2014  20:49:00     -215.218      -21.815        2.141      134.900      107.363       71.847    18197.968    11526.791     5162.020        4.084        1.744      216.321       82.191        0.144      347.638       26.750      861.222
07/25/2014  20:50:00     -264.561      -84.309       -9.271      115.929      129.208       62.696    13439.479    16694.623     3930.781        5.562        1.703      277.670       61.570        0.049      347.717       26.886      861.231
07/25/2014  20:51:00     -367.305     -118.348       -9.585      158.478      118.735       65.479    25115.312    14097.967     4287.513        9.625        2.175      385.901       74.028        0.037      347.716       26.885      861.250
07/25/2014  20:52:00     -166.668      -93.033        8.433      172.605      120.630       73.204    29792.317    14551.570     5358.798        4.309        2.485      190.875       87.976        0.212      347.641       26.756      861.268
07/25/2014  20:53:00     -252.735      -88.054      -10.725      119.955       96.981       56.772    14389.119     9405.304     3223.091        4.938        1.351      267.635       63.684        0.057      347.666       26.797      861.286
07/25/2014  20:54:00     -177.329      -63.203       -6.424       93.528       83.846       38.523     8747.518     7030.159     1483.985        2.637        0.863      188.256       45.359        0.058      347.605       26.693      861.304
07/25/2014  20:55:00     -176.159      -23.545       -1.316      114.421      103.289       58.769    13092.277    10668.600     3453.843        2.940        1.361      177.726       57.281        0.104      347.590       26.668      861.315
07/25/2014  20:56:00     -190.021      -53.404        0.626      102.739       77.674       51.749    10555.404     6033.321     2677.999        2.911        0.963      197.383       45.898        0.054      347.564       26.623      861.337
07/25/2014  20:57:00     -231.147      -15.921        0.039      124.299      117.349       54.774    15450.260    13770.746     3000.181        4.295        1.611      231.695       53.695        0.054      347.553       26.601      861.350
07/25/2014  20:58:00     -296.282      -57.323       -4.844      150.556      125.370       78.444    22667.200    15717.619     6153.480        6.781        2.227      301.777       83.435        0.076      347.571       26.635      861.372
07/25/2014  20:59:00     -181.373      -43.454       15.812      126.544      112.246       82.555    16013.309    12599.143     6815.342        3.522        1.771      186.506       84.498        0.205      347.528       26.561      861.393
07/25/2014  21:00:00     -314.516      -71.982      -21.775      138.805       82.307       65.087    19266.935     6774.508     4236.364        6.742        1.514      322.648       72.675        0.051      347.594       26.674      861.414
07/25/2014  21:01:00     -255.213     -134.891      -14.501      141.490      148.823       66.183    20019.416    22148.186     4380.125        6.503        2.327      288.668       78.260        0.073      347.560       26.615      861.439
07/25/2014  21:02:00     -309.252      -39.760      -13.602      144.605      113.016       57.322    20910.686    12772.537     3285.780        6.718        1.848      311.797       59.552        0.036      347.547       26.592      861.457
07/25/2014  21:03:00     -269.511     -155.616      -10.264      143.122      101.848       55.191    20484.018    10373.050     3046.070        6.542        1.695      311.211       56.744        0.033      347.513       26.533      861.476
07/25/2014  21:04:00     -148.992      -77.809        4.851      174.826       81.346       55.043    30564.109     6617.143     3029.714        3.424        2.011      168.085       69.689        0.172      347.499       26.511      861.496
07/25/2014  21:05:00     -174.767      -86.078        8.522      104.149       91.750       45.882    10846.977     8418.029     2105.180        2.969        1.069      194.815       39.254        0.041      347.480       26.478      861.525
07/25/2014  21:06:00      -94.880      -94.318       20.000      105.836       98.374       46.264    11201.326     9677.478     2140.360        2.065        1.151      133.784       55.937        0.175      347.447       26.421      861.550
07/25/2014  21:07:00     -225.278     -104.048      -16.610      127.693       91.804       51.366    16305.589     8427.929     2638.491        4.461        1.369      248.146       60.322        0.059      347.444       26.414      861.581
07/25/2014  21:08:00     -169.899      -62.020        4.520      112.645       94.191       50.890    12688.976     8872.034     2589.765        2.844        1.208      180.865       60.031        0.110      347.388       26.318      861.598
07/25/2014  21:09:00     -142.897      -25.788       18.736      100.236       90.326       54.503    10047.228     8158.737     2970.574        2.130        1.059      145.205       56.995        0.154      347.374       26.293      861.624
07/25/2014  21:10:00     -242.707      -92.981      -12.863      115.278      104.594       51.943    13289.056    10939.842     2698.059        4.732        1.346      259.908       56.207        0.047      347.396       26.330      861.639
07/25/2014  21:11:00     -165.007      -67.305       -5.963       90.658       89.323       53.675     8218.797     7978.566     2881.002        2.543        0.954      178.206       48.878        0.075      347.315       26.194      861.661
07/25/2014  21:12:00     -228.871      -85.589       -4.802      127.400       83.791       49.130    16230.781     7021.003     2413.776        4.269        1.283      244.352       60.956        0.062      347.336       26.228      861.682
07/25/2014  21:13:00     -260.668     -101.776       -3.783      118.705      101.215       57.212    14090.842    10244.510     3273.217        5.296        1.380      279.832       62.671        0.050      347.311       26.185      861.694
07/25/2014  21:14:00     -262.748      -94.524       -1.539      107.364       76.661       59.415    11527.004     5876.872     3530.098        4.945        1.047      279.233       57.798        0.043      347.326       26.212      861.729
07/25/2014  21:15:00     -168.758      -85.922        1.207      121.615       88.097       50.665    14790.153     7761.103     2566.904        3.049        1.256      189.372       37.626        0.039      347.320       26.200      861.747
07/25/2014  21:16:00     -272.957      -31.042      -15.275      147.116      130.275       63.234    21643.196    16971.504     3998.495        5.915        2.131      274.716       69.159        0.063      347.343       26.240      861.785
07/25/2014  21:17:00     -303.044     -115.884      -21.385      154.934      119.498       61.540    24004.674    14279.797     3787.166        7.389        2.104      324.445       72.407        0.050      347.310       26.184      861.813
07/25/2014  21:18:00     -242.425      -92.193      -12.477       89.781       91.018       43.702     8060.550     8284.212     1909.869        4.284        0.913      259.363       42.625        0.027      347.314       26.189      861.839
07/25/2014  21:19:00     -320.030      -92.833      -16.987      120.766      122.024       58.367    14584.375    14889.844     3406.753        7.210        1.644      333.222       54.540        0.027      347.348       26.249      861.842
07/25/2014  21:20:00     -306.590      -36.051       -6.952      142.628       99.976       69.389    20342.799     9995.157     4814.845        6.524        1.758      308.702       75.532        0.060      347.298       26.163      861.855
07/25/2014  21:21:00     -306.413      -68.252       -9.032      136.038      101.236       60.388    18506.260    10248.732     3646.721        6.551        1.620      313.922       63.896        0.041      347.269       26.112      861.851
07/25/2014  21:22:00     -295.906      -70.020      -12.350      123.592      104.518       55.345    15275.062    10923.923     3063.104        6.093        1.463      304.077       61.793        0.041      347.246       26.073      861.845
07/25/2014  21:23:00     -330.479      -49.132        2.711      133.703      117.609       67.939    17876.448    13831.840     4615.689        7.397        1.816      334.112       62.461        0.035      347.226       26.037      861.851
07/25/2014  21:24:00     -279.545     -107.243       -2.539      165.946      125.943       64.031    27538.057    15861.566     4099.908        6.857        2.375      299.410       73.882        0.061      347.218       26.025      861.850
07/25/2014  21:25:00     -323.630      -21.352      -13.894      133.258       94.914       71.247    17757.742     9008.718     5076.165        6.861        1.592      324.333       72.600        0.050      347.230       26.044      861.876
07/25/2014  21:26:00     -278.206      -33.965        0.333      145.300      112.729       83.126    21112.043    12707.759     6909.930        5.963        2.036      280.271       77.964        0.077      347.222       26.032      861.889
07/25/2014  21:27:00     -313.966     -118.424      -22.454      176.349      166.584       71.302    31099.001    27750.331     5083.985        8.851        3.197      335.557       80.454        0.057      347.288       26.145      861.902
07/25/2014  21:28:00     -367.392      -60.547      -18.628      168.720       97.571       76.716    28466.387     9520.132     5885.356        9.142        2.194      372.348       70.077        0.035      347.260       26.096      861.928
07/25/2014  21:29:00     -296.168     -113.571       -6.780      134.872       88.912       48.312    18190.480     7905.374     2334.096        6.454        1.421      317.197       41.294        0.017      347.223       26.032      861.949
07/25/2014  21:30:00     -182.740        5.491        2.879      136.207       67.456       59.061    18552.295     4550.263     3488.147        3.001        1.330      182.823       70.149        0.147      347.147       25.902      861.975
07/25/2014  21:31:00     -395.581      -35.643      -28.185      168.029      101.454       65.136    28233.759    10292.987     4242.736       10.065        2.138      397.184       72.039        0.033      347.230       26.044      861.976
07/25/2014  21:32:00     -309.183      -85.053      -18.673      122.287      105.131       59.143    14954.114    11052.623     3497.843        6.633        1.475      320.668       60.130        0.035      347.190       25.975      862.002
07/25/2014  21:33:00     -291.146      -56.792      -15.047      132.880       85.571       52.915    17657.204     7322.386     2799.990        5.799        1.389      296.633       57.522        0.038      347.184       25.965      862.014
07/25/2014  21:34:00     -295.219      -83.312      -16.669      115.939       99.267       50.791    13441.808     9853.933     2579.745        6.012        1.294      306.750       56.594        0.034      347.125       25.864      862.041
07/25/2014  21:35:00     -285.267      -95.032       -4.611      121.244       70.117       52.687    14700.065     4916.416     2775.948        5.641        1.120      300.680       52.336        0.030      347.138       25.888      862.052
07/25/2014  21:36:00     -302.542      -26.911      -19.424      129.592      109.304       50.542    16794.022    11947.352     2554.457        6.196        1.565      303.737       57.250        0.036      347.059       25.751      862.075
07/25/2014  21:37:00     -245.815       -7.137       -4.055      122.191       77.608       52.950    14930.588     6023.058     2803.675        4.212        1.188      245.919       57.114        0.054      347.043       25.723      862.118
07/25/2014  21:38:00     -199.615     -107.575        4.514      114.904       91.937       48.613    13202.989     8452.410     2363.259        3.772        1.201      226.756       41.470        0.033      347.027       25.696      862.150
07/25/2014  21:39:00     -287.345      -32.553      -34.750       60.406       67.192       41.720     3648.855     4514.750     1740.590        4.737        0.495      289.183       31.432        0.012      347.095       25.810      862.178
07/25/2014  21:40:00     -232.951      -46.330      -17.856       65.561       71.845       31.106     4298.283     5161.742      967.564        3.358        0.521      237.513       23.684        0.010      347.023       25.689      862.216
07/25/2014  21:41:00     -250.583      -50.583      -22.729       98.562       87.096       42.833     9714.450     7585.721     1834.670        4.250        0.957      255.638       36.530        0.020      347.008       25.662      862.234
07/25/2014  21:42:00     -262.110       27.610      -15.319      104.804       97.205       49.569    10983.915     9448.838     2457.100        4.629        1.144      263.561       45.856        0.030      347.022       25.688      862.256
07/25/2014  21:43:00     -174.682      -67.390      -10.265      110.358       83.588       54.725    12178.813     6987.037     2994.803        2.866        1.108      187.231       57.169        0.093      346.976       25.609      862.250
07/25/2014  21:44:00     -256.266      -70.641      -22.990      112.165       83.880       59.218    12581.060     7035.795     3506.815        4.715        1.156      265.823       51.956        0.038      346.957       25.575      862.251
07/25/2014  21:45:00     -221.201      -47.527      -10.394      102.441       83.237       47.357    10494.121     6928.350     2242.698        3.548        0.983      226.249       50.672        0.050      346.902       25.479      862.257
07/25/2014  21:46:00     -272.175      -44.000      -21.619       92.796       70.447       42.516     8611.115     4962.807     1807.581        4.593        0.769      275.708       45.353        0.027      346.874       25.431      862.259
07/25/2014  21:47:00     -230.482      -46.704      -13.984       81.521       56.772       39.686     6645.720     3223.004     1574.939        3.347        0.572      235.167       35.121        0.022      346.875       25.433      862.287
07/25/2014  21:48:00     -118.976        0.312      -15.061       46.683       37.301       35.911     2179.334     1391.341     1289.622        0.962        0.243      118.976       15.857        0.018      346.859       25.410      862.280
07/25/2014  21:49:00     -156.560      -65.438       -7.967       90.564       59.291       37.967     8201.797     3515.436     1441.496        2.101        0.658      169.685       37.232        0.048      346.788       25.286      862.294
07/25/2014  21:50:00     -376.112      -50.752      -38.363       75.559       76.346       43.656     5709.124     5828.694     1905.876        7.947        0.672      379.521       36.198        0.009      346.783       25.276      862.323
07/25/2014  21:51:00     -252.609      -79.756      -22.098      100.010       93.482       47.673    10002.004     8738.870     2272.673        4.583        1.051      264.900       37.980        0.021      346.743       25.208      862.327
07/25/2014  21:52:00     -315.638      -63.263      -22.445       83.199       87.580       49.800     6922.055     7670.190     2480.003        6.060        0.854      321.915       40.039        0.015      346.797       25.300      862.332
07/25/2014  21:53:00     -187.939     -105.335       -3.423       72.522       71.576       45.923     5259.396     5123.063     2108.928        2.946        0.625      215.445       40.351        0.035      346.765       25.244      862.341
07/25/2014  21:54:00     -261.551      -94.794      -26.001       81.150       89.172       41.647     6585.256     7951.617     1734.480        4.717        0.814      278.199       35.256        0.016      346.766       25.246      862.358
07/25/2014  21:55:00     -239.629      -72.337      -20.943      131.727       79.746       60.216    17351.980     6359.404     3626.014        4.521        1.367      250.310       57.360        0.053      346.787       25.283      862.380
07/25/2014  21:56:00     -191.219      -54.111      -12.074      139.973       74.943       58.537    19592.545     5616.389     3426.539        3.413        1.432      198.728       68.398        0.118      346.818       25.337      862.381
07/25/2014  21:57:00     -272.188      -71.271      -22.261       99.184       61.670       36.837     9837.392     3803.247     1356.989        4.733        0.750      281.364       23.955        0.007      346.890       25.459      862.406
07/25/2014  21:58:00     -204.168      -87.907      -13.258      113.499       90.311       51.240    12881.961     8156.029     2625.493        3.662        1.183      222.289       47.994        0.047      346.871       25.428      862.407
07/25/2014  21:59:00     -276.891      -61.922      -21.525      104.640      103.126       49.621    10949.506    10635.050     2462.266        5.250        1.202      283.730       46.841        0.027      346.893       25.464      862.420
07/25/2014  22:00:00     -187.139       11.629      -10.265      116.002       79.441       56.823    13456.539     6310.903     3228.908        2.912        1.150      187.500       63.160        0.113      346.800       25.306      862.416
07/25/2014  22:01:00     -183.057      -37.103      -17.789       86.261       89.369       48.387     7441.043     7986.803     2341.306        2.648        0.888      186.779       42.113        0.051      346.810       25.322      862.428
07/25/2014  22:02:00     -207.794      -30.223      -37.586       51.752       65.244       31.637     2678.243     4256.836     1000.878        2.672        0.397      209.980       16.915        0.006      346.810       25.321      862.442
07/25/2014  22:03:00     -172.061      -56.229       -5.693      100.389       74.017       40.301    10078.045     5478.508     1624.137        2.499        0.859      181.016       41.312        0.052      346.747       25.215      862.430
07/25/2014  22:04:00     -149.380      -38.904      -17.112       64.774       51.214       31.465     4195.656     2622.847      990.022        1.596        0.390      154.363       23.774        0.024      346.778       25.269      862.431
07/25/2014  22:05:00     -169.964      -23.747       -2.067       76.499       81.114       44.613     5852.112     6579.516     1990.334        2.194        0.721      171.615       25.805        0.023      346.757       25.233      862.439
07/25/2014  22:06:00     -244.247      -68.251      -16.491      115.850       83.100       53.657    13421.180     6905.683     2879.039        4.389        1.160      253.604       50.577        0.040      346.721       25.167      862.437
07/25/2014  22:07:00      -99.422      -26.785        2.083      108.389       72.138       37.373    11748.234     5203.930     1396.711        1.447        0.917      102.966       37.917        0.136      346.631       25.017      862.453
07/25/2014  22:08:00     -238.080      -18.322      -21.187      108.673       94.486       58.880    11809.820     8927.615     3466.900        4.083        1.210      238.784       50.475        0.045      346.698       25.128      862.459
07/25/2014  22:09:00     -194.968      -37.381      -22.449       85.265       76.603       57.267     7270.125     5867.944     3279.540        2.816        0.821      198.519       50.288        0.064      346.713       25.155      862.452
07/25/2014  22:10:00     -238.944      -72.394      -34.509       72.547       69.917       47.878     5263.135     4888.325     2292.313        3.798        0.622      249.670       37.668        0.023      346.729       25.181      862.459
07/25/2014  22:11:00     -206.024      -35.238      -40.424       72.895       98.674       41.364     5313.733     9736.634     1710.942        3.104        0.838      209.016       11.936        0.003      346.678       25.095      862.449
07/25/2014  22:12:00     -120.118      -28.379       -8.426       42.940       74.987       46.606     1843.879     5623.090     2172.081        1.247        0.482      123.425       24.410        0.039      346.663       25.073      862.441
07/25/2014  22:13:00     -131.509      -38.270       -2.439       70.701       56.862       35.953     4998.588     3233.296     1292.638        1.414        0.476      136.964       29.917        0.048      346.592       24.949      862.441
07/25/2014  22:14:00     -203.496      -25.881      -22.679      109.635       86.019       57.288    12019.805     7399.314     3281.897        3.264        1.135      205.136       54.854        0.072      346.566       24.903      862.419
07/25/2014  22:15:00     -235.177       -9.134      -16.081       74.542       68.201       43.387     5556.542     4651.336     1882.432        3.387        0.605      235.355       31.087        0.017      346.587       24.937      862.414
07/25/2014  22:16:00     -258.822      -67.472      -10.294       92.034       80.603       50.220     8470.323     6496.828     2522.062        4.456        0.874      267.472       50.566        0.036      346.530       24.839      862.412
07/25/2014  22:17:00     -247.751      -80.605       -7.278       99.053       74.278       48.075     9811.473     5517.237     2311.236        4.278        0.882      260.533       47.664        0.033      346.488       24.768      862.411
07/25/2014  22:18:00     -228.500       25.882      -25.736      100.159       60.093       41.627    10031.774     3611.110     1732.789        3.446        0.769      229.961       42.983        0.035      346.507       24.802      862.399
07/25/2014  22:19:00     -168.831      215.807      -39.559       68.249       89.967       51.032     4657.975     8094.056     2604.291        4.600        0.768      274.001       40.938        0.022      346.745       25.210      862.369
07/25/2014  22:20:00     -125.645       86.897       -7.812       71.383      114.433       53.020     5095.564    13094.900     2811.141        2.220        1.050      152.767       19.558        0.016      346.717       25.163      862.360
07/25/2014  22:21:00     -232.942      -82.952       -6.462      129.519      100.276       49.279    16775.097    10055.196     2428.421        4.522        1.463      247.271       40.302        0.027      346.701       25.134      862.359
07/25/2014  22:22:00     -194.925      -13.438       -2.638      111.638      106.902       50.011    12462.956    11427.983     2501.110        3.228        1.320      195.387       57.940        0.088      346.582       24.929      862.368
07/25/2014  22:23:00     -350.591      -88.152      -20.956      132.133      111.044       66.876    17459.216    12330.667     4472.383        8.269        1.713      361.503       65.575        0.033      346.657       25.057      862.354
07/25/2014  22:24:00     -372.040      -60.185      -32.146      209.414      141.413       73.756    43854.267    19997.621     5439.917       10.617        3.465      376.876       85.417        0.051      346.710       25.148      862.380
07/25/2014  22:25:00     -263.873       53.035      -20.164      112.921      125.236       59.968    12751.040    15684.137     3596.188        5.243        1.602      269.150       40.942        0.023      346.938       25.543      862.367
07/25/2014  22:26:00     -101.375      121.346       -6.011       76.360      115.937       49.328     5830.908    13441.447     2433.208        2.337        1.085      158.119       41.468        0.069      346.945       25.555      862.339
07/25/2014  22:27:00     -110.398       75.493      -19.418      131.124      117.493       54.083    17193.616    13804.577     2925.002        2.609        1.696      133.742       56.722        0.180      346.919       25.510      862.338
07/25/2014  22:28:00     -234.837      -16.357      -19.211       64.266      101.837       48.730     4130.119    10370.743     2374.657        3.633        0.844      235.406       31.970        0.018      346.896       25.469      862.336
07/25/2014  22:29:00     -212.922      -40.199      -14.790       83.621      109.879       44.673     6992.489    12073.324     1995.688        3.411        1.053      216.684       38.062        0.031      346.813       25.327      862.385
07/25/2014  22:30:00     -119.323       36.350      -12.233       54.383      103.260       42.782     2957.545    10662.686     1830.298        1.558        0.773      124.737       48.078        0.149      346.720       25.169      862.400
07/25/2014  22:31:00      -75.475       75.688        2.545       78.755       97.758       41.297     6202.398     9556.586     1705.481        1.444        0.873      106.888       38.602        0.130      346.638       25.028      862.404
07/25/2014  22:32:00     -104.221        6.603       -1.103       54.900       56.439       40.933     3013.970     3185.314     1675.477        0.939        0.394      104.430       39.447        0.143      346.636       25.025      862.435
07/25/2014  22:33:00      -57.414       22.046       13.932       76.297       46.556       45.984     5821.269     2167.449     2114.497        0.704        0.505       61.501       44.414        0.522      346.473       24.747      862.427
07/25/2014  22:34:00      -93.556       95.227       -5.744       60.393       83.200       40.418     3647.296     6922.269     1633.646        1.503        0.610      133.495       33.934        0.065      346.483       24.763      862.438
07/25/2014  22:35:00      -83.886      135.487       -6.714       53.284       61.715       43.439     2839.137     3808.708     1886.955        1.698        0.427      159.353       27.976        0.031      346.434       24.678      862.456
07/25/2014  22:36:00      -77.242       91.024      -11.465       64.942      103.670       46.094     4217.404    10747.548     2124.659        1.573        0.854      119.381       21.970        0.034      346.419       24.652      862.451
07/25/2014  22:37:00      -93.550      128.198      -19.494       64.735       59.089       46.956     4190.579     3491.456     2204.902        1.772        0.494      158.702       37.822        0.057      346.316       24.474      862.458
07/25/2014  22:38:00     -108.244       60.600       -7.832       65.971       62.607       36.487     4352.129     3919.633     1331.314        1.252        0.480      124.053       25.206        0.041      346.320       24.483      862.482
07/25/2014  22:39:00      -43.942       45.965       20.447       66.913      101.432       46.551     4477.285    10288.376     2166.981        1.069        0.847       63.590       39.282        0.382      346.219       24.308      862.492
07/25/2014  22:40:00     -136.559       74.896      -24.952       88.462       45.391       41.250     7825.570     2060.332     1701.532        1.823        0.579      155.749       47.510        0.093      346.266       24.389      862.502
07/25/2014  22:41:00      -89.300       71.902      -19.333       59.419       65.197       40.291     3530.667     4250.592     1623.368        1.146        0.470      114.649       24.334        0.045      346.298       24.446      862.524
07/25/2014  22:42:00     -100.901       59.369       -2.347       67.364       62.664       60.793     4537.898     3926.720     3695.763        1.293        0.608      117.071       43.383        0.137      346.308       24.462      862.552
07/25/2014  22:43:00      -90.068       24.263      -12.491       89.309      102.676       47.239     7976.152    10542.404     2231.570        1.480        1.038       93.279       54.190        0.337      346.386       24.595      862.580
07/25/2014  22:44:00     -145.207      109.191      -34.511       90.502      111.003       58.539     8190.554    12321.688     3426.827        2.906        1.197      181.681       57.424        0.100      346.425       24.661      862.588
07/25/2014  22:45:00      -48.330      -26.529        8.954       56.050       58.729       29.932     3141.629     3449.120      895.936        0.530        0.374       55.132       27.142        0.242      346.409       24.637      862.619
07/25/2014  22:46:00      -96.655       24.679       -3.614       81.346       90.453       42.496     6617.244     8181.733     1805.897        1.328        0.830       99.756       36.453        0.134      346.387       24.597      862.634
07/25/2014  22:47:00     -147.573      -16.226       -6.166       94.596      131.518       60.580     8948.326    17296.979     3669.931        2.599        1.496      148.462       52.792        0.126      346.388       24.598      862.650
07/25/2014  22:48:00     -199.453      -22.426      -15.302       83.211      100.361       46.050     6924.038    10072.391     2120.584        2.981        0.956      200.710       37.659        0.035      346.426       24.664      862.678
07/25/2014  22:49:00     -138.754      -55.870      -15.725      104.320       89.413       52.391    10882.577     7994.682     2744.856        2.212        1.081      149.580       47.436        0.101      346.391       24.602      862.691
07/25/2014  22:50:00     -181.850        1.388      -39.341       76.603       95.384       41.344     5868.092     9098.122     1709.317        2.564        0.834      181.856       32.754        0.032      346.417       24.645      862.704
07/25/2014  22:51:00     -160.239      -15.344      -12.525       83.766      106.121       43.087     7016.669    11261.689     1856.450        2.310        1.007      160.972       36.536        0.052      346.416       24.646      862.701
07/25/2014  22:52:00     -134.412       -9.341       -8.287       62.529       65.043       38.629     3909.855     4230.643     1492.236        1.393        0.482      134.737       22.706        0.028      346.307       24.460      862.707
07/25/2014  22:53:00     -150.250       -0.925      -14.261       85.574       62.795       46.511     7322.896     3943.194     2163.294        1.810        0.671      150.252       45.777        0.093      346.347       24.527      862.701
07/25/2014  22:54:00     -230.042      -85.072      -16.280      107.606       98.499       53.310    11578.984     9702.142     2842.005        4.227        1.206      245.268       50.196        0.042      346.361       24.550      862.691
07/25/2014  22:55:00     -285.635      -62.679      -33.697       84.989       99.531       46.154     7223.118     9906.474     2130.152        5.295        0.963      292.432       38.968        0.018      346.381       24.585      862.700
07/25/2014  22:56:00     -219.048      -18.044      -28.373       89.172       63.353       36.339     7951.648     4013.592     1320.525        3.120        0.664      219.790       38.106        0.030      346.344       24.522      862.692
07/25/2014  22:57:00     -341.062      -43.864      -23.944      124.713      106.182       55.811    15553.363    11274.705     3114.912        7.438        1.497      343.871       56.044        0.027      346.337       24.508      862.684
07/25/2014  22:58:00     -330.035      -32.912      -24.347      108.589       74.881       57.186    11791.496     5607.107     3270.295        6.563        1.033      331.672       49.449        0.022      346.349       24.529      862.696
07/25/2014  22:59:00     -341.336      -11.226      -25.060      127.595      118.165       46.627    16280.437    13962.903     2174.069        7.483        1.621      341.520       41.608        0.015      346.326       24.490      862.690
07/25/2014  23:00:00     -314.494      -81.946      -16.301       83.699       73.971       45.577     7005.599     5471.722     2077.293        6.022        0.728      324.995       33.782        0.011      346.313       24.466      862.681
07/25/2014  23:01:00     -337.234      -57.647      -24.685       91.826       81.196       49.892     8431.991     6592.789     2489.186        6.758        0.876      342.125       49.087        0.021      346.265       24.385      862.688
07/25/2014  23:02:00     -329.352      -30.160      -30.576      123.866       70.977       51.442    15342.669     5037.685     2646.261        6.667        1.151      330.730       60.397        0.033      346.280       24.408      862.688
07/25/2014  23:03:00     -374.675      -21.336      -36.565      108.815       94.789       55.103    11840.670     8985.022     3036.287        8.301        1.193      375.282       58.993        0.025      346.287       24.422      862.683
07/25/2014  23:04:00     -283.705      -83.973      -17.549      109.761       83.071       54.386    12047.558     6900.737     2957.794        5.487        1.095      295.871       60.346        0.042      346.242       24.345      862.688
07/25/2014  23:05:00     -229.286     -105.602      -14.013       70.846       78.375       41.405     5019.129     6142.603     1714.394        3.840        0.644      252.436       33.333        0.017      346.212       24.293      862.716
07/25/2014  23:06:00     -213.962      -62.567      -24.259       78.618       73.185       35.390     6180.844     5356.074     1252.437        3.153        0.639      222.923       32.988        0.022      346.219       24.306      862.711
07/25/2014  23:07:00     -238.728      -76.729      -15.307      101.492       70.645       56.295    10300.679     4990.781     3169.115        4.078        0.923      250.755       41.169        0.027      346.225       24.316      862.718
07/25/2014  23:08:00     -335.841      -27.949      -35.592       85.743       75.745       38.391     7351.830     5737.287     1473.879        6.470        0.728      337.002       35.162        0.011      346.266       24.384      862.733
07/25/2014  23:09:00     -274.632      -59.105      -14.177       93.830       88.270       50.479     8803.977     7791.634     2548.141        4.913        0.957      280.920       49.647        0.031      346.232       24.326      862.735
07/25/2014  23:10:00     -229.883      -88.198       -5.765      138.478       84.632       52.240    19176.275     7162.597     2728.993        4.486        1.453      246.222       54.187        0.048      346.193       24.261      862.740
07/25/2014  23:11:00     -321.683      -49.015      -21.428       87.818       86.277       49.866     7711.929     7443.655     2486.651        6.199        0.882      325.396       49.478        0.023      346.220       24.307      862.751
07/25/2014  23:12:00     -222.551      -72.183        3.894       85.729       77.658       48.802     7349.483     6030.719     2381.631        3.525        0.788      233.964       48.062        0.042      346.168       24.218      862.769
07/25/2014  23:13:00     -230.112      -82.281       -4.615       68.730       90.079       45.249     4723.758     8114.274     2047.503        3.731        0.744      244.380       40.045        0.027      346.159       24.201      862.767
07/25/2014  23:14:00     -230.045      -51.489      -15.632       79.670       65.443       42.027     6347.244     4282.746     1766.298        3.410        0.620      235.737       37.613        0.025      346.138       24.167      862.759
07/25/2014  23:15:00     -294.300      -49.749      -14.363      123.821       73.629       54.453    15331.561     5421.169     2965.108        5.650        1.186      298.475       65.293        0.048      346.161       24.205      862.780
07/25/2014  23:16:00     -223.901      -84.653       -8.695       77.396       65.860       44.127     5990.169     4337.540     1947.150        3.482        0.614      239.370       44.953        0.035      346.085       24.075      862.784
07/25/2014  23:17:00     -251.738      -22.221      -23.661       77.959       73.794       44.577     6077.594     5445.571     1987.122        3.897        0.676      252.717       40.491        0.026      346.053       24.020      862.792
07/25/2014  23:18:00     -200.725      -58.953       -8.312       88.315       72.223       46.412     7799.483     5216.105     2154.070        2.950        0.758      209.203       32.789        0.025      346.061       24.033      862.795
07/25/2014  23:19:00     -141.430      -56.393        1.996       68.755       62.258       35.107     4727.230     3876.010     1232.524        1.651        0.492      152.259       37.693        0.061      345.987       23.909      862.810
07/25/2014  23:20:00     -180.242      -29.223      -21.883       58.517       60.676       26.480     3424.200     3681.589      701.189        2.081        0.390      182.596       21.736        0.014      346.021       23.969      862.819
07/25/2014  23:21:00     -170.867      -48.861       -8.705       75.784       63.648       39.687     5743.243     4051.092     1575.082        2.151        0.568      177.716       39.533        0.049      346.039       23.999      862.827
07/25/2014  23:22:00     -210.598      -23.786       -7.694       98.258       57.756       41.009     9654.626     3335.790     1681.742        2.982        0.734      211.937       40.129        0.036      345.957       23.857      862.846
07/25/2014  23:23:00     -203.138       -7.240      -13.510       76.951       46.529       44.162     5921.488     2164.989     1950.284        2.577        0.502      203.267       46.092        0.051      345.979       23.895      862.857
07/25/2014  23:24:00     -216.778      -36.445       -9.702       70.119       53.931       39.430     4916.707     2908.540     1554.738        2.890        0.469      219.820       38.106        0.030      345.921       23.794      862.867
07/25/2014  23:25:00     -217.072      -29.795      -17.962       75.136       59.623       31.890     5645.387     3554.910     1016.982        2.927        0.511      219.108       25.305        0.013      345.932       23.813      862.885
07/25/2014  23:26:00     -189.625      -38.164       -6.114       74.700       52.524       35.342     5580.151     2758.799     1249.083        2.352        0.479      193.427       40.432        0.044      345.871       23.709      862.900
07/25/2014  23:27:00     -170.289      -29.876       -8.171       65.942       54.491       28.277     4348.393     2969.318      799.614        1.904        0.406      172.890       31.928        0.034      345.878       23.721      862.899
07/25/2014  23:28:00     -132.460       51.959      -22.888       45.484       71.766       35.637     2068.835     5150.315     1270.006        1.463        0.424      142.287       30.217        0.045      345.922       23.799      862.905
07/25/2014  23:29:00      -77.821       30.238        4.245       43.003       55.393       29.646     1849.284     3068.367      878.864        0.639        0.290       83.489       26.329        0.099      345.866       23.703      862.910
07/25/2014  23:30:00      -59.996       29.125        3.304       37.022       54.832       30.594     1370.639     3006.565      935.973        0.488        0.266       66.691       21.350        0.102      345.804       23.598      862.914
07/25/2014  23:31:00     -137.311       61.443      -15.198       54.647       77.468       36.164     2986.302     6001.221     1307.814        1.658        0.515      150.431       31.513        0.044      345.910       23.777      862.909
07/25/2014  23:32:00     -121.080       48.480      -13.793       68.351       73.932       31.609     4671.848     5465.977      999.155        1.417        0.557      130.425       35.321        0.073      345.907       23.773      862.911
07/25/2014  23:33:00     -160.567       56.805      -15.363       55.788       49.819       33.011     3112.296     2481.884     1089.707        1.796        0.334      170.319       33.307        0.038      345.872       23.712      862.923
07/25/2014  23:34:00     -129.019       68.472      -22.473       62.103       30.004       28.375     3856.758      900.215      805.132        1.370        0.278      146.063       28.072        0.037      345.862       23.695      862.916
07/25/2014  23:35:00      -65.622       41.397       -9.220       42.123       53.356       22.993     1774.322     2846.850      528.689        0.563        0.257       77.588       25.691        0.110      345.884       23.733      862.919
07/25/2014  23:36:00     -105.212       73.056      -21.082       41.460       64.214       29.430     1718.956     4123.403      866.113        1.178        0.335      128.089       26.336        0.042      346.013       23.957      862.931
07/25/2014  23:37:00      -31.488       51.484       19.323       58.910       51.219       24.211     3470.428     2623.396      586.166        0.535        0.334       60.350       18.288        0.092      345.913       23.783      862.954
07/25/2014  23:38:00      -73.377       11.526       -4.700       47.175       35.245       26.206     2225.475     1242.224      686.775        0.485        0.208       74.277       22.418        0.091      345.853       23.681      862.963
07/25/2014  23:39:00      -56.394      -20.895       -4.243       59.205       33.376       19.866     3505.238     1113.931      394.673        0.432        0.251       60.140       10.277        0.029      345.836       23.652      862.973
07/25/2014  23:40:00      -83.956       -1.503       -8.060       51.969       38.648       28.452     2700.800     1493.653      809.514        0.606        0.250       83.969       19.818        0.056      345.928       23.810      862.996
07/25/2014  23:41:00     -107.268       -2.107       -8.102       35.133       41.558       22.078     1234.312     1727.029      487.436        0.751        0.172      107.288       13.384        0.016      345.922       23.801      863.014
07/25/2014  23:42:00      -99.623      108.337      -16.920       46.915      100.457       43.311     2201.008    10091.632     1875.827        1.806        0.708      147.179       40.721        0.077      346.043       24.005      863.019
07/25/2014  23:43:00     -114.761      219.756      -35.176       74.501       85.364       43.144     5550.473     7287.027     1861.379        3.870        0.735      247.917       50.589        0.042      346.311       24.464      863.009
07/25/2014  23:44:00      -52.163      320.970      -44.780       66.910       81.333       38.383     4476.981     6615.100     1473.259        6.015        0.628      325.181       41.502        0.016      346.364       24.555      862.995
07/25/2014  23:45:00      -48.212      299.051      -40.076       53.787      105.524       36.873     2893.016    11135.292     1359.649        5.437        0.769      302.912       41.664        0.019      346.337       24.509      862.996
07/25/2014  23:46:00      -97.228      113.756      -16.444       36.991       64.146       30.479     1368.309     4114.656      928.966        1.454        0.321      149.645       28.994        0.038      346.245       24.353      863.003
07/25/2014  23:47:00      -96.659       87.929      -24.401       55.214       85.996       32.121     3048.597     7395.345     1031.772        1.457        0.574      130.670       21.850        0.028      346.255       24.371      863.006
07/25/2014  23:48:00      -52.250       80.515        2.218       54.119       47.540       33.842     2928.883     2260.055     1145.287        0.777        0.317       95.983       20.877        0.047      346.193       24.265      863.002
07/25/2014  23:49:00      -35.092      154.791      -20.356       41.545       46.386       21.302     1725.965     2151.670      453.772        1.497        0.217      158.719       14.437        0.008      346.258       24.375      862.988
07/25/2014  23:50:00       -0.896      242.531      -35.972       47.688       67.053       28.614     2274.104     4496.148      818.745        3.385        0.379      242.533       25.454        0.011      346.364       24.555      862.960
07/25/2014  23:51:00      -86.404      107.024      -21.039       38.479       88.903       27.742     1480.623     7903.673      769.595        1.476        0.508      137.549       36.963        0.072      346.310       24.464      862.965
07/25/2014  23:52:00     -101.570      -78.318        5.064       75.249       50.298       32.681     5662.370     2529.927     1068.073        1.287        0.463      128.258       37.831        0.087      346.170       24.225      862.983
07/25/2014  23:53:00     -180.074     -112.569        3.342       52.248       61.998       36.709     2729.836     3843.772     1347.560        2.651        0.396      212.364       36.805        0.030      346.060       24.031      863.010
07/25/2014  23:54:00      -59.378      -53.735        1.244       54.738       30.741       21.467     2996.274      944.980      460.846        0.541        0.220       80.083       16.776        0.044      346.042       24.004      863.015
07/25/2014  23:55:00     -146.203      -26.059       -7.139       91.631       45.130       26.649     8396.170     2036.692      710.171        1.662        0.557      148.508       31.725        0.046      346.159       24.203      863.010
07/25/2014  23:56:00     -293.449        0.076      -31.629       69.962      104.789       43.828     4894.693    10980.640     1920.931        5.245        0.890      293.449       38.872        0.018      346.305       24.453      863.012
07/25/2014  23:57:00     -219.340       52.042      -27.266       45.916       58.187       31.509     2108.272     3385.782      992.832        2.902        0.324      225.429       26.194        0.014      346.229       24.323      862.997
07/25/2014  23:58:00     -141.976       40.249      -14.298       68.690       40.841       40.681     4718.349     1667.962     1654.979        1.501        0.402      147.571       39.585        0.072      346.143       24.177      863.014
07/25/2014  23:59:00      -35.739      126.782      -10.153       65.272       94.457       46.057     4260.395     8922.059     2121.221        1.638        0.765      131.723       15.901        0.015      346.123       24.144      863.002
